[[{"header":{"parameterUnit":"m.s-1","parameterCategory":1,"la1":30.6,"la2":29.2853,"lo1":-89.7004,"lo2":-87.6739,"dy":0.0162,"dx":0.0183,"nx":112,"ny":82,"refTime":"2023-06-24T12:00:00:Z","depth":0,"parameterNumber":2,"parameterNumberName":"U-component_of_WINDS"},"data":[0.0,0.0,0.0,0.0,0.0,0.0,0.0,0.0,0.0,0.0,0.0,0.0,0.0,0.0,0.0,0.0,0.0,0.0,0.0,0.0,0.0,0.0,0.0,0.0,0.0,0.0,0.0,0.0,0.0,0.0,0.0,0.0,0.0,0.0,0.0,0.0,0.0,0.0,0.0,0.0,0.0,0.0,0.0,0.0,0.0,0.0,0.0,0.0,0.0,0.0,0.0,0.0,0.0,0.0,0.0,0.0,0.0,0.0,0.0,0.0,0.0,0.0,0.0,0.0,0.0,0.0,0.0,0.0,0.0,0.0,0.0,0.0,0.0,0.0,0.0,0.0,0.0,0.0,0.0,0.0,0.0,0.0,0.0,0.0,0.0,0.0,0.0,0.0,0.0,0.0,0.0,-2.6606,-3.1278,-3.3921,-3.3335,-3.2529,-3.0134,-2.5636,0.0,0.0,0.0,0.0,0.0,0.0,0.0,0.0,0.0,0.0,0.0,0.0,0.0,0.0,0.0,0.0,0.0,0.0,0.0,0.0,0.0,0.0,0.0,0.0,0.0,0.0,0.0,0.0,0.0,0.0,0.0,0.0,0.0,0.0,0.0,0.0,0.0,0.0,0.0,0.0,0.0,0.0,0.0,0.0,0.0,0.0,0.0,0.0,0.0,0.0,0.0,0.0,0.0,0.0,0.0,0.0,0.0,0.0,0.0,0.0,0.0,0.0,0.0,0.0,0.0,0.0,0.0,0.0,0.0,0.0,0.0,0.0,0.0,0.0,0.0,0.0,0.0,0.0,0.0,0.0,0.0,0.0,0.0,0.0,0.0,0.0,0.0,0.0,0.0,0.0,0.0,0.0,0.0,0.0,0.0,0.0,0.0,0.0,0.0,0.0,0.0,0.0,0.0,0.0,-2.3475,-2.7098,-3.0197,-3.1959,-3.1853,-3.0202,-2.7921,-2.4942,0.0,0.0,0.0,0.0,0.0,0.0,0.0,0.0,0.0,0.0,0.0,0.0,0.0,0.0,0.0,0.0,0.0,0.0,0.0,0.0,0.0,0.0,0.0,0.0,0.0,0.0,0.0,0.0,0.0,0.0,0.0,0.0,0.0,0.0,0.0,0.0,0.0,0.0,0.0,0.0,0.0,0.0,0.0,0.0,0.0,0.0,0.0,0.0,0.0,0.0,0.0,0.0,0.0,0.0,0.0,0.0,0.0,0.0,0.0,0.0,0.0,0.0,0.0,0.0,0.0,0.0,0.0,0.0,0.0,0.0,0.0,0.0,0.0,0.0,0.0,0.0,0.0,0.0,0.0,0.0,0.0,0.0,0.0,0.0,0.0,0.0,0.0,0.0,0.0,0.0,0.0,0.0,0.0,0.0,0.0,0.0,0.0,0.0,0.0,0.0,0.0,0.0,0.0,-2.3235,-2.4174,-2.6789,-2.9101,-3.0328,-2.9968,-2.8442,-2.6527,-2.4208,-2.343,0.0,0.0,0.0,0.0,0.0,0.0,0.0,0.0,0.0,0.0,0.0,0.0,0.0,0.0,0.0,0.0,0.0,0.0,0.0,0.0,0.0,0.0,0.0,0.0,0.0,0.0,0.0,0.0,0.0,0.0,0.0,0.0,0.0,0.0,0.0,0.0,0.0,0.0,0.0,0.0,0.0,0.0,0.0,0.0,0.0,0.0,0.0,0.0,0.0,0.0,0.0,0.0,0.0,0.0,0.0,0.0,0.0,0.0,0.0,0.0,0.0,0.0,0.0,0.0,0.0,0.0,0.0,0.0,0.0,0.0,0.0,0.0,0.0,0.0,0.0,0.0,0.0,0.0,0.0,0.0,0.0,0.0,0.0,0.0,0.0,0.0,0.0,0.0,0.0,0.0,0.0,0.0,0.0,0.0,0.0,0.0,0.0,0.0,0.0,0.0,0.0,0.0,-2.3819,-2.4567,-2.5976,-2.7769,-2.8667,-2.8173,-2.6752,-2.5166,-2.349,-2.2024,0.0,0.0,0.0,0.0,0.0,0.0,0.0,0.0,0.0,0.0,0.0,0.0,0.0,0.0,0.0,0.0,0.0,0.0,0.0,0.0,0.0,0.0,0.0,0.0,0.0,0.0,0.0,0.0,0.0,0.0,0.0,0.0,0.0,0.0,0.0,0.0,0.0,0.0,0.0,0.0,0.0,0.0,0.0,0.0,0.0,0.0,0.0,0.0,0.0,0.0,0.0,0.0,0.0,0.0,0.0,0.0,0.0,0.0,0.0,0.0,0.0,0.0,0.0,0.0,0.0,0.0,0.0,0.0,0.0,0.0,0.0,0.0,0.0,0.0,0.0,0.0,0.0,0.0,0.0,0.0,0.0,0.0,0.0,0.0,0.0,0.0,0.0,0.0,0.0,0.0,0.0,0.0,0.0,0.0,0.0,0.0,0.0,0.0,0.0,0.0,0.0,0.0,-2.2842,-2.3707,-2.4657,-2.5989,-2.6782,-2.6737,-2.4941,-2.3505,-2.2787,-2.0902,0.0,0.0,0.0,0.0,0.0,0.0,0.0,0.0,0.0,0.0,0.0,0.0,0.0,0.0,0.0,0.0,0.0,0.0,0.0,0.0,0.0,0.0,0.0,0.0,0.0,0.0,0.0,0.0,0.0,0.0,0.0,0.0,0.0,0.0,0.0,0.0,0.0,0.0,0.0,0.0,0.0,0.0,0.0,0.0,0.0,0.0,0.0,0.0,0.0,0.0,0.0,0.0,0.0,0.0,0.0,0.0,0.0,0.0,0.0,0.0,0.0,0.0,0.0,0.0,0.0,0.0,0.0,0.0,0.0,0.0,0.0,0.0,0.0,0.0,0.0,0.0,0.0,0.0,0.0,0.0,0.0,0.0,0.0,0.0,0.0,0.0,0.0,0.0,0.0,0.0,0.0,0.0,0.0,0.0,0.0,0.0,0.0,0.0,0.0,0.0,0.0,0.0,-2.2017,-2.2737,0.0,-2.4822,-2.5196,-2.4762,-2.4029,-2.2996,-2.1545,0.0,0.0,0.0,0.0,0.0,0.0,0.0,0.0,0.0,0.0,0.0,0.0,0.0,0.0,0.0,0.0,0.0,0.0,0.0,0.0,0.0,0.0,0.0,0.0,0.0,0.0,0.0,0.0,0.0,0.0,0.0,0.0,0.0,0.0,0.0,0.0,0.0,0.0,0.0,0.0,0.0,0.0,0.0,0.0,0.0,0.0,0.0,0.0,0.0,0.0,0.0,0.0,0.0,0.0,0.0,0.0,0.0,0.0,0.0,0.0,0.0,0.0,0.0,0.0,0.0,0.0,0.0,0.0,0.0,0.0,0.0,0.0,0.0,0.0,0.0,0.0,0.0,0.0,0.0,0.0,0.0,0.0,0.0,0.0,0.0,0.0,0.0,0.0,0.0,0.0,0.0,0.0,0.0,0.0,0.0,0.0,0.0,0.0,0.0,0.0,0.0,0.0,-2.0953,-2.1038,-2.147,0.0,-2.3295,-2.3505,-2.3041,-2.2413,-2.1665,-2.0782,0.0,0.0,0.0,0.0,0.0,0.0,0.0,0.0,0.0,0.0,0.0,0.0,0.0,0.0,0.0,0.0,0.0,0.0,0.0,0.0,0.0,0.0,0.0,0.0,0.0,0.0,0.0,0.0,0.0,0.0,0.0,0.0,0.0,0.0,0.0,0.0,0.0,0.0,0.0,0.0,0.0,0.0,0.0,0.0,0.0,0.0,0.0,0.0,0.0,0.0,0.0,0.0,0.0,0.0,0.0,0.0,0.0,0.0,0.0,0.0,0.0,0.0,0.0,0.0,0.0,0.0,0.0,0.0,0.0,0.0,0.0,0.0,0.0,0.0,0.0,0.0,0.0,0.0,0.0,0.0,0.0,0.0,0.0,0.0,0.0,0.0,0.0,0.0,0.0,0.0,0.0,0.0,0.0,0.0,0.0,0.0,0.0,0.0,0.0,0.0,0.0,0.0,-2.0237,-1.9929,-1.9944,-2.0632,-2.1291,-2.168,-2.168,-1.9869,-1.9286,0.0,0.0,0.0,0.0,0.0,0.0,0.0,0.0,0.0,0.0,0.0,0.0,0.0,0.0,0.0,0.0,0.0,0.0,0.0,0.0,0.0,0.0,0.0,0.0,0.0,0.0,0.0,0.0,0.0,0.0,0.0,0.0,0.0,0.0,0.0,0.0,0.0,0.0,0.0,0.0,0.0,0.0,0.0,0.0,0.0,0.0,0.0,0.0,0.0,0.0,0.0,0.0,0.0,0.0,0.0,0.0,0.0,0.0,0.0,0.0,0.0,0.0,0.0,0.0,0.0,0.0,0.0,0.0,0.0,0.0,0.0,0.0,0.0,0.0,0.0,0.0,0.0,0.0,0.0,0.0,0.0,0.0,0.0,0.0,0.0,0.0,0.0,0.0,0.0,0.0,0.0,0.0,0.0,0.0,0.0,0.0,0.0,0.0,0.0,0.0,0.0,0.0,0.0,-1.9834,-1.9376,-1.9435,-2.0602,-2.0887,-2.1006,-2.1006,-2.0019,-1.957,-1.9959,0.0,0.0,0.0,0.0,0.0,0.0,0.0,0.0,0.0,0.0,0.0,0.0,0.0,0.0,0.0,0.0,0.0,0.0,0.0,0.0,0.0,0.0,0.0,0.0,0.0,0.0,0.0,0.0,0.0,0.0,0.0,0.0,0.0,0.0,0.0,0.0,0.0,0.0,0.0,0.0,0.0,0.0,0.0,0.0,0.0,0.0,0.0,0.0,0.0,0.0,0.0,0.0,0.0,0.0,0.0,0.0,0.0,0.0,0.0,0.0,0.0,0.0,0.0,0.0,0.0,0.0,0.0,0.0,0.0,0.0,0.0,0.0,0.0,0.0,0.0,0.0,0.0,0.0,0.0,0.0,0.0,0.0,0.0,0.0,0.0,0.0,0.0,0.0,0.0,0.0,0.0,0.0,0.0,0.0,0.0,0.0,0.0,0.0,0.0,0.0,0.0,0.0,-1.9606,-1.8882,-1.8822,-2.0168,-2.0303,-2.0303,-2.0303,-1.945,-1.9016,-1.9271,0.0,0.0,0.0,0.0,0.0,0.0,0.0,0.0,0.0,0.0,0.0,0.0,0.0,0.0,0.0,0.0,0.0,0.0,0.0,0.0,0.0,0.0,0.0,0.0,0.0,0.0,0.0,0.0,0.0,0.0,0.0,0.0,0.0,0.0,0.0,0.0,0.0,0.0,0.0,0.0,0.0,0.0,0.0,0.0,0.0,0.0,0.0,0.0,0.0,0.0,0.0,0.0,0.0,0.0,0.0,0.0,0.0,0.0,0.0,0.0,0.0,0.0,0.0,0.0,0.0,0.0,0.0,0.0,0.0,0.0,0.0,0.0,0.0,0.0,0.0,0.0,0.0,0.0,0.0,0.0,0.0,0.0,0.0,0.0,0.0,0.0,0.0,0.0,0.0,0.0,0.0,0.0,0.0,0.0,0.0,0.0,0.0,0.0,0.0,0.0,0.0,0.0,-1.9525,-1.8583,-1.8298,-1.9555,-1.969,-1.969,-1.969,-1.8478,-1.7981,-1.8672,0.0,0.0,0.0,0.0,0.0,0.0,0.0,0.0,0.0,0.0,0.0,0.0,0.0,0.0,0.0,0.0,0.0,0.0,0.0,0.0,0.0,0.0,0.0,0.0,0.0,0.0,0.0,0.0,0.0,0.0,0.0,0.0,0.0,0.0,0.0,0.0,0.0,0.0,0.0,0.0,0.0,0.0,0.0,0.0,0.0,0.0,0.0,0.0,0.0,0.0,0.0,0.0,0.0,0.0,0.0,0.0,0.0,0.0,0.0,0.0,-2.6967,0.0,0.0,0.0,0.0,0.0,0.0,0.0,0.0,0.0,0.0,0.0,0.0,0.0,0.0,0.0,0.0,0.0,0.0,0.0,0.0,0.0,0.0,0.0,0.0,0.0,0.0,0.0,0.0,0.0,0.0,0.0,0.0,0.0,0.0,0.0,0.0,0.0,0.0,0.0,0.0,0.0,-1.9585,-1.8986,-1.8807,-1.96,-1.969,-1.969,-1.969,-1.8478,-1.7981,-1.8672,-1.7578,0.0,0.0,0.0,0.0,0.0,0.0,0.0,0.0,0.0,0.0,0.0,0.0,0.0,0.0,0.0,0.0,0.0,0.0,0.0,0.0,0.0,0.0,0.0,0.0,0.0,0.0,0.0,0.0,0.0,0.0,0.0,0.0,0.0,0.0,0.0,0.0,0.0,0.0,0.0,0.0,0.0,0.0,0.0,0.0,0.0,0.0,0.0,0.0,0.0,0.0,0.0,0.0,0.0,0.0,0.0,0.0,0.0,0.0,0.0,0.0,-2.7899,0.0,0.0,0.0,0.0,0.0,0.0,0.0,0.0,0.0,0.0,0.0,0.0,0.0,0.0,0.0,0.0,0.0,0.0,0.0,0.0,0.0,0.0,0.0,0.0,0.0,0.0,0.0,0.0,0.0,0.0,0.0,0.0,0.0,0.0,0.0,0.0,0.0,0.0,0.0,0.0,-1.96,-1.9106,-1.8957,-1.9615,-1.969,-1.969,-1.969,-1.8777,-1.8343,-1.8687,-1.7727,0.0,0.0,0.0,0.0,0.0,0.0,0.0,0.0,0.0,0.0,0.0,0.0,0.0,0.0,0.0,0.0,0.0,0.0,0.0,0.0,0.0,0.0,0.0,0.0,0.0,0.0,0.0,0.0,0.0,0.0,0.0,0.0,0.0,0.0,0.0,0.0,0.0,0.0,0.0,0.0,0.0,0.0,0.0,0.0,0.0,0.0,0.0,0.0,0.0,0.0,0.0,0.0,0.0,-3.3395,-3.3733,-3.4077,-3.3579,-3.3554,-3.3771,-3.2367,-3.0522,-2.8571,0.0,0.0,0.0,0.0,0.0,0.0,0.0,0.0,0.0,0.0,0.0,0.0,0.0,0.0,0.0,0.0,0.0,0.0,0.0,0.0,0.0,0.0,0.0,0.0,0.0,-2.6623,-2.5864,0.0,0.0,0.0,0.0,0.0,0.0,0.0,0.0,0.0,0.0,0.0,0.0,-1.9615,-1.9211,-1.9091,-1.963,-1.969,-1.969,-1.969,-1.9091,-1.8702,-1.8702,-1.8056,-1.7742,0.0,0.0,0.0,0.0,0.0,0.0,0.0,0.0,0.0,0.0,0.0,0.0,0.0,0.0,0.0,0.0,0.0,0.0,0.0,0.0,0.0,0.0,0.0,0.0,0.0,0.0,0.0,0.0,0.0,0.0,0.0,0.0,-2.7624,-2.727,0.0,0.0,0.0,0.0,0.0,0.0,0.0,0.0,0.0,0.0,0.0,0.0,0.0,0.0,-3.3464,-3.4489,-3.4449,-3.3354,-3.5321,-3.5627,-3.444,-3.4999,-3.5497,-3.5907,-3.5677,0.0,-3.116,-2.9746,0.0,0.0,0.0,0.0,0.0,0.0,0.0,0.0,0.0,0.0,0.0,0.0,0.0,0.0,0.0,0.0,0.0,0.0,0.0,0.0,0.0,0.0,-2.6573,-2.6035,-2.5921,-2.5561,0.0,-2.4578,-2.4714,-2.3247,0.0,0.0,0.0,0.0,0.0,0.0,0.0,0.0,-1.9675,-1.9615,-1.9585,-1.9675,-1.969,-1.969,-1.969,-1.9091,-1.8702,-1.8702,-1.8056,-1.7951,-1.8553,-1.8568,0.0,0.0,0.0,0.0,0.0,0.0,0.0,0.0,0.0,0.0,0.0,0.0,0.0,0.0,0.0,0.0,0.0,0.0,0.0,0.0,0.0,0.0,0.0,0.0,0.0,0.0,0.0,0.0,0.0,-2.7994,-2.8732,-2.7707,-2.9145,-2.9989,0.0,0.0,0.0,0.0,0.0,0.0,0.0,0.0,0.0,-3.4633,-3.4924,-3.5249,-3.5574,-3.6441,-3.6789,-3.6569,-3.755,-3.7889,-3.7618,-3.755,-3.7878,-3.8418,-3.7843,-3.6835,-3.5407,-3.309,-3.1601,-3.0764,0.0,0.0,0.0,0.0,-3.106,-3.1586,-3.1788,-3.1549,0.0,0.0,0.0,0.0,0.0,0.0,0.0,0.0,0.0,0.0,0.0,0.0,0.0,-2.7757,-2.7712,-2.7605,-2.6788,-2.5987,-2.5037,0.0,-2.3425,-2.3216,-2.2245,0.0,0.0,0.0,0.0,0.0,-2.0767,-2.0498,-2.0258,-2.0258,-1.9914,-1.969,-1.969,-1.942,-1.9256,-1.9256,-1.8642,-1.8403,-1.8687,-1.8702,-1.8837,0.0,0.0,0.0,0.0,0.0,0.0,0.0,0.0,0.0,0.0,0.0,0.0,0.0,0.0,0.0,0.0,0.0,0.0,0.0,0.0,0.0,0.0,0.0,0.0,0.0,0.0,0.0,0.0,-2.8941,-2.988,-2.8585,-3.0583,-3.1479,0.0,0.0,0.0,0.0,0.0,0.0,-3.4912,-3.5694,-3.6403,-3.7009,-3.7601,-3.7922,-3.7922,-3.8464,-3.8937,-3.9276,-3.9276,-3.9546,-4.0054,-3.9512,-3.9563,-4.007,-3.9316,-3.8911,-3.8614,-3.5994,-3.3808,-3.2115,-3.2009,-3.2117,-3.239,-3.264,-3.3231,-3.3935,-3.4504,-3.422,-3.355,-3.319,0.0,-3.0742,-2.8994,0.0,0.0,0.0,0.0,-2.8687,-2.8687,-2.9533,-3.0306,-2.9972,-2.9657,-2.9265,-2.8809,-2.735,-2.5659,0.0,-2.4133,-2.4059,-2.3071,0.0,0.0,0.0,0.0,-2.1141,-2.1635,-2.1111,-2.0722,-2.0722,-2.0094,-1.969,-1.969,-1.969,-1.969,-1.969,-1.9226,-1.8957,-1.8957,-1.8957,-1.8957,-1.8957,0.0,0.0,0.0,0.0,0.0,0.0,0.0,0.0,0.0,0.0,0.0,0.0,0.0,0.0,0.0,0.0,0.0,0.0,0.0,0.0,0.0,0.0,0.0,0.0,0.0,0.0,0.0,0.0,0.0,-3.0161,-3.2619,0.0,0.0,0.0,0.0,-3.3212,-3.4583,-3.6056,-3.7648,-3.841,-3.9428,-4.0882,-4.0967,-4.0984,-4.0984,-4.1018,-4.0696,-4.002,-4.002,-4.0037,-4.007,-4.0037,-4.0037,-4.0121,-4.0053,-3.9904,-3.9455,-3.6834,-3.5698,-3.5526,-3.4467,-3.5037,-3.6367,-3.5268,-3.5871,-3.6909,-3.4651,-3.3541,-3.3404,-3.5155,-3.4606,-3.2846,-3.0658,-2.9976,0.0,0.0,-2.9976,-3.1021,-3.1021,-3.1089,-3.1341,-3.216,-3.0835,-2.9446,-2.9498,-2.8442,-2.6901,0.0,-2.4073,-2.3625,-2.3565,0.0,-2.2634,-2.2622,-2.2069,-2.1665,-2.1695,-2.1111,-2.0722,-2.0722,-2.0094,-1.969,-1.969,-1.969,-1.969,-1.969,-1.966,-1.963,-1.963,-1.963,-1.963,-1.963,-1.9675,0.0,0.0,0.0,0.0,0.0,0.0,0.0,0.0,0.0,0.0,0.0,0.0,0.0,0.0,0.0,0.0,0.0,0.0,0.0,0.0,0.0,0.0,0.0,0.0,0.0,0.0,0.0,0.0,-3.3492,-3.5626,0.0,-3.4627,-3.3889,-3.4449,-3.6727,-3.7364,-3.9005,-4.2066,-4.2439,-4.3047,-4.4062,-4.3639,-4.2895,-4.1914,-4.1914,-4.1288,-4.007,-4.007,-4.007,-4.007,-4.007,-4.007,-4.007,-4.007,-4.0068,-3.9907,-3.8956,-3.7931,-3.6847,-3.6139,-3.6348,-3.7059,-3.7148,-3.7972,-3.8982,-3.8615,-3.7476,-3.5957,-3.4496,-3.3085,-3.1833,-3.1055,-3.0818,-3.0852,-3.1038,-3.1478,-3.1901,-3.1901,-3.1901,-3.1763,-3.1239,-3.0222,-2.9305,-2.895,-2.821,-2.7415,-2.6662,-2.5974,-2.539,-2.4956,-2.4358,-2.3924,-2.3924,-2.3355,-2.2921,-2.2921,-2.2368,-2.1814,-2.1395,-2.0737,-2.0168,-1.972,-1.969,-1.969,-1.969,-1.969,-1.969,-1.969,-1.969,-1.969,-1.969,-1.969,-1.969,0.0,0.0,0.0,0.0,0.0,0.0,0.0,0.0,0.0,0.0,0.0,0.0,0.0,0.0,0.0,0.0,0.0,0.0,0.0,0.0,0.0,0.0,0.0,0.0,0.0,0.0,-3.6123,-3.6358,-3.8292,-3.8905,-3.7188,-3.6609,-3.7456,-4.0031,-4.0525,-4.2029,-4.5196,-4.5094,-4.5196,-4.5686,-4.4976,-4.3842,-4.2303,-4.2286,-4.1542,-4.007,-4.007,-4.007,-4.007,-4.007,-4.007,-4.007,-4.007,-4.007,-4.007,-4.007,-3.9418,-3.8373,-3.815,-3.829,-3.8719,-3.9442,-4.0327,-4.106,-4.0702,-3.9175,-3.6966,-3.4376,-3.2963,-3.2273,-3.2019,-3.2121,-3.2408,-3.2882,-3.3203,-3.3406,-3.3406,-3.322,-3.2824,-3.194,-3.0725,-2.9715,-2.9548,-2.8495,-2.766,-2.786,-2.7546,-2.6935,-2.6096,-2.5741,-2.541,-2.4986,-2.4388,-2.3939,-2.3939,-2.3206,-2.2544,-2.2069,-2.1246,-2.0528,-2.0079,-2.0034,-1.9929,-1.969,-1.9899,-1.9929,-1.969,-1.969,-1.969,-1.969,-1.969,-1.9603,-1.9442,0.0,0.0,0.0,0.0,0.0,0.0,0.0,0.0,0.0,0.0,0.0,0.0,0.0,0.0,0.0,0.0,0.0,0.0,0.0,0.0,0.0,0.0,0.0,-3.4169,-3.6165,-3.7834,-3.85,-4.0446,-4.0876,-3.8702,-3.981,-4.1304,-4.3037,-4.3909,-4.5097,-4.676,-4.616,-4.5737,-4.5737,-4.4993,-4.3859,-4.2337,-4.2303,-4.1559,-4.0104,-4.0087,-4.007,-4.007,-4.007,-4.007,-4.007,-4.007,-4.007,-4.007,-4.007,-4.007,-4.0136,-4.0438,-4.0922,-4.1466,-4.2063,-4.2766,-4.3047,-4.0441,-3.8164,-3.6246,-3.4976,-3.4523,-3.4387,-3.3694,-3.3964,-3.4523,-3.4523,-3.5064,-3.556,-3.5588,-3.5047,-3.4526,-3.4504,-3.2461,-3.0715,-3.1294,-2.9425,-2.781,-2.8367,-2.8463,-2.8119,-2.6868,-2.7147,-2.7088,-2.5828,-2.5076,0.0,-2.4582,-2.3505,-2.2739,-2.2739,-2.1575,-2.0782,-2.0752,-2.0737,-2.0438,-1.9735,-2.0318,-2.0378,-1.972,-1.969,-1.969,-1.969,-1.969,-1.9442,-1.893,0.0,0.0,0.0,0.0,0.0,0.0,0.0,0.0,0.0,0.0,0.0,0.0,0.0,0.0,0.0,0.0,0.0,0.0,0.0,0.0,0.0,0.0,-3.5533,-3.5779,-3.7918,-3.9831,-4.0535,-4.1534,-4.1957,-4.1385,-4.122,-4.213,-4.4425,-4.4828,-4.5963,-4.8281,-4.7192,-4.6498,-4.6498,-4.5246,-4.4113,-4.3115,-4.2574,-4.1813,-4.0882,-4.0341,-4.007,-4.007,-4.007,-4.007,-4.007,-4.007,-4.007,-4.007,-4.007,-4.007,-4.0104,-4.0195,-4.0579,-4.1095,-4.1724,-4.2003,-4.1668,-3.9053,-3.777,-3.7067,-3.5742,-3.5318,-3.5267,-3.5081,-3.5148,-3.5318,-3.5318,-3.5453,-3.5504,-3.4945,-3.4641,-3.4257,-3.3309,-3.2081,-3.0936,-3.0258,-2.9149,-2.8189,-2.791,-2.8189,-2.8273,-2.747,-2.7474,-2.7297,-2.6456,-2.5749,0.0,-2.4642,-2.3879,-2.334,-2.334,-2.3026,-2.2428,-2.15,-2.1425,-2.0932,-1.975,-1.9869,-1.9884,-1.969,-1.969,-1.969,-1.969,-1.969,-1.9639,0.0,0.0,0.0,0.0,0.0,0.0,0.0,0.0,0.0,0.0,0.0,0.0,0.0,0.0,0.0,0.0,0.0,0.0,0.0,0.0,0.0,0.0,-3.7156,-3.854,-3.8865,-3.9965,-4.123,-4.2494,-4.2701,-4.2917,-4.335,-4.3077,-4.3758,-4.6031,-4.6199,-4.6996,-4.8906,-4.7902,-4.7124,-4.6802,-4.5669,-4.4536,-4.3436,-4.298,-4.2388,-4.1644,-4.0899,-4.0544,-4.0544,-4.0223,-4.007,0.0,-4.007,-4.007,-4.007,-4.007,-4.007,0.0,0.0,0.0,0.0,0.0,-4.0873,-3.9669,-3.8403,-3.7401,-3.662,-3.583,-3.5622,-3.5622,-3.5622,-3.5622,-3.5622,-3.5622,-3.5622,-3.552,-3.5081,-3.4962,-3.4695,-3.364,-3.2842,-3.2036,-3.0989,-2.9831,-2.8836,-2.8414,-2.8222,0.0,-2.766,-2.781,-2.7773,-2.71,-2.6437,-2.5884,-2.5495,-2.4627,-2.4029,-2.4029,-2.3295,-2.2503,-2.1754,-2.144,0.0,0.0,0.0,-1.9989,-1.969,-1.969,0.0,0.0,0.0,-1.9603,-1.9369,0.0,0.0,0.0,-1.9132,-1.8855,0.0,0.0,0.0,0.0,0.0,0.0,0.0,0.0,0.0,0.0,0.0,0.0,0.0,0.0,0.0,0.0,-3.9811,-4.1708,-4.2569,-4.2132,-4.2327,-4.4003,-4.3688,-4.3708,-4.4737,-4.4812,-4.5577,-4.7456,-4.7589,-4.8015,-4.894,0.0,0.0,0.0,0.0,-4.4925,-4.3572,-4.347,-4.3081,-4.2405,-4.1593,-4.1204,-4.117,-4.0426,-4.007,-4.007,-4.007,-4.007,-4.007,-4.007,-4.007,-4.0171,-4.0607,-4.0874,-4.0937,-4.0989,-3.9615,-3.7756,-3.7993,0.0,0.0,-3.5622,-3.5622,-3.5622,-3.5622,-3.5622,-3.5622,-3.5622,-3.5622,-3.5622,-3.5622,-3.5622,-3.547,-3.483,-3.4173,-3.3479,-3.2714,-3.1149,-2.9863,-2.9575,-2.8618,-2.778,-2.773,-2.8088,-2.8238,-2.766,-2.7006,-2.6587,-2.6587,-2.551,-2.4686,-2.4686,0.0,0.0,-2.1829,-2.1276,-2.0572,-1.9735,-2.0258,-2.0318,-1.9705,-1.969,-1.969,-1.969,-1.969,-1.9487,-1.9121,-1.9487,-1.945,-1.9046,-1.9435,-1.8846,0.0,0.0,0.0,0.0,0.0,0.0,0.0,0.0,0.0,0.0,0.0,0.0,0.0,0.0,0.0,-4.0124,-4.1483,-4.2767,-4.4466,-4.4152,-4.3688,-4.3539,-4.3404,-4.3708,-4.4737,-4.4812,-4.5577,-4.7456,-4.7589,-4.8015,-4.894,-4.7733,0.0,-4.6786,-4.55,-4.4654,-4.435,-4.3724,-4.3352,-4.3183,0.0,0.0,-4.117,-4.0426,-4.007,-4.007,-4.007,-4.007,-4.007,-4.007,-4.007,-4.0121,-4.0204,-4.0546,-4.0701,-3.9158,-3.856,-3.8252,-3.6688,-3.5902,-3.5622,-3.5622,-3.5622,-3.5622,-3.5622,-3.5622,0.0,-3.5622,-3.5622,-3.5622,-3.5622,-3.5622,-3.5577,-3.5424,-3.4835,-3.4158,-3.3524,-3.2594,-3.1623,-3.0586,-2.9723,-2.9035,-2.8486,-2.8036,-2.771,-2.7625,-2.7006,-2.6587,-2.6587,-2.5899,-2.542,-2.542,-2.5076,-2.4208,-2.2622,-2.2368,-2.1545,-1.9794,-1.9809,-1.9824,-1.9726,-1.969,-1.969,-1.969,-1.969,-1.9922,-2.0347,-1.9907,-1.9686,-1.9724,-1.9266,-1.8882,0.0,0.0,0.0,0.0,0.0,0.0,0.0,0.0,0.0,0.0,0.0,-3.7748,0.0,0.0,-4.1005,-4.3016,-4.3897,-4.4691,-4.5663,-4.5229,-4.4691,-4.4347,-4.418,-4.4419,-4.5431,-4.5488,-4.626,-4.8161,-4.7868,-4.8015,-4.894,-4.7953,-4.7175,-4.6802,-4.6075,-4.5331,-4.4587,-4.457,-4.4384,-4.3978,-4.2472,-4.1745,-4.1711,-4.0595,-4.007,-4.007,-4.007,-4.007,-4.007,-4.007,-4.007,-4.007,-4.007,-4.0016,-3.9864,-3.9063,-3.8745,-3.8547,-3.7453,-3.6867,-3.6644,-3.6712,-3.6248,-3.569,-3.6079,-3.6197,-3.6129,-3.5723,-3.5893,-3.6113,-3.5723,-3.5622,-3.5622,-3.5622,-3.5334,-3.4857,-3.4186,-3.3288,-3.2239,-3.1258,-2.9968,-2.9012,-2.8644,-2.8023,-2.7625,-2.7625,-2.729,-2.7081,-2.7081,-2.6512,-2.5974,-2.5644,-2.5001,-2.4073,-2.2828,-2.2069,-2.1126,-1.9765,-1.969,-1.9839,-2.0183,-1.9869,-2.0004,-2.0677,-2.0034,-2.0183,-2.1201,-2.0183,-1.9923,-2.0294,-1.9956,-1.9344,0.0,0.0,0.0,0.0,0.0,0.0,0.0,0.0,-3.7399,-3.9634,-4.0735,-4.1565,-4.2425,-4.3654,-4.463,-4.5177,-4.5873,-4.6322,-4.6322,-4.5723,-4.5289,-4.5289,-4.481,-4.493,-4.6103,-4.6173,-4.6952,-4.8861,-4.8289,-4.8225,-4.894,-4.8173,-4.7479,-4.7022,-4.6583,-4.5855,-4.4807,-4.5263,-4.5179,-4.4553,-4.3031,-4.2286,-4.2236,-4.0747,-4.007,-4.007,-4.007,-4.007,-4.007,-4.007,-4.007,-4.007,-4.007,-3.9715,-3.9223,-3.9483,-3.9278,-3.8885,-3.8703,-3.8252,-3.7836,-3.7855,-3.6932,-3.5926,-3.6417,-3.6671,-3.662,-3.5842,-3.618,-3.6603,-3.5825,-3.5622,-3.5622,-3.5622,-3.5622,-3.5453,-3.4844,-3.3922,-3.2919,-3.2096,-3.0413,-2.9122,-2.8839,-2.8233,-2.7724,-2.764,-2.7625,-2.7625,-2.7625,-2.7111,-2.6527,-2.5869,-2.4717,-2.3625,-2.2783,-2.159,-2.0662,-2.0109,-2.0079,-2.0333,-2.0887,-2.0243,-2.0453,-2.168,-2.0498,-2.0543,-2.1874,-2.0662,-2.0363,-2.0902,-2.0902,-2.0019,-3.2998,-3.3287,-3.4244,-3.7533,-3.7499,-3.8531,0.0,0.0,-4.2766,-4.4957,-4.4732,-4.3956,-4.328,-4.3783,-4.4518,-4.517,-4.5873,-4.6322,-4.6322,-4.5723,-4.5289,-4.5289,-4.4203,-4.419,-4.6032,-4.6173,-4.6952,-4.8861,-4.8923,-4.8861,-4.9001,-4.7682,-4.7192,-4.7784,-4.5872,-4.506,-4.5568,-4.4993,-4.4654,-4.4553,-4.3031,-4.2286,-4.2236,-4.0747,-4.007,-4.007,-4.007,-4.007,-4.007,-4.007,-4.007,-4.007,-4.007,-4.002,-3.9868,-3.9323,-3.9333,-3.9569,-3.892,-3.8625,-3.8469,-3.7854,-3.7202,-3.6535,-3.5926,-3.6231,-3.662,-3.5842,-3.618,-3.6603,-3.5825,-3.5622,-3.5622,-3.5622,-3.5622,-3.5605,-3.5504,-3.5352,-3.4872,-3.3611,-3.2237,-3.0903,-2.9713,-2.8921,-2.8278,-2.7715,-2.7625,-2.7625,-2.7625,-2.75,-2.7215,-2.6557,-2.5824,-2.4642,-2.2873,-2.2009,-2.156,-2.147,-2.147,-2.15,-2.159,-2.0946,-2.0946,-2.168,-2.0976,-2.1246,-2.2604,-2.1829,-2.15,-2.159,-2.159,-2.0886,-3.6857,-3.8244,-3.9614,0.0,-4.2422,-4.4164,-4.7597,-4.6796,-4.5729,-4.7053,-4.6718,-4.6085,-4.5717,-4.5873,-4.6142,0.0,-4.6711,-4.677,-4.6367,-4.5858,-4.5178,-4.4308,-4.3954,-4.4174,-4.528,-4.64,-4.7306,-4.8161,-4.8161,-4.8433,-4.9001,-4.802,-4.7597,-4.7902,-4.6583,-4.5821,-4.5703,-4.5399,-4.501,-4.457,-4.347,-4.2946,-4.2912,-4.1847,-4.1136,-4.073,-4.073,-4.0493,-4.007,-4.007,-4.007,-4.007,-4.007,-4.007,-4.0037,-3.9732,-4.0004,-4.0354,-3.9705,-3.9141,-3.8668,-3.85,-3.7376,-3.6129,-3.6265,-3.6823,-3.728,-3.6502,-3.7161,-3.7804,-3.6603,-3.6299,-3.618,-3.5723,-3.5622,-3.5622,-3.5622,-3.5299,-3.4752,-3.3786,-3.2495,-3.1285,-3.0268,-2.9594,-2.9071,-2.8786,-2.8412,-2.8023,-2.7619,-2.7625,-2.7171,-2.6138,-2.5435,-2.4403,-2.2817,-2.2428,-2.2099,-2.1724,-2.1695,-2.1874,-2.2248,-2.1635,-2.1754,-2.2787,-2.1799,-2.1919,-2.3206,-2.2188,-2.1695,-2.171,-2.2084,-2.1393,-3.9292,-4.1407,0.0,-4.3893,-4.616,-4.8325,-4.8731,-4.8212,-4.7908,-4.8907,-4.8004,-4.7111,-4.7422,-4.7031,-4.6815,-4.6995,-4.704,-4.686,-4.6396,-4.5925,-4.5064,-4.3692,-4.387,-4.4154,-4.4272,-4.5709,-4.6798,-4.7276,-4.7292,-4.7799,-4.8923,-4.8308,-4.8003,-4.8206,-4.7293,-4.6532,-4.6007,-4.5805,-4.5331,-4.457,-4.3792,-4.342,-4.3386,-4.2642,-4.1897,-4.1204,-4.1204,-4.0781,-4.007,-4.007,-4.007,-4.007,-4.007,-4.007,-4.007,-4.007,-4.0546,-4.1087,-4.0497,-3.9996,-3.9469,-3.9042,-3.7827,-3.6569,-3.6738,-3.7449,-3.8058,-3.7297,-3.8007,-3.87,-3.7415,-3.6941,-3.6688,-3.6332,-3.6096,-3.5943,-3.5943,-3.5572,-3.4936,-3.4036,-3.2784,-3.1653,-3.0934,-3.0298,-2.9714,-2.937,-2.9056,-2.8622,-2.7934,-2.7679,-2.7066,-2.5749,-2.5181,-2.4358,-2.3041,-2.2936,-2.2727,-2.2248,-2.2218,-2.2443,-2.2906,-2.2308,-2.2488,-2.358,-2.2517,-2.2503,-2.3595,-2.2667,-2.2143,-2.1979,-2.2458,-2.1841,-3.8819,0.0,-4.2861,-4.5077,-4.731,-4.934,-5.0794,-5.0155,-4.9695,-5.1401,-4.8906,-4.6659,-4.7623,-4.6468,-4.5574,-4.6247,-4.6352,-4.6352,-4.6322,-4.5925,-4.5064,-4.3692,-4.3984,-4.3893,0.0,-4.369,-4.4849,-4.6485,-4.6616,-4.7331,-4.8906,-4.8308,-4.824,-4.8951,-4.7564,-4.6786,-4.6752,-4.6058,-4.5331,-4.457,-4.3792,-4.342,-4.3386,-4.2642,-4.1897,-4.1204,-4.1204,-4.0781,-4.007,-4.007,-4.007,-4.007,-4.007,-4.007,-4.007,-4.007,-4.0814,-4.1664,-4.1087,-4.1233,-4.1347,-3.9356,-3.878,-3.8616,-3.7212,-3.7804,-3.8802,-3.8075,-3.8413,-3.8819,-3.8075,-3.733,-3.6958,-3.7669,-3.728,-3.6738,-3.6738,-3.6738,-3.6299,-3.482,-3.3502,-3.2342,-3.1669,-3.0973,-3.0058,-2.8816,-2.916,-2.931,-2.8652,-2.7979,-2.7066,-2.5749,-2.56,-2.5031,-2.3684,-2.3565,-2.3565,-2.3535,-2.3535,-2.355,-2.3565,-2.2981,-2.2951,-2.3595,-2.2981,-2.2966,-2.3595,-2.3565,-2.3236,-2.2694,-2.2709,-2.2302,-4.1322,0.0,-4.6447,-4.8173,-4.9915,-5.1471,-5.2503,-5.2217,-5.1598,-5.1257,-4.9192,-4.7247,-4.667,-4.5665,-4.4998,-4.5107,-4.5898,-4.6164,-4.5132,-4.5727,-4.5233,-4.2592,-4.3337,0.0,0.0,0.0,0.0,-4.6436,-4.7078,-4.7883,-4.8968,-4.8765,-4.8748,-4.9001,-4.8054,-4.7293,-4.6786,-4.6075,-4.5331,-4.4587,-4.4316,-4.4198,-4.4181,-4.3927,-4.3386,-4.2642,-4.2134,-4.1508,-4.0781,-4.029,-4.007,-4.007,-4.007,-4.007,-4.007,-4.007,-4.0594,-4.1133,-4.0528,-4.0189,-3.9834,-3.9149,-3.8622,-3.8176,-3.7686,-3.821,-3.8937,-3.87,-3.9157,-3.9546,-3.8819,-3.8447,-3.8193,-3.7973,-3.7719,-3.7533,-3.7533,-3.7144,-3.6531,-3.5513,-3.4217,-3.3042,-3.2407,-3.1673,-3.0746,-2.9445,-2.8682,-2.8173,-2.7949,-2.7335,-2.6572,-2.5704,-2.5211,-2.4582,-2.3684,-2.3595,-2.3595,-2.3595,-2.3595,-2.3595,-2.3595,-2.34,-2.3385,-2.3595,-2.3385,-2.3385,-2.3595,-2.3595,-2.3281,-2.2724,-2.3101,-2.2743,-4.4147,-4.6633,-4.8714,-5.0439,-5.1809,-5.2858,-5.3382,-5.2794,-5.1878,-5.0788,-4.8399,-4.6271,-4.5484,-4.3802,-4.2779,-4.3627,-4.4079,-4.4327,-4.4278,-4.5011,-4.477,-4.2577,-4.3063,-4.2849,0.0,0.0,0.0,-4.5277,-4.6302,-4.7421,-4.8534,-4.8522,-4.8656,-4.9001,-4.8545,-4.7953,-4.7192,-4.6464,-4.5585,-4.4587,-4.4587,-4.4587,-4.4587,-4.4587,-4.4147,-4.3369,-4.2625,-4.188,-4.1136,-4.0392,-4.007,-4.007,-4.007,-4.007,-4.007,-4.007,-4.0336,-4.0577,-4.0204,-3.9898,-3.9617,-3.9171,-3.8853,-3.8633,-3.8379,-3.8802,-3.9377,-3.9377,-3.9715,-3.9969,-3.9512,-3.9191,-3.8937,-3.8734,-3.8481,-3.8294,-3.8294,-3.7922,-3.7303,-3.6269,-3.5153,-3.4041,-3.314,-3.1946,-3.0806,-2.9744,-2.8637,-2.7844,-2.7655,-2.72,-2.6602,-2.5704,-2.5226,-2.4597,-2.3684,-2.3819,-2.3864,-2.361,-2.3819,-2.3849,-2.361,-2.3595,-2.3595,-2.3595,-2.3595,-2.3595,-2.3595,-2.3595,-2.3385,-2.3011,-2.3415,-2.3053,-4.7073,-4.8663,-4.9796,-5.1944,-5.3027,-5.3551,-5.3467,-5.2046,-5.0551,-4.9927,-4.6569,-4.3764,0.0,0.0,-3.9298,-4.1976,-4.1395,-4.1397,-4.4013,-4.4051,-4.3784,0.0,0.0,0.0,0.0,0.0,0.0,-4.3069,0.0,-4.5978,-4.777,-4.7714,-4.8015,-4.8923,-4.9001,-4.8663,-4.7919,-4.7124,-4.6024,-4.4637,-4.4587,-4.457,-4.4587,-4.457,-4.4108,-4.3436,-4.2675,-4.1965,-4.1271,-4.051,-4.0172,-4.0138,-4.0138,-4.0104,-4.007,-4.007,-4.007,-4.007,-4.007,-4.0449,-4.0659,-3.9438,-3.9512,-3.9952,-3.9259,-3.9529,-4.007,-4.007,-4.007,-4.007,-4.007,-3.9563,-3.9225,-3.9918,-3.9546,-3.9056,-3.9056,-3.9022,-3.8582,-3.7161,-3.6219,-3.5184,-3.3813,-3.1905,-3.0328,-2.9684,-2.9056,-2.8382,-2.7715,-2.7595,-2.7036,-2.5794,-2.56,-2.5031,-2.3759,-2.4253,-2.4328,-2.364,-2.4253,-2.4313,-2.3625,-2.3595,-2.3595,-2.3595,-2.3595,-2.3595,-2.3595,-2.3595,-2.3595,-2.3595,-2.3595,-2.329,-4.9509,-5.1742,-5.3433,-5.4566,-5.4583,-5.4008,-5.2875,-5.1376,-4.9476,-4.6558,-4.3793,-4.1388,0.0,0.0,0.0,-4.1047,-4.2598,0.0,-4.5203,-4.59,0.0,-4.4278,0.0,-4.3548,-4.256,-4.3159,0.0,0.0,-4.424,-4.5853,-4.757,-4.7638,-4.7721,-4.795,-4.8656,-4.8663,-4.7919,-4.6633,-4.5788,-4.5415,-4.4198,-4.3948,-4.457,-4.3948,-4.3889,-4.4231,-4.347,-4.3031,-4.2794,-4.2033,-4.1407,-4.0916,-4.0916,-4.0578,-4.007,-4.007,-4.007,-4.007,-4.007,-4.0204,-4.0252,-3.9901,-3.9935,-4.0037,-3.9868,-3.9935,-4.007,-4.007,-4.007,-4.007,-4.007,-3.9935,-3.9851,-4.0037,-3.9935,-3.98,-3.98,-3.9377,-3.8886,-3.8497,-3.6555,-3.4535,-3.3112,-3.1967,-3.0881,-2.9759,-2.943,-2.8906,-2.7775,-2.7141,-2.6707,-2.6378,-2.5465,-2.4701,-2.4343,-2.4477,-2.4328,-2.364,-2.4253,-2.4313,-2.3625,-2.3595,-2.3595,-2.3595,-2.3595,-2.3595,-2.3595,-2.3595,-2.3595,-2.3595,-2.3595,-2.329,-5.2384,-5.4346,-5.5666,-5.6089,-5.5378,-5.4025,-5.1826,-4.9932,-4.7394,-4.3031,-4.0865,0.0,-3.6823,0.0,0.0,0.0,0.0,0.0,-4.4419,-4.4976,-4.5035,0.0,-4.4242,0.0,-4.2865,-4.3273,-4.3622,0.0,-4.4429,-4.5591,-4.7046,-4.7059,-4.7373,-4.8161,-4.8719,-4.8663,-4.7919,-4.6769,-4.6024,-4.5703,-4.4045,-4.3562,-4.4006,-4.3108,-4.297,-4.3436,0.0,-4.2869,-4.2802,-4.2075,-4.1576,-4.117,-4.0832,-4.0443,-4.007,-4.007,-4.007,-4.007,-4.007,-4.007,-4.007,-4.007,-4.007,-4.002,-3.9698,-3.9817,-4.0003,-3.9698,-3.9834,-4.007,-4.007,-4.007,-4.007,-4.007,-4.007,-4.007,-4.007,-3.9749,-3.9276,-3.8633,-3.6436,-3.4324,-3.3219,-3.2145,-3.118,-3.0148,-2.9983,-2.9624,-2.8592,-2.7619,-2.6916,-2.6617,-2.5929,-2.5255,-2.4627,-2.4851,-2.4642,-2.3655,-2.4253,-2.4313,-2.3625,-2.3595,-2.3595,-2.3595,-2.3595,-2.3595,-2.3595,-2.3595,-2.3595,-2.3595,-2.3595,-2.3128,-5.5209,-5.6613,-5.7222,-5.712,-5.5835,-5.3771,-5.0659,-4.8064,-4.4817,-3.9561,0.0,-3.6576,-3.4372,-3.4109,-3.4961,-3.7189,0.0,-3.9785,-4.3046,-4.2995,-4.3337,-4.5065,-4.4212,-4.3464,-4.3464,-4.3389,-4.363,-4.451,-4.4586,-4.518,-4.6356,-4.627,-4.7088,-4.894,-4.9001,-4.8697,-4.8071,-4.7072,-4.633,-4.5838,-4.3883,-4.3047,-4.3246,-4.2269,-4.1869,-4.2029,0.0,0.0,-4.231,-4.172,-4.142,-4.1288,-4.0629,-4.0257,-4.007,-4.007,-4.007,-4.007,-4.007,-4.007,-4.007,-4.007,-4.0003,-3.9834,-3.9292,-3.9512,-3.9817,-3.9292,-3.9597,-4.007,-4.007,-4.007,-4.007,-4.007,-4.007,-4.007,-4.007,-4.007,-3.9681,-3.8311,-3.6488,-3.4844,-3.3922,-3.264,-3.1504,-3.0627,-3.0507,-3.0253,-2.9549,-2.8427,-2.7485,-2.6916,-2.6692,-2.6093,-2.4821,-2.5285,-2.5031,-2.3684,-2.4253,-2.4313,-2.3625,-2.3595,-2.3595,-2.3595,-2.3595,-2.3595,-2.3595,-2.3595,-2.3595,-2.3595,-2.3595,-2.2935,-5.6867,-5.849,-5.9387,-5.8778,-5.6596,-5.3636,-5.0016,-4.6334,0.0,0.0,-3.4737,-3.3335,-3.1608,-3.2059,-3.3794,-3.7282,0.0,0.0,0.0,0.0,-4.4417,0.0,0.0,0.0,0.0,0.0,0.0,0.0,0.0,-4.4357,-4.6153,-4.618,-4.7088,-4.894,-4.9001,-4.8951,-4.8815,-4.677,-4.6035,-4.6583,-4.2928,-4.1933,-4.3246,-4.1658,-4.1346,-4.1981,-4.1997,0.0,-4.3092,-4.2964,-4.2629,-4.21,-4.1965,-4.1153,-4.007,-4.007,-4.007,-4.007,-4.007,-4.007,-4.007,-4.007,-3.9681,-3.9276,-3.9749,-3.9546,-3.9276,-3.9749,-3.9986,-4.007,-4.007,-4.007,-4.007,-4.007,-4.007,-4.007,-4.007,-4.007,-3.9817,-3.8971,-3.8036,-3.682,-3.486,-3.3834,-3.2655,-3.0784,-3.0507,-3.0088,-2.8921,-2.8562,-2.8382,-2.8263,-2.726,-2.6273,-2.5495,-2.554,-2.5031,-2.3684,-2.4253,-2.4313,-2.3625,-2.3595,-2.3595,-2.3595,-2.3595,-2.3595,-2.3595,-2.3595,-2.3595,-2.3595,-2.3595,-2.2935,-5.7881,-5.9573,-6.0452,-5.9302,-5.6494,-5.2739,-4.7817,0.0,0.0,0.0,-3.2402,-3.1533,-2.9798,-3.0864,0.0,0.0,0.0,0.0,0.0,0.0,0.0,0.0,0.0,0.0,0.0,0.0,0.0,0.0,0.0,-4.3912,-4.5416,-4.64,-4.7589,-4.894,-4.9001,-4.8613,-4.7738,-4.6609,-4.5612,-4.4854,-4.2398,-4.1507,-4.1933,-4.0638,-4.0255,-4.0638,-4.1147,0.0,-4.1965,-4.25,-4.2568,-4.2194,-4.1856,-4.1288,-4.0612,-4.0223,-4.007,-4.007,-4.007,-4.007,-4.007,-4.007,-3.9834,-3.9546,-3.9529,-3.9529,-3.9546,-3.9529,-3.9783,-4.007,-4.007,-4.007,-4.007,-4.007,-4.007,-4.007,-4.007,-4.007,-3.9749,-3.865,-3.7853,-3.6662,-3.4491,-3.3581,-3.2628,-3.1234,-3.1046,-3.0821,-3.0208,-2.9535,-2.8846,-2.8143,-2.7485,-2.6692,-2.5689,-2.5615,-2.5031,-2.3684,-2.3909,-2.3939,-2.361,-2.3595,-2.3595,-2.3595,-2.3595,-2.3595,-2.3595,-2.3595,-2.3595,-2.3595,-2.3595,-2.2935,-5.8169,-5.9894,-6.0689,-5.915,-5.5869,-5.1539,-4.5872,-4.1235,0.0,0.0,-3.0808,-3.037,-2.8816,-2.9919,-3.1333,0.0,-3.2722,0.0,0.0,0.0,0.0,0.0,0.0,0.0,0.0,0.0,0.0,0.0,0.0,0.0,-4.4737,-4.6539,-4.795,-4.8656,-4.8568,-4.7851,-4.6583,-4.5865,-4.4674,-4.3071,-4.1835,-4.104,-4.069,-3.9793,-3.9424,-3.9409,-4.0115,0.0,0.0,-4.1781,-4.2058,-4.1915,-4.1597,-4.1238,-4.0882,-4.029,-4.007,-4.007,-4.007,-4.007,-4.007,-4.007,-3.9969,-3.9732,-3.9174,-3.9276,-3.9529,-3.9106,-3.9411,-3.9884,-4.0037,-4.007,-4.007,-4.007,-4.007,-4.007,-4.007,-4.007,-3.9732,-3.8599,-3.7769,-3.6569,-3.4462,-3.3514,-3.2702,-3.1655,-3.1482,-3.1422,-3.133,-3.0298,-2.9116,-2.7919,-2.7715,-2.7096,-2.5914,-2.5689,-2.5091,-2.3894,-2.3684,-2.3595,-2.3595,-2.3595,-2.3595,-2.3595,-2.3595,-2.3595,-2.3595,-2.3595,-2.3595,-2.3595,-2.3595,-2.298,-5.7391,-5.9082,-5.986,-5.8355,-5.4685,-5.0219,-4.5618,0.0,0.0,-3.1964,-3.041,-2.9574,-2.9048,-2.8827,-2.9489,-3.1901,0.0,-3.4366,0.0,0.0,0.0,0.0,0.0,0.0,0.0,0.0,0.0,0.0,0.0,0.0,-4.4737,-4.6539,-4.7655,-4.7737,-4.7158,-4.6713,-4.6583,-4.3667,-4.2496,-4.3071,-4.0692,-3.998,-4.069,-3.9793,-3.9424,-3.9409,-3.9481,0.0,0.0,-4.166,-4.1646,-4.1181,-4.1933,-4.1373,-4.0172,-4.0104,-4.007,-4.007,-4.007,-4.007,-4.007,-4.007,-3.9631,-3.9089,-3.9005,-3.8582,-3.8227,-3.8819,-3.9039,-3.9242,-3.9918,-4.007,-4.007,-4.007,-4.007,-4.007,-4.007,-4.007,-4.0037,-3.9901,-3.9277,-3.8121,-3.5953,-3.4974,-3.3817,-3.1772,-3.1482,-3.13,-3.0672,-2.9998,-2.931,-2.8592,-2.7949,-2.7275,-2.6557,-2.5959,-2.53,-2.4522,-2.3939,-2.3595,-2.3595,-2.3595,-2.3595,-2.3595,-2.3595,-2.3595,-2.3595,-2.3595,-2.3595,-2.3595,-2.3595,-2.3231,-5.5057,-5.7645,-5.9082,-5.7611,-5.3534,-4.8758,-4.4565,0.0,-3.4076,-3.1497,-3.0053,-2.9054,-2.8454,-2.8212,-2.8436,-2.9423,0.0,0.0,0.0,0.0,0.0,0.0,0.0,0.0,0.0,0.0,0.0,0.0,0.0,0.0,-4.3849,-4.5211,-4.5997,-4.6115,-4.5907,-4.5072,-4.3735,-4.2871,-4.193,-4.0847,-4.0266,-4.0001,-3.9935,-3.9538,-3.9424,-3.9424,-3.9424,0.0,0.0,-4.108,-4.1151,-4.1026,-4.1378,-4.095,-4.0124,-4.0121,-4.007,-4.007,-4.007,-4.007,-4.007,-4.007,-3.9884,-3.9648,-3.9648,-3.914,-3.8717,-3.9445,-3.9326,-3.9157,-3.9884,-4.007,-4.007,-4.007,-4.007,-4.007,-4.007,-3.9732,-3.9292,-3.8853,-3.8176,-3.6982,-3.4856,-3.4242,-3.3445,-3.1784,-3.1482,-3.1377,-3.1165,-3.0552,-2.9894,-2.9265,-2.8218,-2.7355,-2.6647,-2.6348,-2.5749,-2.4642,-2.4373,-2.4029,-2.3625,-2.3595,-2.3595,-2.3595,-2.3595,-2.3595,-2.3595,-2.3595,-2.3595,-2.3595,-2.3595,-2.329,-5.1606,-5.4617,-5.6461,-5.5412,-5.1555,-4.7005,0.0,0.0,-3.286,-3.1017,-2.9654,-2.8583,-2.7851,-2.7707,-2.7731,-2.7793,0.0,-2.8749,-3.1757,0.0,0.0,0.0,0.0,0.0,0.0,0.0,0.0,0.0,0.0,0.0,0.0,-4.3989,-4.4564,-4.5049,-4.4897,-4.3952,-4.2093,-4.2104,-4.1188,-3.9424,-3.9888,-3.9873,-3.9424,-3.9424,-3.9424,-3.9424,0.0,0.0,0.0,-4.069,-4.0805,-4.094,-4.0761,-4.041,-4.004,-3.9826,-3.9901,-4.007,-4.007,-4.007,-4.007,-4.007,-4.007,-4.007,-4.007,-3.9411,-3.8819,-3.9546,-3.9546,-3.9428,-3.9952,-4.007,-4.007,-4.007,-3.9918,-3.9749,-3.9749,-3.9191,-3.8582,-3.8278,-3.7449,-3.6245,-3.4565,-3.3906,-3.313,-3.1682,-3.1482,-3.1482,-3.1482,-3.0926,-3.0268,-2.9639,-2.8562,-2.7604,-2.6931,-2.6692,-2.6198,-2.527,-2.4806,-2.4418,-2.3924,-2.3714,-2.3595,-2.3595,-2.3595,-2.3595,-2.3595,-2.3595,-2.3595,-2.3595,-2.3421,-2.2905,-4.6972,-4.961,-5.1302,-5.1285,-4.8477,-4.4851,0.0,-3.698,-3.2791,-3.0645,-2.9247,-2.8192,-2.7439,-2.7303,-2.742,-2.7759,-2.9093,0.0,-3.2109,0.0,0.0,0.0,0.0,0.0,0.0,0.0,0.0,0.0,0.0,0.0,0.0,-4.3329,-4.3771,-4.4796,-4.4188,-4.349,-4.2807,-4.1198,-4.0068,-3.9424,-3.9424,-3.9424,-3.9424,-3.9424,-3.9424,0.0,0.0,0.0,0.0,-4.069,-4.0755,-4.0847,-4.0174,-3.993,-3.9841,-3.9171,-3.9437,-4.007,-4.007,-4.007,-4.007,-4.007,-4.007,-4.007,-4.007,-3.9073,-3.8075,-3.8802,-3.9512,-4.007,-4.007,-4.007,-4.007,-4.007,-3.9529,-3.9005,-3.9005,-3.843,-3.8125,-3.8853,-3.7787,-3.6563,-3.5926,-3.4563,-3.313,-3.1682,-3.1482,-3.1482,-3.1482,-3.0926,-3.0268,-2.9639,-2.8981,-2.8308,-2.767,-2.6961,-2.6587,-2.6572,-2.5345,-2.4582,-2.4567,-2.3969,-2.3595,-2.3595,-2.3595,-2.3595,-2.3595,-2.3595,-2.3595,-2.361,-2.2965,-2.2035,-4.0901,-4.3388,-4.513,-4.513,-4.2714,-3.9891,-3.8121,-3.4516,-3.1219,-3.003,-2.9062,-2.8246,-2.7794,-2.7487,-2.7656,-2.8767,-2.9598,0.0,0.0,0.0,0.0,0.0,0.0,0.0,0.0,0.0,0.0,0.0,0.0,0.0,0.0,-4.2671,-4.2812,-4.3182,-4.2531,-4.1849,-4.1198,-4.0184,-3.9634,-3.9424,-3.9424,-3.9424,-3.9424,-3.9424,0.0,0.0,0.0,0.0,0.0,-3.904,-3.879,-3.936,-3.8592,-3.8375,-3.8497,-3.8772,-3.9437,-4.007,-4.007,-4.007,-4.007,-4.007,-4.007,-4.007,-4.007,-3.9411,-3.87,-3.892,-3.9512,-4.007,-4.007,-4.007,-4.007,-4.007,-3.9901,-3.9597,-3.9106,-3.8819,-3.8413,-3.7635,-3.711,-3.6413,-3.5191,-3.4206,-3.3287,-3.2342,-3.1824,-3.1482,-3.1482,-3.1345,-3.0941,-3.0283,-2.9654,-2.8816,-2.7715,-2.743,-2.7066,-2.6617,-2.5779,-2.5091,-2.4612,-2.3969,-2.3595,-2.3595,-2.3595,-2.3595,-2.3595,-2.3595,-2.3595,-2.361,-2.2965,-2.2466,0.0,-3.8255,-3.9818,-4.0114,-3.8629,0.0,-3.5348,-3.276,-3.0445,-2.9591,-2.8775,-2.8057,-2.753,-2.7224,-2.7463,-2.8648,-2.9326,0.0,0.0,0.0,0.0,0.0,0.0,0.0,0.0,0.0,0.0,0.0,0.0,0.0,0.0,-4.2132,-4.1998,-4.1998,-4.1594,-4.107,-4.0412,-3.9993,-3.9664,-3.9424,-3.9424,-3.9424,-3.9409,-3.9155,0.0,0.0,0.0,0.0,0.0,-3.8236,-3.7901,-3.8598,-3.7548,-3.739,-3.7805,-3.8286,-3.8978,-3.9662,-4.0003,-4.007,-4.007,-4.007,-4.007,-4.007,-4.007,-3.9766,-3.9343,-3.9073,-3.9512,-4.007,-4.007,-4.007,-4.007,-4.007,-3.9648,-3.914,-3.8684,-3.8125,-3.7533,-3.6907,-3.6535,-3.5994,-3.4868,-3.4062,-3.3272,-3.2297,-3.1794,-3.1482,-3.1482,-3.1482,-3.127,-3.0567,-2.9953,-2.9146,-2.8053,-2.7775,-2.7395,-2.6976,-2.6348,-2.5794,-2.539,-2.4477,-2.3984,-2.3984,-2.3729,-2.3595,-2.3595,-2.3595,-2.3363,-2.2891,-2.2785,-2.2466,0.0,-3.3755,-3.5087,0.0,0.0,0.0,-3.284,-3.1379,0.0,-2.9058,-2.8298,-2.7613,-2.6925,-2.6809,-2.7063,-2.8012,-2.8825,0.0,0.0,0.0,0.0,0.0,0.0,0.0,0.0,0.0,0.0,0.0,0.0,0.0,0.0,-4.1639,-4.1294,-4.125,-4.119,-4.092,-4.0412,-4.0352,-4.0023,-3.9424,-3.9424,-3.9424,-3.9394,-3.8751,0.0,0.0,0.0,0.0,0.0,-3.7896,-3.7825,-3.8453,-3.699,-3.6899,-3.7608,-3.771,-3.8246,-3.9032,-3.9782,-4.007,-4.007,-4.007,-4.007,-4.007,-4.007,-4.007,-3.9935,-3.9259,-3.9546,-4.007,-4.007,-4.0037,-4.0003,-4.0003,-3.8937,-3.7889,-3.7838,-3.6755,-3.596,-3.6586,-3.6163,-3.5462,-3.4856,-3.4162,-3.3208,-3.1856,-3.1599,-3.1526,-3.1482,-3.1482,-3.1228,-3.0642,-3.0028,-2.9385,-2.8727,-2.7993,-2.7625,-2.7625,-2.6961,-2.6587,-2.6587,-2.533,-2.4582,-2.4582,-2.3999,-2.367,-2.367,-2.3626,-2.2979,-2.1791,-2.2346,-2.1988,-2.5879,0.0,-2.8443,-2.8869,-2.8848,-2.8608,0.0,-2.7812,-2.7326,-2.6507,-2.6684,-2.7186,-2.7866,-2.7743,-2.8455,-3.1256,-3.2088,0.0,0.0,0.0,0.0,0.0,0.0,0.0,0.0,0.0,0.0,0.0,0.0,0.0,0.0,-4.0711,-4.0397,-3.9903,-3.9364,-3.9514,-4.0382,-3.9903,-3.9574,-3.9424,-3.9424,-3.9424,-3.9409,-3.9245,0.0,0.0,0.0,0.0,-3.8575,-3.6693,-3.6655,-3.7541,-3.6229,-3.6489,-3.7545,-3.7032,-3.7758,-3.8908,-3.9139,-3.9594,-4.007,-4.007,-4.007,-4.007,-4.007,-4.007,-4.0037,-3.9868,-3.9952,-4.007,-4.007,-3.9665,-3.9242,-3.9242,-3.8565,-3.7753,-3.7161,-3.7212,-3.7077,-3.6079,-3.6231,-3.6303,-3.5513,-3.4823,-3.4064,-3.3162,-3.2579,-3.2093,-3.1541,-3.1482,-3.1422,-3.13,-3.0687,-3.0028,-2.94,-2.8263,-2.7625,-2.7625,-2.6961,-2.6587,-2.6587,-2.533,-2.4582,-2.4582,-2.4477,-2.4343,-2.4343,-2.3891,-2.3262,-2.2452,-2.21,-2.1758,-2.3422,-2.4966,-2.6419,-2.661,-2.6904,-2.7175,-2.715,-2.6904,-2.6536,-2.594,0.0,0.0,0.0,-2.7709,-2.8861,0.0,-3.2774,0.0,0.0,0.0,0.0,0.0,0.0,0.0,0.0,0.0,0.0,0.0,0.0,0.0,0.0,-4.0113,-3.9634,-3.896,-3.8586,-3.8736,-3.9469,-3.8826,-3.8646,-3.8945,-3.8646,-3.8646,-3.8931,-3.8631,-3.8497,0.0,0.0,0.0,-3.7404,-3.6058,-3.5908,-3.6462,-3.5774,-3.5944,-3.6606,-3.6631,-3.7128,-3.7873,-3.8302,-3.8924,-3.961,-3.9952,-4.007,-4.002,-3.9681,-3.9817,-4.007,-4.007,-4.007,-4.0003,-3.9665,-3.9292,-3.8903,-3.8582,-3.7922,-3.728,-3.6874,-3.7094,-3.7043,-3.5842,-3.6248,-3.6451,-3.5349,-3.4845,-3.426,-3.3255,-3.274,-3.2273,-3.1556,-3.1482,-3.1482,-3.1482,-3.0911,-3.0253,-2.9639,-2.8637,-2.7904,-2.764,-2.7245,-2.7036,-2.7036,-2.6063,-2.5241,-2.4597,-2.4582,-2.4282,-2.3746,-2.3671,-2.3163,-2.2253,-2.2193,-2.1993,-2.2487,-2.4562,-2.6574,-2.639,-2.7038,-2.7657,-2.7476,0.0,0.0,0.0,0.0,0.0,0.0,-2.7719,0.0,0.0,0.0,0.0,0.0,0.0,0.0,0.0,0.0,0.0,0.0,0.0,0.0,0.0,0.0,0.0,0.0,-3.9574,-3.8945,-3.8257,-3.8153,-3.8108,-3.8108,-3.7644,-3.7689,-3.8227,-3.7778,-3.7853,-3.8362,-3.7808,-3.7554,0.0,0.0,0.0,-3.6432,-3.5774,-3.5564,-3.5639,-3.5549,-3.5564,-3.5704,-3.6258,-3.6492,-3.6722,-3.7674,-3.8358,-3.9016,-3.9833,-4.007,-3.9969,-3.9343,-3.9512,-3.9918,-3.9918,-3.9918,-3.9766,-3.9157,-3.8819,-3.8497,-3.7872,-3.7161,-3.6603,-3.6603,-3.6603,-3.6417,-3.574,-3.6146,-3.6182,-3.4851,-3.4621,-3.4133,-3.2788,-3.2528,-3.2273,-3.1556,-3.1482,-3.1482,-3.1482,-3.1001,-3.0402,-2.9774,-2.922,-2.8562,-2.7784,-2.7685,-2.7565,-2.7475,-2.6886,-2.6016,-2.4758,-2.4728,-2.4112,-2.2858,-2.3346,-2.2898,-2.1568,-2.2161,-2.2123,-2.1924,-2.4162,-2.6007,-2.4948,-2.5738,-2.6637,-2.6012,-2.5764,0.0,0.0,0.0,0.0,0.0,-2.9726,0.0,0.0,0.0,0.0,0.0,0.0,0.0,0.0,0.0,0.0,0.0,0.0,0.0,0.0,0.0,0.0,0.0,0.0,-3.8242,-3.7584,-3.7045,-3.6776,-3.6776,-3.7195,-3.7464,-3.7569,-3.8018,-3.8287,-3.8392,-3.8287,-3.8242,0.0,0.0,-3.6492,-3.6432,-3.5774,-3.5833,-3.6282,-3.5729,-3.5848,-3.6267,-3.5814,-3.6054,-3.6783,-3.823,-3.8799,-3.9016,-3.9833,-4.007,-4.0054,-3.9952,-3.9546,-3.9157,-3.9157,-3.9157,-3.914,-3.9022,-3.8058,-3.7094,-3.6975,-3.6366,-3.5791,-3.5791,-3.5791,-3.5757,-3.5639,-3.5723,-3.5542,-3.4752,-3.4621,-3.4133,-3.2788,-3.2528,-3.2273,-3.1556,-3.1482,-3.1482,-3.1482,-3.1377,-3.1106,-3.0417,-3.0268,-2.9699,-2.8517,-2.7889,-2.732,-2.6767,-2.6632,-2.6224,-2.5394,-2.5344,-2.4726,-2.3464,-2.3565,-2.266,-2.093,-2.1028,-2.1009,-2.1391,-2.2991,-2.4539,-2.4248,-2.5832,-2.7231,-2.6619,-2.6099,0.0,0.0,0.0,0.0,0.0,0.0,0.0,0.0,0.0,0.0,0.0,0.0,0.0,0.0,0.0,0.0,0.0,0.0,0.0,0.0,0.0,0.0,0.0,0.0,-3.7569,-3.6926,-3.6626,-3.6312,-3.5953,-3.6237,-3.6567,-3.6911,-3.6851,-3.7015,-3.736,-3.736,-3.7165,-3.6821,0.0,-3.6282,-3.5938,-3.5624,-3.5684,-3.5923,-3.5624,-3.5684,-3.5923,-3.5609,-3.5733,-3.618,-3.7247,-3.7642,-3.7873,-3.9086,-3.9437,-3.9475,-3.9497,-3.9529,-3.9411,-3.8633,-3.8413,-3.8311,-3.7905,-3.7297,-3.6671,-3.6248,-3.5876,-3.5622,-3.5622,-3.5943,-3.6129,-3.569,-3.596,-3.5896,-3.4802,-3.4621,-3.4133,-3.2788,-3.2528,-3.2273,-3.1556,-3.1482,-3.1482,-3.1482,-3.121,-3.0717,-3.0058,-2.9684,-2.922,-2.8637,-2.7949,-2.749,-2.7126,-2.7126,-2.6618,-2.5517,-2.5517,-2.4521,-2.2531,-2.2889,-2.2473,-2.1293,-2.1293,-2.1435,-2.087,-2.1995,-2.3149,-2.3453,-2.5393,-2.7306,-2.7652,-2.6962,0.0,0.0,0.0,0.0,0.0,0.0,0.0,0.0,0.0,0.0,0.0,0.0,0.0,0.0,0.0,0.0,0.0,0.0,0.0,0.0,0.0,0.0,0.0,0.0,-3.6911,-3.6282,-3.6252,-3.6013,-3.5504,-3.5504,-3.5759,-3.6252,-3.5893,-3.5998,-3.6492,-3.6492,-3.6207,-3.5744,-3.6103,-3.5968,-3.5504,-3.5504,-3.5504,-3.5504,-3.5504,-3.5504,-3.5504,-3.5504,-3.5504,-3.5619,-3.6337,-3.6615,-3.6843,-3.8398,-3.8908,-3.8917,-3.9177,-3.9394,-3.9343,-3.8227,-3.7652,-3.728,-3.6891,-3.6637,-3.6349,-3.5757,-3.5622,-3.5622,-3.5622,-3.5971,-3.6114,-3.548,-3.574,-3.564,-3.4333,-3.4134,-3.3691,-3.2499,-3.2291,-3.2093,-3.1541,-3.1482,-3.1482,-3.1482,-3.1061,-3.0492,-2.9849,-2.9205,-2.8771,-2.8607,-2.7949,-2.7625,-2.7625,-2.7408,-2.6733,-2.5488,-2.5317,-2.4019,-2.1563,-2.211,-2.1974,-2.128,-2.128,-2.1637,-2.0565,-2.1708,-2.258,-2.2024,-2.321,-2.5362,-2.8287,-2.8017,0.0,-3.0307,0.0,0.0,0.0,0.0,0.0,0.0,0.0,0.0,0.0,0.0,0.0,0.0,0.0,0.0,0.0,0.0,0.0,0.0,0.0,0.0,0.0,0.0,0.0,-3.5594,-3.5579,-3.5549,-3.5504,-3.5504,-3.5534,-3.5579,-3.6148,-3.6432,-3.6492,-3.6492,-3.6462,-3.6387,-3.5818,-3.5549,-3.5504,-3.5504,-3.5504,-3.5504,-3.5504,-3.5504,-3.5504,-3.5504,-3.5504,-3.5619,-3.6337,-3.6615,-3.6843,-3.8398,-3.8908,-3.9016,-3.9783,-3.9089,-3.8041,-3.7939,-3.6891,-3.5943,-3.6603,-3.6248,-3.569,-3.5639,-3.5622,-3.5622,-3.5622,-3.5148,-3.4738,-3.4688,-3.4235,-3.3594,-3.2857,-3.2726,-3.2484,-3.1697,-3.1569,-3.1526,-3.1482,-3.1482,-3.1482,-3.1482,-3.1437,-3.118,-3.0492,-2.9864,-2.925,-2.8637,-2.7949,-2.7625,-2.7625,-2.693,-2.6201,-2.5439,-2.4727,-2.3433,-2.1529,-2.1584,-2.1015,-1.994,-1.994,-2.0534,-2.0004,-2.1051,-2.2099,-2.2263,-2.3112,0.0,0.0,-2.7806,-2.8832,-3.1402,-3.2206,0.0,0.0,0.0,0.0,0.0,0.0,0.0,0.0,0.0,0.0,0.0,0.0,0.0,0.0,0.0,0.0,0.0,0.0,0.0,0.0,0.0,0.0,-3.5519,-3.5504,-3.5504,-3.5504,-3.5504,-3.5504,-3.5504,-3.5759,-3.5878,-3.5878,-3.5878,-3.5878,-3.5863,-3.5609,-3.5504,-3.5504,-3.5504,-3.5504,-3.5504,-3.5504,-3.5504,-3.5504,-3.5504,-3.5504,-3.5569,-3.5846,-3.5894,-3.6117,-3.7128,-3.7467,-3.77,-3.8978,-3.8633,-3.787,-3.7879,-3.7144,-3.6299,-3.6096,-3.5842,-3.5622,-3.5622,-3.5622,-3.5622,-3.5622,-3.5407,-3.5098,-3.4688,-3.4382,-3.3887,-3.2788,-3.2586,-3.2327,-3.1582,-3.1482,-3.1482,-3.1482,-3.1482,-3.1482,-3.1482,-3.115,-3.0627,-2.9983,-2.934,-2.8861,-2.8622,-2.7949,-2.7625,-2.7625,-2.6878,-2.6176,-2.5398,-2.4681,-2.3384,-2.1493,-2.1493,-2.112,-2.0396,-2.0003,-2.0409,-1.969,-2.0363,-2.1216,-2.1889,0.0,0.0,-2.6677,-2.8098,-2.9774,-3.2826,-3.3125,0.0,0.0,0.0,0.0,0.0,0.0,0.0,0.0,0.0,0.0,0.0,0.0,0.0,0.0,0.0,0.0,0.0,0.0,0.0,0.0,0.0,0.0,0.0,-3.5504,-3.5504,-3.5504,-3.5504,-3.5504,-3.5504,-3.5504,-3.5504,-3.5504,-3.5504,-3.5504,-3.5504,-3.5504,-3.5504,-3.5504,-3.5504,-3.5504,-3.5504,-3.5504,-3.5504,-3.5504,-3.5504,-3.5504,-3.5504,-3.5504,-3.5504,-3.5619,-3.6384,-3.6615,-3.6796,-3.7898,-3.7855,-3.7411,-3.7251,-3.6835,-3.6282,-3.5757,-3.5622,-3.5622,-3.5622,-3.5622,-3.5622,-3.5622,-3.527,-3.4847,-3.4382,-3.3921,-3.3323,-3.2422,-3.2272,-3.2064,-3.1582,-3.1482,-3.1482,-3.1482,-3.1482,-3.1482,-3.1482,-3.1106,-3.0567,-2.9924,-2.928,-2.8831,-2.8607,-2.7728,-2.7255,-2.7255,-2.6322,-2.5563,-2.5063,-2.4337,-2.3187,-2.1744,-2.1568,-2.1275,-2.0719,-2.0092,-2.036,-1.969,-1.969,-1.9869,0.0,0.0,0.0,-2.7859,-2.9116,-3.0717,-3.4681,0.0,-3.3709,-3.4352,0.0,0.0,0.0,0.0,0.0,0.0,0.0,0.0,0.0,0.0,0.0,0.0,0.0,0.0,0.0,0.0,0.0,0.0,0.0,0.0,0.0,-3.5489,-3.5489,-3.5489,-3.5489,-3.5489,-3.5489,-3.5504,-3.5504,-3.5504,-3.5504,-3.5504,-3.5504,-3.5504,-3.5504,-3.5504,-3.5504,-3.5504,-3.5504,-3.5504,-3.5504,-3.5504,-3.5504,-3.5504,-3.5504,-3.5504,-3.5504,-3.5619,-3.6322,-3.6615,-3.6597,-3.6756,-3.6729,-3.6567,-3.5893,-3.5635,-3.5577,-3.5622,-3.5622,-3.5622,-3.5622,-3.556,-3.556,-3.556,-3.4544,-3.3566,-3.3566,-3.2446,-3.1524,-3.1482,-3.1482,-3.1482,-3.1482,-3.1482,-3.1482,-3.1482,-3.1482,-3.1482,-3.1482,-3.1482,-3.1255,-3.0567,-2.9939,-2.9295,-2.8652,-2.7258,-2.651,-2.651,-2.5063,-2.4292,-2.4292,-2.3543,-2.2862,-2.2309,-2.1757,-2.1204,-2.0706,-2.0075,-2.0112,-1.969,-2.0378,0.0,-2.2473,0.0,0.0,0.0,-2.9537,0.0,0.0,0.0,-3.3952,0.0,0.0,0.0,0.0,0.0,0.0,0.0,0.0,0.0,0.0,0.0,0.0,0.0,0.0,0.0,0.0,0.0,0.0,0.0,0.0,0.0,0.0,-3.4083,-3.4083,-3.4083,-3.4547,-3.4786,-3.4786,-3.5265,-3.5504,-3.5504,-3.5504,-3.5504,-3.5504,-3.5504,-3.5504,-3.5504,-3.5504,-3.5504,-3.5504,-3.5504,-3.5504,-3.5504,-3.5504,-3.5504,-3.5504,-3.5504,-3.5504,-3.5569,-3.5797,-3.5846,-3.5821,-3.5913,-3.5907,-3.5839,-3.5705,-3.5646,-3.5623,-3.5605,-3.5622,-3.5622,-3.5622,-3.4868,-3.4176,-3.4176,-3.3141,-3.2171,-3.217,-3.1874,-3.157,-3.1507,-3.1482,-3.1482,-3.1482,-3.1482,-3.1482,-3.1482,-3.1482,-3.1482,-3.1482,-3.1482,-3.1203,-3.0426,-2.9389,-2.8409,-2.7641,-2.5907,-2.5398,-2.6457,-2.5063,-2.4292,-2.4292,-2.3543,-2.2862,-2.2309,-2.2146,-2.1581,-2.0718,-2.0542,-2.0288,-1.969,-2.0662,0.0,-2.3281,-2.5077,-2.7131,-2.9289,0.0,0.0,0.0,0.0,0.0,0.0,0.0,0.0,0.0,0.0,0.0,0.0,0.0,0.0,0.0,0.0,0.0,0.0,0.0,0.0,0.0,0.0,0.0,0.0,0.0,0.0,0.0,-3.3499,-3.3499,-3.3499,-3.3888,-3.4083,-3.4098,-3.4771,-3.51,-3.51,-3.5385,-3.5504,-3.5504,-3.5504,-3.5504,-3.5504,-3.5504,-3.5504,-3.5504,-3.5504,-3.5504,-3.5504,-3.5504,-3.5504,-3.5504,-3.5504,-3.5504,-3.5504,-3.5504,-3.5504,-3.5389,-3.4942,-3.4924,-3.5027,-3.4569,-3.4837,-3.5201,-3.5215,-3.5207,-3.5207,-3.5207,-3.4609,-3.3933,-3.3647,-3.2546,-3.1694,-3.1949,-3.1551,-3.1201,-3.1462,-3.1482,-3.1482,-3.1482,-3.1482,-3.1482,-3.1482,-3.1482,-3.1482,-3.1482,-3.1482,-3.1115,-3.0028,-2.8987,-2.7954,-2.6979,-2.5262,-2.4681,-2.5563,-2.4452,-2.3826,-2.3826,-2.3365,-2.2915,-2.2636,-2.2422,-2.1857,-2.0991,-2.0819,-2.0351,-1.9765,0.0,0.0,-2.3404,-2.5553,0.0,-2.9048,0.0,-3.2311,0.0,0.0,0.0,0.0,0.0,0.0,0.0,0.0,0.0,0.0,0.0,0.0,0.0,0.0,0.0,0.0,0.0,0.0,0.0,0.0,0.0,0.0,0.0,0.0,0.0,-3.332,-3.332,-3.332,-3.338,-3.341,0.0,-3.4068,-3.4382,-3.4412,-3.516,-3.5504,-3.5504,-3.5504,-3.5504,-3.5504,-3.5504,-3.5504,-3.5504,-3.5504,-3.5504,-3.5504,-3.5504,-3.5504,-3.5504,-3.5504,-3.5504,-3.5489,-3.5429,-3.5459,-3.525,-3.3829,-3.3955,-3.4287,-3.3005,-3.3575,-3.4595,-3.4512,-3.4528,-3.4479,-3.4431,-3.4316,-3.4088,-3.3441,-3.2217,-3.1464,-3.2153,-3.1323,-3.0657,-3.1347,-3.1482,-3.1482,-3.1482,-3.1422,-3.1377,-3.1377,-3.1377,-3.1377,-3.1377,-3.1317,-3.0689,-2.9391,-2.8584,-2.7556,-2.6279,-2.4945,-2.4176,-2.4176,-2.3484,-2.3078,-2.3078,-2.3078,-2.3078,-2.3078,-2.2636,-2.2083,-2.1481,-2.102,-2.0401,-2.0348,-2.1081,0.0,0.0,-2.692,-2.8929,-2.9001,-2.9349,0.0,0.0,0.0,0.0,0.0,0.0,0.0,0.0,0.0,0.0,0.0,0.0,0.0,0.0,0.0,0.0,0.0,0.0,0.0,0.0,0.0,0.0,0.0,0.0,0.0,-3.1958,-3.1958,-3.1958,-3.1958,-3.2467,-3.2721,0.0,-3.3395,-3.3709,-3.3754,-3.4951,-3.5504,-3.5504,-3.5504,-3.5504,-3.5504,-3.5504,-3.5504,-3.5504,-3.5504,-3.5504,-3.5504,-3.5504,-3.5504,-3.5504,-3.5504,-3.5504,-3.5415,-3.4876,-3.5055,-3.516,-3.329,-3.3937,-3.4923,-3.3116,-3.3536,-3.4416,-3.3922,-3.3836,-3.3684,-3.3145,-3.2242,-3.1439,-3.1303,-2.9761,-2.8807,-3.0014,-2.9973,-3.0163,-3.133,-3.1482,-3.1482,-3.1482,-3.1076,-3.0731,-3.0731,-3.0731,-3.0731,-3.0731,-2.9719,-2.8901,-2.8489,-2.6905,-2.5482,-2.4584,-2.3803,-2.3365,-2.3365,-2.3198,-2.3078,-2.3078,-2.3078,-2.3078,-2.3078,-2.2952,-2.2447,-2.1493,-2.1368,-2.0765,-2.0124,0.0,0.0,-2.4954,0.0,-2.8595,-2.8556,0.0,0.0,0.0,0.0,0.0,0.0,0.0,0.0,0.0,0.0,0.0,0.0,0.0,0.0,0.0,0.0,0.0,0.0,0.0,0.0,0.0,0.0,0.0,0.0,-3.1061,-3.0911,-3.0612,-3.121,-3.1375,-3.1046,-3.1704,-3.2048,-3.2048,-3.2706,-3.3185,-3.3514,-3.4218,-3.4547,-3.4547,-3.4547,-3.4711,-3.5011,-3.5011,-3.5205,-3.5504,-3.5504,-3.5504,-3.5504,-3.5504,-3.5504,-3.5459,-3.513,-3.5235,-3.534,-3.4337,-3.4457,-3.4696,-3.3021,-3.3245,-3.377,-3.2437,-3.2819,-3.351,-3.3228,-3.3145,-3.3039,-3.2695,-3.2098,-3.1464,-3.1106,-2.9939,-2.928,-3.0313,-3.0253,-3.0342,-3.1302,-3.1255,-3.1046,-3.1046,-3.0477,-3.0058,-3.0058,-3.0058,-2.9933,-2.9554,-2.8839,-2.7939,-2.6849,-2.5801,-2.4706,-2.3664,-2.3301,-2.3078,-2.3078,-2.3078,-2.3078,-2.3078,-2.3078,-2.3078,-2.3078,-2.3078,-2.2573,-2.1493,-2.1493,-2.0878,-1.9824,0.0,-2.2409,-2.4851,-2.6354,0.0,-2.746,0.0,0.0,0.0,0.0,0.0,0.0,0.0,0.0,0.0,0.0,0.0,0.0,0.0,0.0,0.0,0.0,0.0,0.0,0.0,0.0,0.0,0.0,0.0,-2.9579,-3.0058,-3.0118,-2.9594,-3.0627,-3.0926,-3.0357,-3.0911,-3.124,-3.136,-3.2033,-3.2512,-3.2826,-3.3051,-3.3275,-3.3499,-3.3499,-3.3799,-3.4307,-3.4307,-3.4637,-3.516,-3.516,-3.516,-3.516,-3.516,-3.516,-3.5085,-3.4502,-3.4681,-3.4951,-3.3724,-3.3769,-3.4068,-3.2736,-3.2497,-3.2527,-3.1691,-3.2042,-3.2592,-3.2468,-3.2437,-3.2437,-3.2437,-3.2437,-3.2185,-3.1489,-3.0821,-3.0507,-3.1091,-3.0821,-3.0687,-3.1255,-3.0791,-3.0342,-3.0342,-2.9819,-2.9415,-2.9415,-2.9415,-2.9099,-2.8307,-2.8024,-2.7144,-2.5362,-2.4958,-2.4352,-2.3163,-2.3078,-2.3078,-2.3078,-2.3078,-2.3078,-2.3078,-2.3078,-2.3078,-2.3078,-2.3078,-2.2623,-2.1631,-2.1631,-2.1029,0.0,0.0,-2.2528,0.0,-2.4459,-2.5201,0.0,0.0,0.0,0.0,0.0,0.0,0.0,0.0,0.0,0.0,0.0,0.0,0.0,0.0,0.0,0.0,0.0,0.0,0.0,0.0,0.0,0.0,0.0,0.0,-2.9579,-2.9669,-2.9669,-2.9579,-2.9759,-2.9804,-2.9699,-2.9804,-3.0118,-3.0657,-3.133,-3.112,-3.0148,-3.127,-3.2422,-3.3499,-3.3499,-3.3544,-3.3619,-3.3619,-3.3679,-3.3769,-3.3769,-3.3769,-3.3769,-3.3769,-3.3769,-3.3754,-3.3649,-3.3679,-3.3634,-3.2886,-3.3095,-3.338,-3.2063,-3.2452,-3.311,-3.1884,-3.2002,-3.236,-3.179,-3.164,-3.164,-3.164,-3.164,-3.1474,-3.0761,-3.0148,-2.9729,-2.9819,-3.0193,-3.0537,-3.0627,-3.0118,-2.9699,-2.9699,-2.9146,-2.8727,-2.8727,-2.8727,-2.8447,-2.7686,-2.651,-2.5629,-2.5249,-2.4082,-2.3321,-2.3138,-2.3078,-2.3078,-2.3078,-2.3078,-2.3078,-2.3078,-2.3078,-2.3078,-2.3078,-2.3078,-2.2811,-2.2196,-2.2196,-2.1606,-2.005,-2.0543,-2.1084,0.0,-2.2402,-2.3037,0.0,0.0,0.0,0.0,0.0,0.0,0.0,0.0,0.0,0.0,0.0,0.0,0.0,0.0,0.0,0.0,0.0,0.0,0.0,0.0,0.0,0.0,0.0,-2.7515,-2.7889,-2.8263,-2.8457,-2.8457,-2.919,-2.94,-2.9026,-2.94,-2.9714,-2.9998,-3.0657,-3.0657,-3.0118,-3.0687,-3.127,-3.1839,-3.2228,-3.2602,-3.2946,-3.2946,-3.3155,-3.3499,-3.3499,-3.3499,-3.3499,-3.3499,-3.3499,-3.344,-3.308,-3.3185,-3.332,-3.2302,-3.2407,-3.2766,-3.1824,-3.1943,-3.2273,-3.1704,-3.1676,-3.1898,-3.1556,-3.1482,-3.1482,-3.1482,-3.1482,-3.1392,-3.115,-3.0866,-3.0672,-3.0672,-3.0896,-3.0956,-3.0567,-2.9998,-2.946,-2.9086,-2.8457,-2.8023,-2.8023,-2.7698,-2.7142,-2.641,-2.5396,-2.4603,-2.4043,-2.3444,-2.3078,-2.3078,-2.3078,-2.3078,-2.3078,-2.3078,-2.3078,-2.3078,-2.3078,-2.3078,-2.3078,-2.3078,-2.279,-2.2309,-2.2309,-2.1882,0.0,0.0,-1.9666,-2.0053,-2.0527,-2.0966,0.0,0.0,0.0,0.0,0.0,0.0,0.0,0.0,0.0,0.0,0.0,0.0,0.0,0.0,0.0,0.0,0.0,0.0,0.0,0.0,0.0,0.0,0.0,-2.5824,-2.6318,-2.6961,-2.732,-2.732,-2.8457,-2.8831,-2.8353,-2.8996,-2.925,-2.9086,-2.9879,-3.0088,-2.9759,-3.0118,-3.0178,-3.0058,-3.0746,-3.1405,-3.2003,-3.2003,-3.2392,-3.2991,-3.2991,-3.2991,-3.2991,-3.2991,-3.2991,-3.2931,-3.2437,-3.2587,-3.2841,-3.1854,-3.1869,-3.2168,-3.1616,-3.1482,-3.1482,-3.1482,-3.1482,-3.1482,-3.1482,-3.1482,-3.1482,-3.1482,-3.1482,-3.1482,-3.1482,-3.1405,-3.133,-3.1437,-3.1332,-3.1106,-3.0597,-2.9998,-2.9355,-2.8697,-2.8008,-2.7625,-2.7625,-2.693,-2.6229,-2.5453,-2.4738,-2.3943,-2.3198,-2.3078,-2.3078,-2.3078,-2.3078,-2.3078,-2.3078,-2.3078,-2.3078,-2.3078,-2.3078,-2.3078,-2.3078,-2.3078,-2.2865,-2.2523,-2.2523,-2.2146,0.0,-1.9319,0.0,-1.9002,0.0,0.0,0.0,0.0,0.0,0.0,0.0,0.0,0.0,0.0,0.0,0.0,0.0,0.0,0.0,0.0,0.0,0.0,0.0,0.0,0.0,0.0,0.0,0.0,0.0,-2.563,-2.5659,-2.6288,-2.6632,-2.6632,-2.737,-2.7715,-2.7619,-2.8308,-2.8323,-2.7745,-2.8996,-2.8966,-2.7769,-2.9056,-2.928,-2.8742,-2.94,-3.0028,-3.0612,-3.0612,-3.1016,-3.1571,-3.1571,-3.1571,-3.1571,-3.1571,-3.1571,-3.1571,-3.1541,-3.1541,-3.1556,-3.1497,-3.1497,-3.1526,-3.1482,-3.1482,-3.1482,-3.1482,-3.1482,-3.1482,-3.1482,-3.1482,-3.1482,-3.1482,-3.1482,-3.1482,-3.1482,-3.1016,-3.0746,-3.1347,-3.1001,-3.0552,-3.0507,-2.9998,-2.9355,-2.8697,-2.8008,-2.7625,-2.7625,-2.693,-2.6229,-2.5453,-2.4738,-2.3943,-2.3198,-2.3078,-2.3078,-2.3078,-2.3078,-2.3078,-2.3078,-2.3078,-2.3078,-2.3078,-2.3078,-2.3078,-2.3078,-2.3078,-2.3065,-2.3027,-2.3027,-2.2523,0.0,0.0,0.0,-1.8383,0.0,0.0,0.0,0.0,0.0,0.0,0.0,0.0,0.0,0.0,0.0,0.0,0.0,0.0,0.0,0.0,0.0,0.0,0.0,0.0,0.0,0.0,0.0,0.0,0.0,0.0,-2.4956,-2.5211,-2.5525,-2.5944,-2.6183,-2.6318,-2.6318,-2.6976,-2.7186,-2.6961,-2.8308,-2.8697,-2.8248,-2.8727,-2.8831,-2.8592,-2.8382,-2.8906,-2.9909,-2.9909,-3.0298,-3.0866,-3.0866,-3.115,-3.1482,-3.1482,-3.1482,-3.1482,-3.1482,-3.1482,-3.1482,-3.1482,-3.1482,-3.1482,-3.1482,-3.1482,-3.1482,-3.1482,-3.1482,-3.1482,-3.1482,-3.1482,-3.1482,-3.1482,-3.1482,-3.1347,-3.0971,-3.1031,-3.124,-3.1422,-3.1345,-3.1031,-3.0582,-2.9998,-2.9355,-2.8697,-2.8008,-2.7625,-2.7625,-2.693,-2.6229,-2.5453,-2.4738,-2.3943,-2.3198,-2.3078,-2.3078,-2.3078,-2.3078,-2.3078,-2.3078,-2.3078,-2.3078,-2.3078,-2.3078,-2.3078,-2.3078,-2.2774,-2.2786,-2.3065,-2.2774,-2.2585,-1.8612,0.0,0.0,0.0,0.0,0.0,0.0,0.0,0.0,0.0,0.0,0.0,0.0,0.0,0.0,0.0,0.0,0.0,0.0,0.0,0.0,0.0,0.0,0.0,0.0,0.0,0.0,0.0,0.0,0.0,-2.3954,-2.4388,-2.4881,-2.5585,-2.5615,-2.5615,-2.5615,-2.6033,-2.6258,-2.6273,-2.7171,-2.759,-2.7604,-2.7829,-2.7934,-2.7919,-2.7679,-2.8203,-2.925,-2.925,-2.9624,-3.0223,-3.0417,-3.0776,-3.121,-3.1392,-3.1482,-3.1482,-3.1482,-3.1482,-3.1482,-3.1482,-3.1482,-3.1482,-3.1482,-3.1482,-3.1482,-3.1482,-3.1482,-3.1482,-3.1482,-3.1482,-3.1422,-3.124,-3.118,-3.1001,-3.0342,-3.0717,-3.112,-3.0911,-3.0881,-3.0731,-3.0268,-2.9669,-2.9101,-2.8667,-2.8008,-2.7625,-2.7625,-2.6759,-2.596,-2.5453,-2.4509,-2.3649,-2.3138,-2.3078,-2.3078,-2.3078,-2.3078,-2.3078,-2.3078,-2.3078,-2.305,-2.2802,-2.2862,-2.2761,-2.2585,-2.2397,-2.2598,-2.3065,-2.2573,-2.251,0.0,0.0,0.0,0.0,0.0,0.0,0.0,0.0,0.0,0.0,0.0,0.0,0.0,0.0,0.0,0.0,0.0,0.0,0.0,0.0,0.0,0.0,0.0,0.0,0.0,0.0,0.0,0.0,0.0,-2.2694,-2.2694,-2.3864,-2.4821,-2.5495,-2.554,-2.5555,-2.5555,-2.557,-2.5585,-2.5585,-2.56,-2.5615,-2.563,-2.6273,-2.6557,-2.6602,-2.7245,-2.7889,-2.8517,-2.8547,-2.8966,-2.9609,-3.0238,-3.0492,-3.0582,-3.1228,-3.1482,-3.1482,-3.1482,-3.1482,-3.1482,-3.1482,-3.1482,-3.1482,-3.1482,-3.1482,-3.1482,-3.1482,-3.1482,-3.1482,-3.1452,-3.1437,-3.133,-3.0642,-3.0477,-3.0313,-2.9684,-3.0028,-3.0283,-2.9699,-2.9579,-2.9579,-2.9579,-2.8973,-2.854,-2.854,-2.7957,-2.7524,-2.7524,-2.6322,-2.5398,-2.5342,-2.4034,-2.3125,-2.3078,-2.3078,-2.3078,-2.3078,-2.3078,-2.3065,-2.3053,-2.3065,-2.2874,-2.2297,-2.2297,-2.2046,-2.1493,-2.2008,-2.2548,-2.3015,-2.2535,-2.2297,-1.7504,0.0,0.0,0.0,0.0,0.0,0.0,0.0,0.0,0.0,0.0,0.0,0.0,0.0,0.0,0.0,0.0,0.0,0.0,0.0,0.0,0.0,0.0,0.0,0.0,0.0,0.0,0.0,-2.1964,-2.1964,-2.1964,-2.2757,-2.3295,-2.349,-2.3924,-2.4148,-2.4148,-2.4642,-2.4896,-2.4866,-2.5375,-2.5615,-2.5615,-2.5794,-2.5884,-2.5899,-2.6078,-2.6258,-2.6512,-2.747,-2.8248,-2.8936,-2.9579,-3.0118,-3.0582,-3.1228,-3.1482,-3.1482,-3.1482,-3.1482,-3.1482,-3.1482,-3.1482,-3.1482,-3.1482,-3.1482,-3.1482,-3.1482,-3.1482,-3.1362,-3.0911,-3.0791,-3.0627,-2.9983,-2.9834,-2.9654,-2.9011,-2.9011,-2.922,-2.952,-2.9138,-2.8706,-2.8706,-2.7779,-2.6989,-2.6989,-2.6451,-2.6,-2.6,-2.6122,-2.5783,-2.4738,-2.4724,-2.4323,-2.3185,-2.3078,-2.3078,-2.3078,-2.3078,-2.2962,-2.256,-2.2865,-2.2686,-2.1732,-2.2108,-2.2046,-2.1493,-2.1242,-2.1405,-2.1945,-2.1782,-2.1933,0.0,0.0,0.0,0.0,0.0,0.0,-1.6993,-1.7076,0.0,0.0,0.0,0.0,0.0,0.0,0.0,0.0,0.0,0.0,0.0,0.0,0.0,0.0,0.0,0.0,0.0,0.0,0.0,-2.1291,-2.1291,-2.1395,-2.168,-2.2054,-2.2263,-2.2263,-2.2622,-2.2936,-2.3206,-2.361,-2.3939,-2.4208,-2.4582,-2.4777,-2.4777,-2.5076,-2.5196,-2.5211,-2.5495,-2.5764,-2.6078,-2.6841,-2.7395,-2.7889,-2.9101,-2.9624,-2.9864,-3.1091,-3.1287,-3.115,-3.1377,-3.1482,-3.1482,-3.1482,-3.1482,-3.1482,-3.1482,-3.1482,-3.1482,-3.1482,-3.1482,-3.1375,-3.0687,-3.0507,-3.0283,-2.9385,-2.9175,-2.8981,-2.8323,-2.8173,-2.8293,-2.8667,-2.815,-2.7631,-2.7631,-2.6708,-2.5979,-2.5979,-2.5619,-2.5398,-2.5398,-2.5508,-2.5231,-2.4408,-2.4394,-2.4105,-2.3198,-2.3078,-2.3078,-2.3078,-2.2865,-2.2648,-2.2322,-2.2397,-2.2033,-2.1154,-2.1455,-2.1343,-2.079,-2.0756,-2.0882,-2.1154,-2.1619,-2.2008,0.0,0.0,0.0,0.0,0.0,0.0,-1.7256,-1.7352,-1.7308,0.0,0.0,0.0,0.0,0.0,0.0,0.0,0.0,0.0,0.0,0.0,0.0,0.0,0.0,0.0,0.0,-2.0946,-2.0602,-2.0602,-2.0602,-2.0857,-2.144,-2.1545,-2.159,-2.159,-2.1665,-2.1979,-2.2562,-2.2604,-2.2877,-2.349,-2.349,-2.3535,-2.3625,-2.4238,-2.4462,-2.4507,-2.5136,-2.5719,-2.6273,-2.6311,-2.6508,-2.6886,-2.8689,-2.8994,-2.8711,-3.0386,-3.0713,-3.0342,-3.0877,-3.1101,-3.1204,-3.1261,-3.1276,-3.1409,-3.1467,-3.1482,-3.1482,-3.1482,-3.1422,-3.127,-3.0582,-3.0342,-2.9983,-2.8771,-2.8487,-2.8323,-2.7709,-2.7625,-2.7625,-2.7625,-2.693,-2.6336,-2.6283,-2.5618,-2.5119,-2.5119,-2.5119,-2.5119,-2.5119,-2.4624,-2.4292,-2.4176,-2.3603,-2.316,-2.305,-2.2977,-2.2965,-2.2962,-2.2485,-2.2196,-2.2133,-2.1719,-2.1204,-2.063,-2.0618,-2.0326,-1.9798,-2.0326,-2.0655,-2.0743,-2.1606,-2.2133,0.0,0.0,0.0,0.0,0.0,0.0,-1.6969,-1.7668,-1.8315,0.0,0.0,0.0,0.0,0.0,0.0,0.0,0.0,0.0,0.0,0.0,0.0,0.0,0.0,0.0,0.0,-1.9959,-1.9884,-1.9884,-1.9884,-1.9944,-2.0064,-2.0602,-2.0917,-2.0917,-2.1425,-2.1754,-2.1889,-2.1889,-2.2218,-2.2862,-2.2862,-2.3116,-2.3595,-2.3744,-2.3804,-2.3804,-2.3939,-2.4059,-2.4209,-2.4688,-2.5888,-2.7419,-2.7788,-2.785,-2.7726,-2.8039,-2.8358,-2.8581,-2.8245,-2.8721,-2.9543,-2.9768,-3.0148,-3.0644,-3.1278,-3.1482,-3.1482,-3.1482,-3.1135,-3.0552,-2.9924,-2.937,-2.8771,-2.7964,-2.7784,-2.779,-2.7655,-2.7625,-2.7625,-2.7625,-2.6549,-2.5453,-2.4851,-2.4047,-2.3531,-2.3531,-2.3531,-2.3531,-2.3531,-2.4002,-2.406,-2.3424,-2.3767,-2.3645,-2.2569,-2.2472,-2.2284,-2.1832,-2.1707,-2.1443,-2.1004,-2.1305,-2.1004,-1.9987,-1.9974,-1.9911,-1.9798,-1.9911,-2.0213,-2.0706,-2.0413,-2.1016,0.0,0.0,0.0,-1.7388,0.0,0.0,0.0,-1.7548,-1.8028,0.0,0.0,0.0,0.0,0.0,0.0,0.0,0.0,0.0,0.0,0.0,0.0,0.0,0.0,0.0,0.0,-1.969,-1.969,-1.969,-1.969,-1.969,-1.969,-2.0019,-2.0198,-2.0198,-2.0528,-2.0857,-2.1201,-2.1201,-2.1545,-2.2188,-2.2559,-2.2847,-2.3146,-2.346,-2.3595,-2.3595,-2.3275,-2.3333,-2.3655,-2.3949,-2.4839,-2.613,-2.6731,-2.6933,-2.6891,-2.7179,-2.7478,-2.7709,-2.7755,-2.8097,-2.8733,-2.9585,-3.0055,-3.045,-3.1278,-3.1482,-3.1407,-3.112,-3.0776,-3.0283,-2.934,-2.8846,-2.8427,-2.779,-2.7625,-2.7625,-2.7625,-2.7625,-2.7509,-2.7137,-2.6162,-2.5287,-2.4894,-2.3884,-2.3078,-2.3078,-2.3078,-2.3078,-2.3078,-2.3424,-2.3543,-2.3125,-2.3484,-2.3313,-2.2359,-2.2573,-2.2372,-2.1543,-2.1493,-2.1242,-2.0743,-2.0652,-2.0376,-1.9811,-1.9798,-1.9798,-1.9798,-1.9798,-1.9949,-2.0238,-2.0514,-2.1091,0.0,0.0,0.0,0.0,0.0,-1.7614,0.0,0.0,0.0,0.0,0.0,0.0,0.0,0.0,0.0,0.0,0.0,0.0,0.0,0.0,0.0,0.0,0.0,0.0,0.0,-1.969,-1.969,-1.969,-1.969,-1.969,-1.969,-1.969,-1.969,-1.969,-1.969,-1.9944,-2.0513,-2.0513,-2.0842,-2.1515,-2.2173,-2.2604,-2.2739,-2.331,-2.3595,-2.3551,-2.2965,-2.2997,-2.3501,-2.3312,-2.3546,-2.4243,-2.5478,-2.5958,-2.5911,-2.6485,-2.6726,-2.6796,-2.7332,-2.7707,-2.8091,-2.9271,-2.9911,-3.045,-3.1278,-3.1482,-3.139,-3.0702,-3.0417,-3.0058,-2.8906,-2.8502,-2.8263,-2.7709,-2.752,-2.738,-2.738,-2.7325,-2.7036,-2.6462,-2.5646,-2.5067,-2.519,-2.4047,-2.304,-2.2927,-2.3002,-2.3002,-2.2849,-2.294,-2.299,-2.2836,-2.2852,-2.2711,-2.2046,-2.2498,-2.2397,-2.1393,-2.133,-2.1129,-2.0743,-2.0112,-1.9798,-1.9798,-1.9798,-1.9798,-1.9798,-1.9798,-1.9798,-1.9823,-2.074,-2.1217,0.0,0.0,0.0,0.0,-1.848,0.0,0.0,0.0,0.0,0.0,0.0,0.0,0.0,0.0,0.0,0.0,0.0,0.0,0.0,0.0,0.0,0.0,0.0,0.0,0.0,0.0,-1.969,-1.969,-1.969,-1.969,-1.969,-1.969,-1.969,-1.969,-1.969,-1.972,-1.9794,-1.9794,-2.0154,-2.0842,-2.1485,-2.2113,-2.2739,-2.331,-2.3595,-2.3551,-2.2965,-2.2737,-2.2761,-2.2115,-2.2154,-2.2789,-2.4036,-2.45,-2.4509,-2.4407,-2.4696,-2.5065,-2.5128,-2.5866,-2.6739,-2.718,-2.8623,-3.045,-3.1278,-3.1482,-3.139,-3.0702,-3.0103,-2.952,-2.8786,-2.8143,-2.7715,-2.764,-2.7126,-2.6692,-2.6692,-2.6243,-2.5777,-2.5729,-2.4662,-2.3929,-2.4336,-2.3708,-2.2915,-2.2472,-2.2824,-2.2786,-2.1794,-2.2523,-2.2761,-2.1782,-2.2121,-2.1983,-2.0995,-2.1355,-2.1418,-2.0857,-2.0806,-2.0781,-2.0718,-2.0112,-1.9798,-1.9798,-1.9798,-1.9798,-1.9798,-1.9798,-1.9798,-1.9798,-1.9936,-2.0275,0.0,0.0,0.0,0.0,0.0,0.0,-1.8561,0.0,-1.9182,0.0,0.0,0.0,0.0,0.0,0.0,0.0,0.0,0.0,0.0,0.0,0.0,0.0,0.0,0.0,0.0,0.0,0.0,0.0,0.0,-1.969,-1.969,-1.969,-1.969,-1.969,-1.969,-1.969,-1.969,-1.969,-1.9824,-2.0124,-2.0797,-2.1276,-2.1575,-2.2592,-2.2872,-2.2484,-2.2235,-2.1913,-2.1554,-2.1224,-2.1399,-2.1988,-2.2795,-2.3513,-2.4141,-2.4028,-2.4142,-2.4393,-2.4707,-2.4921,-2.5344,-2.7099,-2.8876,-3.045,-3.1278,-3.1255,-3.0806,-3.0148,-2.9505,-2.8861,-2.8173,-2.7784,-2.752,-2.7096,-2.6782,-2.6482,-2.6093,-2.5809,-2.5506,-2.5143,-2.4298,-2.3546,-2.3349,-2.2673,-2.2096,-2.187,-2.2033,-2.202,-2.1543,-2.1895,-2.1995,-2.1543,-2.1694,-2.1518,-2.0781,-2.1167,-2.1104,-2.0225,-2.0162,-2.0162,-2.0162,-1.9924,-1.9798,-1.9798,-1.9798,-1.9798,-1.9798,-1.9798,-1.9798,-1.9798,-1.9798,-2.0112,-1.8304,0.0,0.0,0.0,0.0,0.0,0.0,0.0,0.0,0.0,0.0,0.0,0.0,0.0,0.0,0.0,0.0,0.0,0.0,0.0,0.0,0.0,0.0,0.0,0.0,0.0,0.0,-1.969,-1.969,-1.969,-1.969,-1.969,-1.969,-1.969,-1.969,-1.969,-1.969,-1.969,-1.969,-1.969,-2.0378,-2.0722,-2.0752,-2.1889,-2.214,-2.17,-2.1527,-2.1192,-2.0785,-2.0564,-2.0853,-2.1531,-2.1933,-2.2774,-2.3803,-2.4104,-2.4217,-2.4305,-2.4845,-2.4682,-2.4645,-2.7155,-2.8647,-2.9631,-3.0686,-3.0657,-3.0118,-2.949,-2.8966,-2.8442,-2.7754,-2.749,-2.7186,-2.648,-2.6206,-2.5819,-2.4982,-2.4793,-2.4614,-2.4,-2.3328,-2.2685,-2.2206,-2.1748,-2.1443,-2.128,-2.1393,-2.138,-2.1066,-2.1292,-2.1368,-2.1054,-2.1167,-2.1041,-2.0476,-2.0941,-2.0916,-2.0087,-2.0037,-1.9962,-1.9811,-1.9798,-1.9798,-1.9798,-1.9798,-1.9798,-1.9798,-1.9798,-1.9798,-1.9798,-1.9798,-2.0024,0.0,0.0,0.0,-1.8869,0.0,0.0,0.0,0.0,-1.8464,0.0,0.0,0.0,0.0,0.0,0.0,0.0,0.0,0.0,0.0,0.0,0.0,0.0,0.0,0.0,0.0,0.0,0.0,-1.969,-1.969,-1.969,-1.969,-1.969,-1.969,-1.969,-1.969,-1.969,-1.969,-1.969,-1.969,-1.969,-2.0378,-2.0722,-2.0737,-2.1425,-2.1713,-2.1671,-2.1094,-2.084,-2.0759,-2.0118,-2.0489,-2.1493,-2.1506,-2.2184,-2.3228,-2.4393,-2.4795,-2.487,-2.5385,-2.5222,-2.5039,-2.6681,-2.7235,-2.7617,-2.9156,-2.9624,-2.9475,-2.8816,-2.8622,-2.8442,-2.7754,-2.7096,-2.6455,-2.5785,-2.5158,-2.4338,-2.3069,-2.2795,-2.2615,-2.1908,-2.1313,-2.0861,-2.0848,-2.1234,-2.1305,-2.0819,-2.1142,-2.1091,-1.9999,-2.0815,-2.1066,-1.9974,-2.0351,-2.0451,-1.9874,-2.0363,-2.0731,-2.0693,-2.0693,-2.0388,-1.9823,-1.9798,-1.9798,-1.9798,-1.9798,-1.9798,-1.9798,-1.9798,-1.9798,-1.9798,-1.9798,-1.9811,0.0,0.0,-1.8007,-1.9394,0.0,0.0,0.0,0.0,0.0,0.0,0.0,0.0,0.0,0.0,0.0,0.0,0.0,0.0,0.0,0.0,0.0,0.0,0.0,0.0,0.0,0.0,0.0,-1.969,-1.969,-1.969,0.0,-1.969,-1.969,-1.969,-1.969,-1.969,-1.969,-1.969,-1.969,-1.969,-1.9929,-2.0273,-2.0737,-2.1395,-2.1476,-2.1108,-2.1301,-2.0925,-2.0105,-1.9901,-2.0464,-2.1493,-2.1493,-2.2171,-2.3226,-2.3991,-2.4042,-2.3666,-2.3904,-2.4104,-2.4444,-2.5535,-2.6163,-2.6654,-2.7766,-2.8136,-2.8188,-2.7915,-2.792,-2.7769,-2.7096,-2.6752,-2.6217,-2.4723,-2.4152,-2.3623,-2.2303,-2.2052,-2.1866,-2.121,-2.093,-2.0646,-2.0194,-2.0269,-2.0313,-2.0125,-2.025,-2.0238,-1.9849,-2.0137,-2.0225,-1.9849,-1.9974,-2.0012,-1.9823,-1.9987,-2.0087,-2.0087,-2.0087,-2.0012,-1.9811,-1.9798,-1.9798,-1.9798,-1.9307,-1.9097,-1.9097,-1.8555,-1.8328,-1.834,-1.8821,-1.9307,-1.7426,-1.7388,0.0,-1.9324,-1.897,0.0,-2.0578,0.0,0.0,0.0,0.0,0.0,0.0,0.0,0.0,0.0,0.0,0.0,0.0,-1.969,0.0,0.0,0.0,0.0,0.0,0.0,-1.969,-1.969,-1.969,-1.969,0.0,0.0,-1.969,-1.969,-1.969,-1.969,-1.969,-1.969,-1.969,-1.969,-1.969,-1.9914,-2.0378,-2.0774,-2.0781,-2.0474,-2.0866,-2.0571,-1.9798,-1.9798,-2.0351,-2.1217,-2.1418,-2.2046,-2.2937,-2.3715,-2.3766,-2.3439,-2.3439,-2.3552,-2.3801,-2.4642,-2.5144,-2.5628,-2.6356,-2.6849,-2.7115,-2.7115,-2.7199,-2.7041,-2.6391,-2.5888,-2.509,-2.3441,-2.3017,-2.2639,-2.1313,-2.1183,-2.1197,-2.0597,-2.0446,-2.0295,-1.985,-1.9798,-1.9798,-1.9798,-1.9798,-1.9798,-1.9798,-1.9798,-1.9798,-1.9798,-1.9798,-1.9798,-1.9798,-1.9798,-1.9798,-1.9798,-1.9798,-1.9798,-1.9798,-1.9798,-1.9818,-1.9871,-1.9119,-1.8731,-1.8765,-1.7967,-1.7578,-1.7633,-1.807,-1.8555]},{"header":{"parameterUnit":"m.s-1","parameterCategory":1,"la1":30.6,"la2":29.2853,"lo1":-89.7004,"lo2":-87.6739,"dy":0.0162,"dx":0.0183,"nx":112,"ny":82,"refTime":"2023-06-24T12:00:00:Z","depth":0,"parameterNumber":3,"parameterNumberName":"V-component_of_WINDS"},"data":[0.0,0.0,0.0,0.0,0.0,0.0,0.0,0.0,0.0,0.0,0.0,0.0,0.0,0.0,0.0,0.0,0.0,0.0,0.0,0.0,0.0,0.0,0.0,0.0,0.0,0.0,0.0,0.0,0.0,0.0,0.0,0.0,0.0,0.0,0.0,0.0,0.0,0.0,0.0,0.0,0.0,0.0,0.0,0.0,0.0,0.0,0.0,0.0,0.0,0.0,0.0,0.0,0.0,0.0,0.0,0.0,0.0,0.0,0.0,0.0,0.0,0.0,0.0,0.0,0.0,0.0,0.0,0.0,0.0,0.0,0.0,0.0,0.0,0.0,0.0,0.0,0.0,0.0,0.0,0.0,0.0,0.0,0.0,0.0,0.0,0.0,0.0,0.0,0.0,0.0,0.0,-1.8115,-2.2105,-2.442,-2.3998,-2.4401,-2.3227,-1.9849,0.0,0.0,0.0,0.0,0.0,0.0,0.0,0.0,0.0,0.0,0.0,0.0,0.0,0.0,0.0,0.0,0.0,0.0,0.0,0.0,0.0,0.0,0.0,0.0,0.0,0.0,0.0,0.0,0.0,0.0,0.0,0.0,0.0,0.0,0.0,0.0,0.0,0.0,0.0,0.0,0.0,0.0,0.0,0.0,0.0,0.0,0.0,0.0,0.0,0.0,0.0,0.0,0.0,0.0,0.0,0.0,0.0,0.0,0.0,0.0,0.0,0.0,0.0,0.0,0.0,0.0,0.0,0.0,0.0,0.0,0.0,0.0,0.0,0.0,0.0,0.0,0.0,0.0,0.0,0.0,0.0,0.0,0.0,0.0,0.0,0.0,0.0,0.0,0.0,0.0,0.0,0.0,0.0,0.0,0.0,0.0,0.0,0.0,0.0,0.0,0.0,0.0,0.0,0.0,-1.7134,-2.1748,-2.4563,-2.6111,-2.6025,-2.4896,-2.3119,-2.0652,0.0,0.0,0.0,0.0,0.0,0.0,0.0,0.0,0.0,0.0,0.0,0.0,0.0,0.0,0.0,0.0,0.0,0.0,0.0,0.0,0.0,0.0,0.0,0.0,0.0,0.0,0.0,0.0,0.0,0.0,0.0,0.0,0.0,0.0,0.0,0.0,0.0,0.0,0.0,0.0,0.0,0.0,0.0,0.0,0.0,0.0,0.0,0.0,0.0,0.0,0.0,0.0,0.0,0.0,0.0,0.0,0.0,0.0,0.0,0.0,0.0,0.0,0.0,0.0,0.0,0.0,0.0,0.0,0.0,0.0,0.0,0.0,0.0,0.0,0.0,0.0,0.0,0.0,0.0,0.0,0.0,0.0,0.0,0.0,0.0,0.0,0.0,0.0,0.0,0.0,0.0,0.0,0.0,0.0,0.0,0.0,0.0,0.0,0.0,0.0,0.0,0.0,0.0,-1.6497,-1.8802,-2.228,-2.4418,-2.5448,-2.5146,-2.3866,-2.2259,-2.0313,-1.966,0.0,0.0,0.0,0.0,0.0,0.0,0.0,0.0,0.0,0.0,0.0,0.0,0.0,0.0,0.0,0.0,0.0,0.0,0.0,0.0,0.0,0.0,0.0,0.0,0.0,0.0,0.0,0.0,0.0,0.0,0.0,0.0,0.0,0.0,0.0,0.0,0.0,0.0,0.0,0.0,0.0,0.0,0.0,0.0,0.0,0.0,0.0,0.0,0.0,0.0,0.0,0.0,0.0,0.0,0.0,0.0,0.0,0.0,0.0,0.0,0.0,0.0,0.0,0.0,0.0,0.0,0.0,0.0,0.0,0.0,0.0,0.0,0.0,0.0,0.0,0.0,0.0,0.0,0.0,0.0,0.0,0.0,0.0,0.0,0.0,0.0,0.0,0.0,0.0,0.0,0.0,0.0,0.0,0.0,0.0,0.0,0.0,0.0,0.0,0.0,0.0,0.0,-1.7949,-1.9629,-2.17,-2.3301,-2.4054,-2.364,-2.2447,-2.1117,-1.971,-1.848,0.0,0.0,0.0,0.0,0.0,0.0,0.0,0.0,0.0,0.0,0.0,0.0,0.0,0.0,0.0,0.0,0.0,0.0,0.0,0.0,0.0,0.0,0.0,0.0,0.0,0.0,0.0,0.0,0.0,0.0,0.0,0.0,0.0,0.0,0.0,0.0,0.0,0.0,0.0,0.0,0.0,0.0,0.0,0.0,0.0,0.0,0.0,0.0,0.0,0.0,0.0,0.0,0.0,0.0,0.0,0.0,0.0,0.0,0.0,0.0,0.0,0.0,0.0,0.0,0.0,0.0,0.0,0.0,0.0,0.0,0.0,0.0,0.0,0.0,0.0,0.0,0.0,0.0,0.0,0.0,0.0,0.0,0.0,0.0,0.0,0.0,0.0,0.0,0.0,0.0,0.0,0.0,0.0,0.0,0.0,0.0,0.0,0.0,0.0,0.0,0.0,0.0,-1.7135,-1.8858,-2.0598,-2.1807,-2.2472,-2.2435,-2.0928,-1.9723,-1.912,-1.7539,0.0,0.0,0.0,0.0,0.0,0.0,0.0,0.0,0.0,0.0,0.0,0.0,0.0,0.0,0.0,0.0,0.0,0.0,0.0,0.0,0.0,0.0,0.0,0.0,0.0,0.0,0.0,0.0,0.0,0.0,0.0,0.0,0.0,0.0,0.0,0.0,0.0,0.0,0.0,0.0,0.0,0.0,0.0,0.0,0.0,0.0,0.0,0.0,0.0,0.0,0.0,0.0,0.0,0.0,0.0,0.0,0.0,0.0,0.0,0.0,0.0,0.0,0.0,0.0,0.0,0.0,0.0,0.0,0.0,0.0,0.0,0.0,0.0,0.0,0.0,0.0,0.0,0.0,0.0,0.0,0.0,0.0,0.0,0.0,0.0,0.0,0.0,0.0,0.0,0.0,0.0,0.0,0.0,0.0,0.0,0.0,0.0,0.0,0.0,0.0,0.0,0.0,-1.7279,-1.866,0.0,-2.0828,-2.1142,-2.0778,-2.0162,-1.9296,-1.8078,0.0,0.0,0.0,0.0,0.0,0.0,0.0,0.0,0.0,0.0,0.0,0.0,0.0,0.0,0.0,0.0,0.0,0.0,0.0,0.0,0.0,0.0,0.0,0.0,0.0,0.0,0.0,0.0,0.0,0.0,0.0,0.0,0.0,0.0,0.0,0.0,0.0,0.0,0.0,0.0,0.0,0.0,0.0,0.0,0.0,0.0,0.0,0.0,0.0,0.0,0.0,0.0,0.0,0.0,0.0,0.0,0.0,0.0,0.0,0.0,0.0,0.0,0.0,0.0,0.0,0.0,0.0,0.0,0.0,0.0,0.0,0.0,0.0,0.0,0.0,0.0,0.0,0.0,0.0,0.0,0.0,0.0,0.0,0.0,0.0,0.0,0.0,0.0,0.0,0.0,0.0,0.0,0.0,0.0,0.0,0.0,0.0,0.0,0.0,0.0,0.0,0.0,-1.6006,-1.7036,-1.8016,0.0,-1.9547,-1.9723,-1.9334,-1.8807,-1.8179,-1.7438,0.0,0.0,0.0,0.0,0.0,0.0,0.0,0.0,0.0,0.0,0.0,0.0,0.0,0.0,0.0,0.0,0.0,0.0,0.0,0.0,0.0,0.0,0.0,0.0,0.0,0.0,0.0,0.0,0.0,0.0,0.0,0.0,0.0,0.0,0.0,0.0,0.0,0.0,0.0,0.0,0.0,0.0,0.0,0.0,0.0,0.0,0.0,0.0,0.0,0.0,0.0,0.0,0.0,0.0,0.0,0.0,0.0,0.0,0.0,0.0,0.0,0.0,0.0,0.0,0.0,0.0,0.0,0.0,0.0,0.0,0.0,0.0,0.0,0.0,0.0,0.0,0.0,0.0,0.0,0.0,0.0,0.0,0.0,0.0,0.0,0.0,0.0,0.0,0.0,0.0,0.0,0.0,0.0,0.0,0.0,0.0,0.0,0.0,0.0,0.0,0.0,0.0,-1.5528,-1.6139,-1.6735,-1.7313,-1.7865,-1.8191,-1.8191,-1.6672,-1.6183,0.0,0.0,0.0,0.0,0.0,0.0,0.0,0.0,0.0,0.0,0.0,0.0,0.0,0.0,0.0,0.0,0.0,0.0,0.0,0.0,0.0,0.0,0.0,0.0,0.0,0.0,0.0,0.0,0.0,0.0,0.0,0.0,0.0,0.0,0.0,0.0,0.0,0.0,0.0,0.0,0.0,0.0,0.0,0.0,0.0,0.0,0.0,0.0,0.0,0.0,0.0,0.0,0.0,0.0,0.0,0.0,0.0,0.0,0.0,0.0,0.0,0.0,0.0,0.0,0.0,0.0,0.0,0.0,0.0,0.0,0.0,0.0,0.0,0.0,0.0,0.0,0.0,0.0,0.0,0.0,0.0,0.0,0.0,0.0,0.0,0.0,0.0,0.0,0.0,0.0,0.0,0.0,0.0,0.0,0.0,0.0,0.0,0.0,0.0,0.0,0.0,0.0,0.0,-1.6133,-1.6044,-1.6308,-1.7287,-1.7526,-1.7626,-1.7626,-1.6798,-1.6421,-1.6748,0.0,0.0,0.0,0.0,0.0,0.0,0.0,0.0,0.0,0.0,0.0,0.0,0.0,0.0,0.0,0.0,0.0,0.0,0.0,0.0,0.0,0.0,0.0,0.0,0.0,0.0,0.0,0.0,0.0,0.0,0.0,0.0,0.0,0.0,0.0,0.0,0.0,0.0,0.0,0.0,0.0,0.0,0.0,0.0,0.0,0.0,0.0,0.0,0.0,0.0,0.0,0.0,0.0,0.0,0.0,0.0,0.0,0.0,0.0,0.0,0.0,0.0,0.0,0.0,0.0,0.0,0.0,0.0,0.0,0.0,0.0,0.0,0.0,0.0,0.0,0.0,0.0,0.0,0.0,0.0,0.0,0.0,0.0,0.0,0.0,0.0,0.0,0.0,0.0,0.0,0.0,0.0,0.0,0.0,0.0,0.0,0.0,0.0,0.0,0.0,0.0,0.0,-1.6378,-1.5844,-1.5793,-1.6923,-1.7036,-1.7036,-1.7036,-1.6321,-1.5957,-1.617,0.0,0.0,0.0,0.0,0.0,0.0,0.0,0.0,0.0,0.0,0.0,0.0,0.0,0.0,0.0,0.0,0.0,0.0,0.0,0.0,0.0,0.0,0.0,0.0,0.0,0.0,0.0,0.0,0.0,0.0,0.0,0.0,0.0,0.0,0.0,0.0,0.0,0.0,0.0,0.0,0.0,0.0,0.0,0.0,0.0,0.0,0.0,0.0,0.0,0.0,0.0,0.0,0.0,0.0,0.0,0.0,0.0,0.0,0.0,0.0,0.0,0.0,0.0,0.0,0.0,0.0,0.0,0.0,0.0,0.0,0.0,0.0,0.0,0.0,0.0,0.0,0.0,0.0,0.0,0.0,0.0,0.0,0.0,0.0,0.0,0.0,0.0,0.0,0.0,0.0,0.0,0.0,0.0,0.0,0.0,0.0,0.0,0.0,0.0,0.0,0.0,0.0,-1.6384,-1.5593,-1.5354,-1.6409,-1.6522,-1.6522,-1.6522,-1.5505,-1.5155,-1.5668,0.0,0.0,0.0,0.0,0.0,0.0,0.0,0.0,0.0,0.0,0.0,0.0,0.0,0.0,0.0,0.0,0.0,0.0,0.0,0.0,0.0,0.0,0.0,0.0,0.0,0.0,0.0,0.0,0.0,0.0,0.0,0.0,0.0,0.0,0.0,0.0,0.0,0.0,0.0,0.0,0.0,0.0,0.0,0.0,0.0,0.0,0.0,0.0,0.0,0.0,0.0,0.0,0.0,0.0,0.0,0.0,0.0,0.0,0.0,0.0,-0.9682,0.0,0.0,0.0,0.0,0.0,0.0,0.0,0.0,0.0,0.0,0.0,0.0,0.0,0.0,0.0,0.0,0.0,0.0,0.0,0.0,0.0,0.0,0.0,0.0,0.0,0.0,0.0,0.0,0.0,0.0,0.0,0.0,0.0,0.0,0.0,0.0,0.0,0.0,0.0,0.0,0.0,-1.6434,-1.5932,-1.5781,-1.6446,-1.6522,-1.6522,-1.6522,-1.5505,-1.5155,-1.5668,-1.4815,0.0,0.0,0.0,0.0,0.0,0.0,0.0,0.0,0.0,0.0,0.0,0.0,0.0,0.0,0.0,0.0,0.0,0.0,0.0,0.0,0.0,0.0,0.0,0.0,0.0,0.0,0.0,0.0,0.0,0.0,0.0,0.0,0.0,0.0,0.0,0.0,0.0,0.0,0.0,0.0,0.0,0.0,0.0,0.0,0.0,0.0,0.0,0.0,0.0,0.0,0.0,0.0,0.0,0.0,0.0,0.0,0.0,0.0,0.0,0.0,-1.0431,0.0,0.0,0.0,0.0,0.0,0.0,0.0,0.0,0.0,0.0,0.0,0.0,0.0,0.0,0.0,0.0,0.0,0.0,0.0,0.0,0.0,0.0,0.0,0.0,0.0,0.0,0.0,0.0,0.0,0.0,0.0,0.0,0.0,0.0,0.0,0.0,0.0,0.0,0.0,0.0,-1.6446,-1.6032,-1.5906,-1.6459,-1.6522,-1.6522,-1.6522,-1.5756,-1.5392,-1.568,-1.4941,0.0,0.0,0.0,0.0,0.0,0.0,0.0,0.0,0.0,0.0,0.0,0.0,0.0,0.0,0.0,0.0,0.0,0.0,0.0,0.0,0.0,0.0,0.0,0.0,0.0,0.0,0.0,0.0,0.0,0.0,0.0,0.0,0.0,0.0,0.0,0.0,0.0,0.0,0.0,0.0,0.0,0.0,0.0,0.0,0.0,0.0,0.0,0.0,0.0,0.0,0.0,0.0,0.0,-1.7944,-1.8221,-1.8406,-1.8137,-1.756,-1.6746,-1.4836,-1.2721,-1.0753,0.0,0.0,0.0,0.0,0.0,0.0,0.0,0.0,0.0,0.0,0.0,0.0,0.0,0.0,0.0,0.0,0.0,0.0,0.0,0.0,0.0,0.0,0.0,0.0,0.0,-1.6475,-1.6797,0.0,0.0,0.0,0.0,0.0,0.0,0.0,0.0,0.0,0.0,0.0,0.0,-1.6459,-1.612,-1.6019,-1.6471,-1.6522,-1.6522,-1.6522,-1.6019,-1.5693,-1.5693,-1.5218,-1.4953,0.0,0.0,0.0,0.0,0.0,0.0,0.0,0.0,0.0,0.0,0.0,0.0,0.0,0.0,0.0,0.0,0.0,0.0,0.0,0.0,0.0,0.0,0.0,0.0,0.0,0.0,0.0,0.0,0.0,0.0,0.0,0.0,-1.3176,-1.3895,0.0,0.0,0.0,0.0,0.0,0.0,0.0,0.0,0.0,0.0,0.0,0.0,0.0,0.0,-1.7606,-1.9118,-1.9589,-1.9064,-2.0188,-2.0362,-1.9684,-2.0004,-1.9676,-1.8792,-1.8473,0.0,-1.3067,-1.1344,0.0,0.0,0.0,0.0,0.0,0.0,0.0,0.0,0.0,0.0,0.0,0.0,0.0,0.0,0.0,0.0,0.0,0.0,0.0,0.0,0.0,0.0,-1.5575,-1.6348,-1.6673,-1.7079,0.0,-1.7775,-1.7144,-1.6277,0.0,0.0,0.0,0.0,0.0,0.0,0.0,0.0,-1.6509,-1.6459,-1.6434,-1.6509,-1.6522,-1.6522,-1.6522,-1.6019,-1.5693,-1.5693,-1.5218,-1.513,-1.5567,-1.558,0.0,0.0,0.0,0.0,0.0,0.0,0.0,0.0,0.0,0.0,0.0,0.0,0.0,0.0,0.0,0.0,0.0,0.0,0.0,0.0,0.0,0.0,0.0,0.0,0.0,0.0,0.0,0.0,0.0,-1.512,-1.5438,-1.5279,-1.5742,-1.5695,0.0,0.0,0.0,0.0,0.0,0.0,0.0,0.0,0.0,-1.8609,-1.9259,-1.964,-1.982,-2.0827,-2.124,-2.1113,-2.168,-2.1875,-2.1719,-2.168,-2.154,-2.1296,-2.0228,-1.887,-1.7269,-1.4993,-1.3577,-1.29,0.0,0.0,0.0,0.0,-1.1845,-1.1496,-1.157,-1.1483,0.0,0.0,0.0,0.0,0.0,0.0,0.0,0.0,0.0,0.0,0.0,0.0,0.0,-1.6678,-1.7825,-1.8972,-1.9285,-1.9582,-1.9473,0.0,-1.8301,-1.822,-1.7934,0.0,0.0,0.0,0.0,0.0,-1.7426,-1.72,-1.6999,-1.6999,-1.671,-1.6522,-1.6522,-1.6296,-1.6158,-1.6158,-1.5643,-1.5442,-1.568,-1.5693,-1.5806,0.0,0.0,0.0,0.0,0.0,0.0,0.0,0.0,0.0,0.0,0.0,0.0,0.0,0.0,0.0,0.0,0.0,0.0,0.0,0.0,0.0,0.0,0.0,0.0,0.0,0.0,0.0,0.0,-1.6709,-1.7425,-1.7006,-1.8195,-1.8635,0.0,0.0,0.0,0.0,0.0,0.0,-1.8956,-1.9481,-2.0178,-2.1367,-2.1709,-2.1894,-2.1894,-2.2207,-2.248,-2.2676,-2.2676,-2.2832,-2.3125,-2.2812,-2.2842,-2.3018,-2.1569,-2.0798,-2.0316,-1.7848,-1.5675,-1.3964,-1.4587,-1.4299,-1.3416,-1.327,-1.2839,-1.2351,-1.2559,-1.2709,-1.2879,-1.3833,0.0,-1.516,-1.4377,0.0,0.0,0.0,0.0,-1.6562,-1.6562,-1.7051,-1.7586,-1.7655,-1.9168,-2.0587,-2.0455,-2.1176,-2.1531,0.0,-2.025,-2.0188,-1.9359,0.0,0.0,0.0,0.0,-1.7739,-1.8154,-1.7714,-1.7388,-1.7388,-1.6861,-1.6522,-1.6522,-1.6522,-1.6522,-1.6522,-1.6132,-1.5906,-1.5906,-1.5906,-1.5906,-1.5906,0.0,0.0,0.0,0.0,0.0,0.0,0.0,0.0,0.0,0.0,0.0,0.0,0.0,0.0,0.0,0.0,0.0,0.0,0.0,0.0,0.0,0.0,0.0,0.0,0.0,0.0,0.0,0.0,0.0,-1.9215,-2.0881,0.0,0.0,0.0,0.0,-2.126,-2.0677,-2.0712,-2.1627,-2.2065,-2.2764,-2.3603,-2.3652,-2.3662,-2.3662,-2.3682,-2.3496,-2.3105,-2.3105,-2.3115,-2.3135,-2.3115,-2.3115,-2.3047,-2.3008,-2.2119,-2.0648,-1.8264,-1.7027,-1.6566,-1.5166,-1.4782,-1.4786,-1.3362,-1.3144,-1.3434,-1.2612,-1.2959,-1.4179,-1.6207,-1.7823,-1.8773,-1.7523,-1.722,0.0,0.0,-1.722,-1.791,-1.791,-1.7949,-1.837,-1.9998,-2.0506,-2.0907,-2.2128,-2.2725,-2.2573,0.0,-2.02,-1.9823,-1.9773,0.0,-1.8908,-1.8982,-1.8518,-1.8179,-1.8204,-1.7714,-1.7388,-1.7388,-1.6861,-1.6522,-1.6522,-1.6522,-1.6522,-1.6522,-1.6497,-1.6471,-1.6471,-1.6471,-1.6471,-1.6471,-1.6509,0.0,0.0,0.0,0.0,0.0,0.0,0.0,0.0,0.0,0.0,0.0,0.0,0.0,0.0,0.0,0.0,0.0,0.0,0.0,0.0,0.0,0.0,0.0,0.0,0.0,0.0,0.0,0.0,-2.3234,-2.4715,0.0,-2.5043,-2.4062,-2.3566,-2.3737,-2.3575,-2.3669,-2.4287,-2.4502,-2.4853,-2.5439,-2.5195,-2.4766,-2.4199,-2.4199,-2.3838,-2.3135,-2.3135,-2.3135,-2.3135,-2.3135,-2.3135,-2.3135,-2.3135,-2.2785,-2.2235,-2.1372,-2.0062,-1.8673,-1.8813,-1.7925,-1.65,-1.6152,-1.5245,-1.4188,-1.4055,-1.4479,-1.5263,-1.6732,-1.7777,-1.8379,-1.793,-1.7793,-1.7812,-1.792,-1.8174,-1.8418,-1.8418,-1.8418,-1.8616,-1.952,-2.0194,-2.0903,-2.1914,-2.2641,-2.2902,-2.2372,-2.1794,-2.1305,-2.0941,-2.0439,-2.0075,-2.0075,-1.9597,-1.9233,-1.9233,-1.8769,-1.8304,-1.7953,-1.74,-1.6923,-1.6547,-1.6522,-1.6522,-1.6522,-1.6522,-1.6522,-1.6522,-1.6522,-1.6522,-1.6522,-1.6522,-1.6522,0.0,0.0,0.0,0.0,0.0,0.0,0.0,0.0,0.0,0.0,0.0,0.0,0.0,0.0,0.0,0.0,0.0,0.0,0.0,0.0,0.0,0.0,0.0,0.0,0.0,0.0,-2.506,-2.6781,-2.8205,-2.892,-2.8407,-2.7587,-2.6964,-2.6748,-2.6317,-2.6135,-2.6094,-2.6035,-2.6094,-2.6377,-2.5967,-2.5312,-2.4424,-2.4414,-2.3984,-2.3135,-2.3135,-2.3135,-2.3135,-2.3135,-2.3135,-2.3135,-2.3135,-2.3135,-2.3135,-2.3135,-2.2188,-2.0727,-2.0606,-1.9195,-1.7239,-1.7048,-1.6089,-1.5046,-1.5828,-1.6428,-1.6944,-1.78,-1.8366,-1.8633,-1.8486,-1.8545,-1.8711,-1.8984,-1.917,-1.9287,-1.9287,-1.918,-1.9239,-2.0056,-2.053,-2.1,-2.1765,-2.2565,-2.3005,-2.2763,-2.2406,-2.2105,-2.18,-2.1219,-2.0853,-2.0966,-2.0464,-2.0087,-2.0087,-1.9472,-1.8833,-1.8518,-1.7827,-1.7225,-1.6848,-1.681,-1.6722,-1.6522,-1.6697,-1.6722,-1.6522,-1.6522,-1.6522,-1.6522,-1.6522,-1.6595,-1.6752,0.0,0.0,0.0,0.0,0.0,0.0,0.0,0.0,0.0,0.0,0.0,0.0,0.0,0.0,0.0,0.0,0.0,0.0,0.0,0.0,0.0,0.0,0.0,-2.2723,-2.5206,-2.7741,-2.981,-3.1316,-3.2224,-3.2331,-3.1808,-3.1125,-3.0135,-2.9063,-2.8043,-2.7133,-2.665,-2.6406,-2.6406,-2.5977,-2.5322,-2.4443,-2.4424,-2.3994,-2.3154,-2.3144,-2.3135,-2.3135,-2.3135,-2.3135,-2.3135,-2.3135,-2.3135,-2.3135,-2.3135,-2.3135,-2.2824,-2.0272,-1.8434,-1.7176,-1.5936,-1.5671,-1.6094,-1.7689,-1.8614,-1.907,-1.9688,-1.9932,-1.9853,-1.9453,-1.9609,-1.9932,-1.9932,-2.0244,-2.0634,-2.0547,-2.0234,-2.0236,-2.1665,-2.1588,-2.1308,-2.1912,-2.2579,-2.2823,-2.2063,-2.1939,-2.1969,-2.2247,-2.1593,-2.1163,-2.1481,-2.1041,0.0,-2.0718,-1.9723,-1.8995,-1.8995,-1.8103,-1.7438,-1.7413,-1.74,-1.7149,-1.6559,-1.7049,-1.7099,-1.6547,-1.6522,-1.6522,-1.6522,-1.6522,-1.6752,-1.7271,0.0,0.0,0.0,0.0,0.0,0.0,0.0,0.0,0.0,0.0,0.0,0.0,0.0,0.0,0.0,0.0,0.0,0.0,0.0,0.0,0.0,0.0,-2.6776,-2.6839,-2.8964,-3.112,-3.3118,-3.4086,-3.4587,-3.4573,-3.413,-3.3063,-3.1252,-3.0809,-2.9849,-2.8015,-2.7246,-2.6846,-2.6846,-2.6123,-2.5469,-2.4893,-2.458,-2.4141,-2.3603,-2.3291,-2.3135,-2.3135,-2.3135,-2.3135,-2.3135,-2.3135,-2.3135,-2.3135,-2.3135,-2.3135,-2.3038,-2.228,-2.1237,-2.0043,-1.8795,-1.7613,-1.6941,-1.8523,-1.9141,-1.9399,-2.0119,-2.0391,-2.0361,-2.0254,-2.0293,-2.0391,-2.0391,-2.0469,-2.0498,-2.0176,-2.0,-2.0078,-2.0814,-2.0635,-2.0671,-2.2085,-2.2266,-2.2322,-2.2702,-2.2322,-2.2089,-2.2745,-2.2648,-2.2402,-2.2101,-2.1606,0.0,-2.0769,-2.0037,-1.9585,-1.9585,-1.9321,-1.8819,-1.8041,-1.7978,-1.7564,-1.6572,-1.6672,-1.6685,-1.6522,-1.6522,-1.6522,-1.6522,-1.6522,-1.6552,0.0,0.0,0.0,0.0,0.0,0.0,0.0,0.0,0.0,0.0,0.0,0.0,0.0,0.0,0.0,0.0,0.0,0.0,0.0,0.0,0.0,0.0,-2.8127,-3.0519,-3.1332,-3.2363,-3.3687,-3.5499,-3.583,-3.5694,-3.5104,-3.4728,-3.3577,-3.1195,-3.1015,-3.0229,-2.8378,-2.7656,-2.7207,-2.7021,-2.6367,-2.5713,-2.5078,-2.4814,-2.4473,-2.4043,-2.3613,-2.3408,-2.3408,-2.3223,-2.3135,0.0,-2.3135,-2.3135,-2.3135,-2.3135,-2.3135,0.0,0.0,0.0,0.0,0.0,-1.8305,-1.8078,-1.8523,-1.9263,-1.9986,-2.0479,-2.0566,-2.0566,-2.0566,-2.0566,-2.0566,-2.0566,-2.0566,-2.0508,-2.0254,-2.0185,-2.0335,-2.1021,-2.0822,-2.0705,-2.1598,-2.1974,-2.2127,-2.2099,-2.2249,0.0,-2.3005,-2.2823,-2.2591,-2.2639,-2.2184,-2.1719,-2.1393,-2.0665,-2.0162,-2.0162,-1.9547,-1.8882,-1.8254,-1.799,0.0,0.0,0.0,-1.6773,-1.6522,-1.6522,0.0,0.0,0.0,-1.6595,-1.6837,0.0,0.0,0.0,-1.7076,-1.7353,0.0,0.0,0.0,0.0,0.0,0.0,0.0,0.0,0.0,0.0,0.0,0.0,0.0,0.0,0.0,0.0,-3.1525,-3.3624,-3.5562,-3.5353,-3.5516,-3.6923,-3.6659,-3.587,-3.4483,-3.4385,-3.3266,-3.0525,-3.0317,-2.9713,-2.8398,0.0,0.0,0.0,0.0,-2.5937,-2.5156,-2.5098,-2.4873,-2.4482,-2.4014,-2.3789,-2.3769,-2.334,-2.3135,-2.3135,-2.3135,-2.3135,-2.3135,-2.3135,-2.3135,-2.296,-2.1933,-2.1391,-2.0971,-1.8572,-1.8473,-1.9342,-1.8428,0.0,0.0,-2.0566,-2.0566,-2.0566,-2.0566,-2.0566,-2.0566,-2.0566,-2.0566,-2.0566,-2.0566,-2.0566,-2.0789,-2.1659,-2.1458,-2.1021,-2.0841,-2.1609,-2.1997,-2.1096,-2.2059,-2.3105,-2.3165,-2.2543,-2.2261,-2.3005,-2.2661,-2.2309,-2.2309,-2.1405,-2.0806,-2.0806,0.0,0.0,-1.8317,-1.7852,-1.7262,-1.6559,-1.6999,-1.7049,-1.6534,-1.6522,-1.6522,-1.6522,-1.6522,-1.6791,-1.7293,-1.6791,-1.6833,-1.7376,-1.682,-1.7421,0.0,0.0,0.0,0.0,0.0,0.0,0.0,0.0,0.0,0.0,0.0,0.0,0.0,0.0,0.0,-3.1348,-3.3592,-3.5569,-3.7312,-3.7048,-3.6659,-3.6533,-3.642,-3.587,-3.4483,-3.4385,-3.3266,-3.0525,-3.0317,-2.9713,-2.8398,-2.7559,0.0,-2.7012,-2.6269,-2.5781,-2.5605,-2.5244,-2.5029,-2.4932,0.0,0.0,-2.3769,-2.334,-2.3135,-2.3135,-2.3135,-2.3135,-2.3135,-2.3135,-2.3135,-2.3047,-2.2862,-2.2129,-2.13,-2.104,-2.0503,-1.9913,-2.0024,-2.0312,-2.0566,-2.0566,-2.0566,-2.0566,-2.0566,-2.0566,0.0,-2.0566,-2.0566,-2.0566,-2.0566,-2.0566,-2.0644,-2.0867,-2.052,-2.0322,-2.0948,-2.1066,-2.133,-2.253,-2.2704,-2.2889,-2.3692,-2.3317,-2.2944,-2.3078,-2.2661,-2.2309,-2.2309,-2.1732,-2.133,-2.133,-2.1041,-2.0313,-1.8982,-1.8769,-1.8078,-1.6609,-1.6622,-1.6635,-1.6479,-1.6522,-1.6522,-1.6522,-1.6522,-1.6791,-1.7378,-1.6779,-1.7038,-1.7995,-1.7424,-1.784,0.0,0.0,0.0,0.0,0.0,0.0,0.0,0.0,0.0,0.0,0.0,-2.6554,0.0,0.0,-3.2471,-3.4834,-3.6347,-3.75,-3.8316,-3.7952,-3.75,-3.7211,-3.6096,-3.486,-3.3464,-3.3353,-3.2241,-2.9513,-2.9911,-2.9713,-2.8398,-2.7685,-2.7236,-2.7021,-2.6602,-2.6172,-2.5742,-2.5732,-2.5625,-2.5391,-2.4521,-2.4102,-2.4082,-2.3437,-2.3135,-2.3135,-2.3135,-2.3135,-2.3135,-2.3135,-2.3135,-2.3135,-2.3135,-2.264,-2.187,-2.1542,-2.0819,-2.0066,-2.0335,-2.0226,-2.0104,-2.0983,-2.0928,-2.0605,-2.083,-2.0898,-2.0859,-2.0625,-2.0723,-2.085,-2.0625,-2.0566,-2.0566,-2.0566,-2.04,-2.0328,-2.0541,-2.1105,-2.1848,-2.2503,-2.2995,-2.3389,-2.3929,-2.3514,-2.3078,-2.3078,-2.2899,-2.2723,-2.2723,-2.2246,-2.1794,-2.1518,-2.0978,-2.02,-1.9071,-1.8518,-1.7727,-1.6584,-1.6522,-1.6647,-1.6936,-1.6672,-1.6785,-1.735,-1.681,-1.6936,-1.779,-1.6936,-1.6941,-1.7797,-1.7501,-1.8118,0.0,0.0,0.0,0.0,0.0,0.0,0.0,0.0,-2.4637,-2.6357,-2.8656,-3.1038,-3.3446,-3.4569,-3.5819,-3.7741,-3.8492,-3.8868,-3.8868,-3.8366,-3.8002,-3.8002,-3.6125,-3.4166,-3.2431,-3.2331,-3.1224,-2.8495,-2.9303,-2.9408,-2.8398,-2.7812,-2.7412,-2.7148,-2.6894,-2.6475,-2.5869,-2.6133,-2.6084,-2.5723,-2.4844,-2.4414,-2.4385,-2.3525,-2.3135,-2.3135,-2.3135,-2.3135,-2.3135,-2.3135,-2.3135,-2.3135,-2.3135,-2.293,-2.2532,-2.1549,-2.0775,-2.0135,-2.0147,-1.9913,-1.9696,-2.0983,-2.1109,-2.0742,-2.1025,-2.1172,-2.1143,-2.0693,-2.0889,-2.1133,-2.0684,-2.0566,-2.0566,-2.0566,-2.0566,-2.0469,-2.0117,-2.1197,-2.2308,-2.2265,-2.3022,-2.3688,-2.4092,-2.369,-2.3263,-2.309,-2.3078,-2.3078,-2.3078,-2.2749,-2.2259,-2.1707,-2.074,-1.9823,-1.9033,-1.8116,-1.7338,-1.6873,-1.6848,-1.7061,-1.7526,-1.6986,-1.7162,-1.8191,-1.72,-1.7237,-1.8355,-1.7338,-1.7087,-1.7539,-1.7539,-1.8424,-1.886,-1.9025,-1.9671,-2.167,-2.165,-2.2246,0.0,0.0,-2.8172,-3.0898,-3.2799,-3.4342,-3.5837,-3.6576,-3.719,-3.7902,-3.8492,-3.8868,-3.8868,-3.8366,-3.8002,-3.8002,-3.6927,-3.515,-3.2532,-3.2331,-3.1224,-2.8495,-2.8388,-2.8495,-2.8291,-2.7529,-2.7246,-2.7588,-2.6484,-2.6016,-2.6309,-2.5977,-2.5781,-2.5723,-2.4844,-2.4414,-2.4385,-2.3525,-2.3135,-2.3135,-2.3135,-2.3135,-2.3135,-2.3135,-2.3135,-2.3135,-2.3135,-2.3105,-2.3018,-2.2475,-2.1579,-2.0598,-2.0153,-2.0,-1.9919,-1.9705,-2.0304,-2.1094,-2.0742,-2.0918,-2.1143,-2.0693,-2.0889,-2.1133,-2.0684,-2.0566,-2.0566,-2.0566,-2.0566,-2.0557,-2.0498,-2.072,-2.1369,-2.2992,-2.2677,-2.2659,-2.4384,-2.4268,-2.3728,-2.3153,-2.3078,-2.3078,-2.3078,-2.3075,-2.2836,-2.2284,-2.1669,-2.0677,-1.9108,-1.8468,-1.8091,-1.8016,-1.8016,-1.8041,-1.8116,-1.7576,-1.7576,-1.8191,-1.7601,-1.7827,-1.8883,-1.8317,-1.8041,-1.8116,-1.8116,-1.8806,-2.1279,-2.208,-2.2871,0.0,-2.4492,-2.5498,-2.748,-2.9526,-3.1429,-3.2947,-3.5525,-3.7653,-3.8191,-3.8492,-3.8718,0.0,-3.9195,-3.9245,-3.8906,-3.7468,-3.6259,-3.5721,-3.4186,-3.3288,-3.3505,-3.2039,-3.0721,-2.9513,-2.9513,-2.9102,-2.8291,-2.7725,-2.748,-2.7656,-2.6894,-2.6455,-2.6387,-2.6211,-2.5986,-2.5732,-2.5098,-2.4795,-2.4775,-2.416,-2.375,-2.3516,-2.3516,-2.3379,-2.3135,-2.3135,-2.3135,-2.3135,-2.3135,-2.3135,-2.3115,-2.2939,-2.2061,-2.1119,-2.1671,-2.1031,-2.0129,-2.0904,-2.1039,-2.0859,-2.0937,-2.126,-2.1523,-2.1074,-2.1455,-2.1826,-2.1133,-2.0957,-2.0889,-2.0625,-2.0566,-2.0566,-2.0566,-2.1001,-2.1821,-2.322,-2.3393,-2.3682,-2.5062,-2.4833,-2.4393,-2.4155,-2.3841,-2.3514,-2.3175,-2.3078,-2.2799,-2.1933,-2.1343,-2.0476,-1.9145,-1.8819,-1.8543,-1.8229,-1.8204,-1.8355,-1.8668,-1.8154,-1.8254,-1.912,-1.8292,-1.8392,-1.9472,-1.8618,-1.8204,-1.8216,-1.853,-1.9178,-2.2685,-2.3906,0.0,-2.5342,-2.665,-2.79,-2.8135,-3.1011,-3.3701,-3.377,-3.6835,-3.9356,-3.8918,-3.9116,-3.9283,-3.9433,-3.9471,-3.932,-3.8931,-3.6858,-3.505,-3.3983,-3.1727,-3.106,-3.306,-3.1562,-3.0391,-3.0118,-3.0129,-2.9579,-2.8388,-2.7891,-2.7715,-2.7832,-2.7305,-2.6865,-2.6562,-2.6445,-2.6172,-2.5732,-2.5283,-2.5068,-2.5049,-2.4619,-2.4189,-2.3789,-2.3789,-2.3545,-2.3135,-2.3135,-2.3135,-2.3135,-2.3135,-2.3135,-2.3135,-2.3135,-2.2129,-2.0935,-2.2217,-2.1379,-2.011,-2.1419,-2.1511,-2.1113,-2.1211,-2.1621,-2.1973,-2.1533,-2.1943,-2.2344,-2.1602,-2.1328,-2.1182,-2.0977,-2.084,-2.0752,-2.0752,-2.1268,-2.2043,-2.2957,-2.3492,-2.407,-2.505,-2.5087,-2.4933,-2.4644,-2.4381,-2.4017,-2.3439,-2.3226,-2.2711,-2.1606,-2.1129,-2.0439,-1.9334,-1.9246,-1.907,-1.8668,-1.8643,-1.8832,-1.9221,-1.8719,-1.8869,-1.9786,-1.8894,-1.8882,-1.9798,-1.902,-1.8581,-1.8442,-1.8844,-1.9409,-2.2412,0.0,-2.4746,-2.6025,-2.7314,-2.8486,-2.9326,-3.2106,-3.4314,-3.338,-3.6189,-3.8463,-3.704,-3.7461,-3.8241,-3.8806,-3.8894,-3.8894,-3.8868,-3.6858,-3.505,-3.3983,-3.0655,-2.9052,0.0,-3.0735,-3.0536,-2.9614,-2.9555,-2.9147,-2.8378,-2.7891,-2.7851,-2.8262,-2.7461,-2.7012,-2.6992,-2.6592,-2.6172,-2.5732,-2.5283,-2.5068,-2.5049,-2.4619,-2.4189,-2.3789,-2.3789,-2.3545,-2.3135,-2.3135,-2.3135,-2.3135,-2.3135,-2.3135,-2.3135,-2.3135,-2.1587,-1.9761,-2.0935,-2.0558,-1.9611,-1.9945,-2.1165,-2.2295,-2.1484,-2.1826,-2.2402,-2.1982,-2.2178,-2.2412,-2.1982,-2.1553,-2.1338,-2.1748,-2.1523,-2.1211,-2.1211,-2.1211,-2.1382,-2.197,-2.2386,-2.3069,-2.4082,-2.497,-2.5222,-2.418,-2.4469,-2.4594,-2.4042,-2.3477,-2.2711,-2.1606,-2.1481,-2.1004,-1.9874,-1.9773,-1.9773,-1.9748,-1.9748,-1.9761,-1.9773,-1.9284,-1.9258,-1.9798,-1.9284,-1.9271,-1.9798,-1.9773,-1.9497,-1.8958,-1.897,-1.9387,-2.3857,0.0,-2.6816,-2.7812,-2.8818,-2.9717,-3.0312,-3.2313,-3.3829,-3.2812,-3.4285,-3.5442,-3.422,-3.41,-3.4528,-3.588,-3.6673,-3.7216,-3.7703,-3.67,-3.5182,-3.2978,-3.1198,0.0,0.0,0.0,0.0,-2.9583,-2.885,-2.8346,-2.8271,-2.8154,-2.8144,-2.8291,-2.7744,-2.7305,-2.7012,-2.6602,-2.6172,-2.5742,-2.5586,-2.5518,-2.5508,-2.5361,-2.5049,-2.4619,-2.4326,-2.3965,-2.3545,-2.3262,-2.3135,-2.3135,-2.3135,-2.3135,-2.3135,-2.3135,-2.2041,-2.0845,-2.212,-2.2048,-2.1516,-2.1589,-2.1851,-2.2041,-2.1758,-2.206,-2.248,-2.2344,-2.2607,-2.2832,-2.2412,-2.2197,-2.2051,-2.1924,-2.1777,-2.167,-2.167,-2.1445,-2.1411,-2.2299,-2.2863,-2.3568,-2.4531,-2.5534,-2.5799,-2.4707,-2.4067,-2.364,-2.3452,-2.2937,-2.2297,-2.1568,-2.1154,-2.0627,-1.9874,-1.9798,-1.9798,-1.9798,-1.9798,-1.9798,-1.9798,-1.9635,-1.9623,-1.9798,-1.9623,-1.9623,-1.9798,-1.9798,-1.9535,-1.8983,-1.9384,-1.9683,-2.5488,-2.6924,-2.8125,-2.9121,-2.9912,-3.0518,-3.082,-3.2194,-3.2891,-3.1429,-3.2187,-3.2701,-3.1406,-3.0813,-3.1367,-3.3779,-3.4438,-3.526,-3.6989,-3.6125,-3.4664,-3.2966,-3.1575,-3.0705,0.0,0.0,0.0,-2.9685,-2.9356,-2.8776,-2.8163,-2.8724,-2.8804,-2.8291,-2.8027,-2.7685,-2.7246,-2.6826,-2.6318,-2.5742,-2.5742,-2.5742,-2.5742,-2.5742,-2.5488,-2.5039,-2.4609,-2.418,-2.375,-2.332,-2.3135,-2.3135,-2.3135,-2.3135,-2.3135,-2.3135,-2.2589,-2.2031,-2.2862,-2.2689,-2.2073,-2.2388,-2.2432,-2.2305,-2.2158,-2.2402,-2.2734,-2.2734,-2.293,-2.3076,-2.2812,-2.2627,-2.248,-2.2363,-2.2217,-2.2109,-2.2109,-2.1894,-2.1755,-2.2117,-2.2719,-2.3505,-2.4299,-2.5411,-2.585,-2.4958,-2.4029,-2.3364,-2.3103,-2.2824,-2.2322,-2.1568,-2.1167,-2.0639,-1.9874,-1.9987,-2.0024,-1.9811,-1.9987,-2.0012,-1.9811,-1.9798,-1.9798,-1.9798,-1.9798,-1.9798,-1.9798,-1.9798,-1.9623,-1.9309,-1.9648,-1.9952,-2.7178,-2.8096,-2.875,-2.999,-3.0615,-3.0918,-3.0869,-3.1582,-3.1588,-2.9263,-2.981,-3.0219,0.0,0.0,-2.8683,-3.221,-3.2196,-3.3076,-3.6605,-3.5355,-3.4054,0.0,0.0,0.0,0.0,0.0,0.0,-3.0158,0.0,-3.0432,-2.7999,-2.9382,-2.9713,-2.8388,-2.8291,-2.8096,-2.7666,-2.7207,-2.6572,-2.5771,-2.5742,-2.5732,-2.5742,-2.5732,-2.5594,-2.5078,-2.4639,-2.4228,-2.3828,-2.3389,-2.3193,-2.3174,-2.3174,-2.3154,-2.3135,-2.3135,-2.3135,-2.3135,-2.3135,-2.2306,-2.1505,-2.2313,-2.2812,-2.3066,-2.2666,-2.2822,-2.3135,-2.3135,-2.3135,-2.3135,-2.3135,-2.2842,-2.2646,-2.3047,-2.2832,-2.2549,-2.2549,-2.2529,-2.2275,-2.1455,-2.2086,-2.2958,-2.3457,-2.4704,-2.5448,-2.4908,-2.4381,-2.3816,-2.3153,-2.3053,-2.2686,-2.1644,-2.1481,-2.1004,-1.9936,-2.0351,-2.0413,-1.9836,-2.0351,-2.0401,-1.9823,-1.9798,-1.9798,-1.9798,-1.9798,-1.9798,-1.9798,-1.9798,-1.9798,-1.9798,-1.9798,-2.0156,-2.8584,-2.9873,-3.085,-3.1504,-3.1514,-3.1182,-3.0527,-3.0112,-2.9144,-2.7016,-2.6054,-2.5239,0.0,0.0,0.0,-2.7687,-3.0385,0.0,-3.5316,-3.7169,0.0,-3.65,0.0,-3.5108,-3.4311,-3.3267,0.0,0.0,-3.1848,-3.1074,-2.9725,-3.0057,-3.011,-2.9817,-2.8804,-2.8096,-2.7666,-2.6924,-2.6435,-2.6221,-2.682,-2.6668,-2.5732,-2.6668,-2.6502,-2.5537,-2.5098,-2.4844,-2.4707,-2.4268,-2.3906,-2.3623,-2.3623,-2.3428,-2.3135,-2.3135,-2.3135,-2.3135,-2.3135,-2.2862,-2.2658,-2.2921,-2.3057,-2.3115,-2.3018,-2.3057,-2.3135,-2.3135,-2.3135,-2.3135,-2.3135,-2.3057,-2.3008,-2.3115,-2.3057,-2.2978,-2.2978,-2.2734,-2.2451,-2.2227,-2.3064,-2.3958,-2.4502,-2.5542,-2.5912,-2.4971,-2.4695,-2.4255,-2.3203,-2.2774,-2.241,-2.2133,-2.1368,-2.0819,-2.0517,-2.063,-2.0413,-1.9836,-2.0351,-2.0401,-1.9823,-1.9798,-1.9798,-1.9798,-1.9798,-1.9798,-1.9798,-1.9798,-1.9798,-1.9798,-1.9798,-2.0156,-3.0244,-3.1377,-3.2139,-3.2383,-3.1973,-3.1191,-2.9922,-2.8828,-2.7363,-2.4844,-2.3594,0.0,-2.126,0.0,0.0,0.0,0.0,0.0,-3.5175,-3.6911,-3.7789,0.0,-3.7123,0.0,-3.5968,-3.5199,-3.4389,0.0,-3.3177,-3.2072,-3.0116,-3.0707,-3.0618,-2.9513,-2.8698,-2.8096,-2.7666,-2.7002,-2.6572,-2.6387,-2.7256,-2.722,-2.6572,-2.7861,-2.8038,-2.7274,0.0,-2.5886,-2.5845,-2.4661,-2.4004,-2.3769,-2.3574,-2.335,-2.3135,-2.3135,-2.3135,-2.3135,-2.3135,-2.3135,-2.3135,-2.3135,-2.3135,-2.3105,-2.292,-2.2988,-2.3096,-2.292,-2.2998,-2.3135,-2.3135,-2.3135,-2.3135,-2.3135,-2.3135,-2.3135,-2.3135,-2.2949,-2.2676,-2.2305,-2.3324,-2.4258,-2.4357,-2.5569,-2.6163,-2.5297,-2.5159,-2.4858,-2.3991,-2.3175,-2.2585,-2.2334,-2.1757,-2.1192,-2.0756,-2.0945,-2.0677,-1.9849,-2.0351,-2.0401,-1.9823,-1.9798,-1.9798,-1.9798,-1.9798,-1.9798,-1.9798,-1.9798,-1.9798,-1.9798,-1.9798,-2.0283,-3.1875,-3.2685,-3.3037,-3.2978,-3.2236,-3.1045,-2.9248,-2.761,-2.5615,-2.2611,0.0,-2.0905,-1.9645,-1.9594,-2.111,-2.544,0.0,-2.9439,-3.5014,-3.56,-3.6043,-3.7814,-3.7098,-3.6471,-3.6471,-3.6408,-3.5966,-3.4775,-3.4678,-3.3279,-3.0248,-3.1504,-3.1019,-2.8398,-2.8291,-2.8115,-2.7754,-2.7452,-2.7019,-2.6465,-2.7554,-2.7955,-2.7683,-2.905,-2.959,-2.9293,0.0,0.0,-2.6825,-2.5068,-2.4156,-2.3838,-2.3457,-2.3242,-2.3135,-2.3135,-2.3135,-2.3135,-2.3135,-2.3135,-2.3135,-2.3135,-2.3096,-2.2998,-2.2685,-2.2812,-2.2988,-2.2685,-2.2861,-2.3135,-2.3135,-2.3135,-2.3135,-2.3135,-2.3135,-2.3135,-2.3135,-2.3135,-2.291,-2.2119,-2.3133,-2.406,-2.3642,-2.5159,-2.6202,-2.5699,-2.5598,-2.5385,-2.4795,-2.3853,-2.3062,-2.2585,-2.2397,-2.1895,-2.092,-2.1217,-2.1004,-1.9874,-2.0351,-2.0401,-1.9823,-1.9798,-1.9798,-1.9798,-1.9798,-1.9798,-1.9798,-1.9798,-1.9798,-1.9798,-1.9798,-2.0471,-3.2832,-3.3769,-3.4287,-3.3935,-3.2676,-3.0967,-2.8877,-2.5948,0.0,0.0,-1.8665,-1.7724,-1.6895,-1.7862,-1.9708,-2.2291,0.0,0.0,0.0,0.0,-3.5648,0.0,0.0,0.0,0.0,0.0,0.0,0.0,0.0,-3.4812,-3.2018,-3.2185,-3.1019,-2.8398,-2.8291,-2.8262,-2.8184,-2.838,-2.7935,-2.6894,-2.9366,-2.9498,-2.7683,-2.9852,-3.0316,-2.9396,-2.9134,0.0,-2.7453,-2.7108,-2.5868,-2.4307,-2.4228,-2.376,-2.3135,-2.3135,-2.3135,-2.3135,-2.3135,-2.3135,-2.3135,-2.3135,-2.291,-2.2676,-2.2949,-2.2832,-2.2676,-2.2949,-2.3086,-2.3135,-2.3135,-2.3135,-2.3135,-2.3135,-2.3135,-2.3135,-2.3135,-2.3135,-2.2988,-2.25,-2.3308,-2.4025,-2.4071,-2.5036,-2.5743,-2.5602,-2.5598,-2.5247,-2.4268,-2.3966,-2.3816,-2.3715,-2.2874,-2.2046,-2.1393,-2.143,-2.1004,-1.9874,-2.0351,-2.0401,-1.9823,-1.9798,-1.9798,-1.9798,-1.9798,-1.9798,-1.9798,-1.9798,-1.9798,-1.9798,-1.9798,-2.0471,-3.3418,-3.4394,-3.4902,-3.4238,-3.2617,-3.0449,-2.7607,0.0,0.0,0.0,-1.6599,-1.5894,-1.5512,-1.6671,0.0,0.0,0.0,0.0,0.0,0.0,0.0,0.0,0.0,0.0,0.0,0.0,0.0,0.0,0.0,-3.5559,-3.3453,-3.2039,-3.0317,-2.8398,-2.8291,-2.8493,-2.8968,-2.9125,-2.9058,-2.8575,-3.0663,-3.0854,-2.9498,-3.1323,-3.1877,-3.1323,-3.0586,0.0,-2.9385,-2.7864,-2.6599,-2.5604,-2.4532,-2.3838,-2.3447,-2.3223,-2.3135,-2.3135,-2.3135,-2.3135,-2.3135,-2.3135,-2.2998,-2.2832,-2.2822,-2.2822,-2.2832,-2.2822,-2.2969,-2.3135,-2.3135,-2.3135,-2.3135,-2.3135,-2.3135,-2.3135,-2.3135,-2.3135,-2.2949,-2.2314,-2.297,-2.3695,-2.3816,-2.4622,-2.5492,-2.5977,-2.605,-2.5862,-2.5347,-2.4782,-2.4205,-2.3615,-2.3062,-2.2397,-2.1556,-2.1493,-2.1004,-1.9874,-2.0062,-2.0087,-1.9811,-1.9798,-1.9798,-1.9798,-1.9798,-1.9798,-1.9798,-1.9798,-1.9798,-1.9798,-1.9798,-2.0471,-3.3584,-3.458,-3.5039,-3.415,-3.2256,-2.9756,-2.6484,-2.274,0.0,0.0,-1.5026,-1.4405,-1.4603,-1.5575,-1.7279,0.0,-2.1047,0.0,0.0,0.0,0.0,0.0,0.0,0.0,0.0,0.0,0.0,0.0,0.0,0.0,-3.4483,-3.1836,-2.9817,-2.8804,-2.8608,-2.8894,-2.9534,-2.9928,-3.0133,-3.0019,-3.1525,-3.192,-3.1223,-3.2513,-3.3081,-3.3068,-3.2052,0.0,0.0,-2.8448,-2.7183,-2.6574,-2.4625,-2.3809,-2.3603,-2.3262,-2.3135,-2.3135,-2.3135,-2.3135,-2.3135,-2.3135,-2.3076,-2.2939,-2.2617,-2.2676,-2.2822,-2.2578,-2.2754,-2.3027,-2.3115,-2.3135,-2.3135,-2.3135,-2.3135,-2.3135,-2.3135,-2.3135,-2.2939,-2.2285,-2.2694,-2.3297,-2.3685,-2.4349,-2.5207,-2.6327,-2.6533,-2.6483,-2.6289,-2.5423,-2.4431,-2.3427,-2.3153,-2.2736,-2.1744,-2.1556,-2.1054,-2.0049,-1.9874,-1.9798,-1.9798,-1.9798,-1.9798,-1.9798,-1.9798,-1.9798,-1.9798,-1.9798,-1.9798,-1.9798,-1.9798,-2.0421,-3.3135,-3.4111,-3.456,-3.3691,-3.1572,-2.8994,-2.6338,0.0,0.0,-1.5418,-1.3619,-1.2706,-1.3545,-1.4451,-1.5928,-1.8418,0.0,-2.137,0.0,0.0,0.0,0.0,0.0,0.0,0.0,0.0,0.0,0.0,0.0,0.0,-3.4483,-3.1836,-3.0214,-3.012,-2.9611,-2.9474,-2.9534,-3.1004,-3.1159,-3.0019,-3.2079,-3.2376,-3.1223,-3.2513,-3.3081,-3.3068,-3.2982,0.0,0.0,-2.9716,-2.8091,-2.6235,-2.4824,-2.3887,-2.3193,-2.3154,-2.3135,-2.3135,-2.3135,-2.3135,-2.3135,-2.3135,-2.2881,-2.2568,-2.2519,-2.2275,-2.207,-2.2412,-2.2539,-2.2656,-2.3047,-2.3135,-2.3135,-2.3135,-2.3135,-2.3135,-2.3135,-2.3135,-2.3115,-2.3037,-2.2791,-2.3018,-2.448,-2.4489,-2.4796,-2.6308,-2.6533,-2.6264,-2.5737,-2.5172,-2.4594,-2.3991,-2.3452,-2.2887,-2.2284,-2.1782,-2.123,-2.0668,-2.0087,-1.9798,-1.9798,-1.9798,-1.9798,-1.9798,-1.9798,-1.9798,-1.9798,-1.9798,-1.9798,-1.9798,-1.9798,-2.0194,-3.1787,-3.3281,-3.4111,-3.3262,-3.0908,-2.8009,-2.483,0.0,-1.6253,-1.4106,-1.2372,-1.1665,-1.2967,-1.3532,-1.4489,-1.6732,0.0,0.0,0.0,0.0,0.0,0.0,0.0,0.0,0.0,0.0,0.0,0.0,0.0,0.0,-3.5667,-3.3761,-3.2208,-3.1105,-3.0819,-3.0833,-3.0909,-3.1868,-3.2174,-3.1913,-3.3045,-3.3121,-3.2339,-3.2884,-3.3081,-3.3081,-3.3081,0.0,0.0,-3.0676,-2.9353,-2.7542,-2.6107,-2.5094,-2.4348,-2.3398,-2.3135,-2.3135,-2.3135,-2.3135,-2.3135,-2.3135,-2.3027,-2.2891,-2.2891,-2.2598,-2.2353,-2.2773,-2.2705,-2.2607,-2.3027,-2.3135,-2.3135,-2.3135,-2.3135,-2.3135,-2.3135,-2.2939,-2.2685,-2.2432,-2.2041,-2.2221,-2.3732,-2.3865,-2.4411,-2.6201,-2.6533,-2.6445,-2.6151,-2.5636,-2.5084,-2.4556,-2.3678,-2.2852,-2.2359,-2.2108,-2.1606,-2.0769,-2.0451,-2.0162,-1.9823,-1.9798,-1.9798,-1.9798,-1.9798,-1.9798,-1.9798,-1.9798,-1.9798,-1.9798,-1.9798,-2.0156,-2.9795,-3.1533,-3.2598,-3.1992,-2.9766,-2.6865,0.0,0.0,-1.5673,-1.3648,-1.2056,-1.1476,-1.3061,-1.3364,-1.3978,-1.5805,0.0,-1.7189,-2.0525,0.0,0.0,0.0,0.0,0.0,0.0,0.0,0.0,0.0,0.0,0.0,0.0,-3.5463,-3.4195,-3.243,-3.2173,-3.208,-3.2153,-3.2747,-3.3057,-3.3081,-3.347,-3.3458,-3.3081,-3.3081,-3.3081,-3.3081,0.0,0.0,0.0,-3.1223,-3.0194,-2.8533,-2.7236,-2.6243,-2.5263,-2.4048,-2.3387,-2.3135,-2.3135,-2.3135,-2.3135,-2.3135,-2.3135,-2.3135,-2.3135,-2.2754,-2.2412,-2.2832,-2.2832,-2.2764,-2.3066,-2.3135,-2.3135,-2.3135,-2.3047,-2.2949,-2.2949,-2.2627,-2.2275,-2.21,-2.1621,-2.1778,-2.3534,-2.3631,-2.4181,-2.6233,-2.6533,-2.6533,-2.6533,-2.595,-2.5398,-2.487,-2.3966,-2.3163,-2.2598,-2.2397,-2.1983,-2.1204,-2.0907,-2.0489,-2.0075,-1.9899,-1.9798,-1.9798,-1.9798,-1.9798,-1.9798,-1.9798,-1.9798,-1.9798,-2.0003,-2.0534,-2.7119,-2.8643,-2.9619,-2.9609,-2.7988,-2.5635,0.0,-1.8842,-1.5816,-1.4371,-1.2869,-1.2258,-1.3906,-1.4213,-1.4579,-1.5865,-1.6797,0.0,-2.0555,0.0,0.0,0.0,0.0,0.0,0.0,0.0,0.0,0.0,0.0,0.0,0.0,-3.6358,-3.5763,-3.4374,-3.3754,-3.3221,-3.2699,-3.351,-3.3621,-3.3081,-3.3081,-3.3081,-3.3081,-3.3081,-3.3081,0.0,0.0,0.0,0.0,-3.1223,-3.0295,-2.8734,-2.813,-2.6933,-2.5504,-2.4955,-2.4049,-2.3135,-2.3135,-2.3135,-2.3135,-2.3135,-2.3135,-2.3135,-2.3135,-2.2559,-2.1982,-2.2402,-2.2812,-2.3135,-2.3135,-2.3135,-2.3135,-2.3135,-2.2822,-2.2519,-2.2519,-2.2187,-2.2012,-2.2432,-2.1816,-2.197,-2.4346,-2.4089,-2.4181,-2.6233,-2.6533,-2.6533,-2.6533,-2.595,-2.5398,-2.487,-2.4318,-2.3753,-2.3115,-2.2623,-2.2309,-2.2297,-2.1267,-2.0718,-2.0706,-2.0112,-1.9798,-1.9798,-1.9798,-1.9798,-1.9798,-1.9798,-1.9798,-1.9811,-2.0497,-2.1465,-2.1633,-2.307,-2.3996,-2.3996,-2.2592,-2.0656,-1.8388,-1.5912,-1.3818,-1.2979,-1.2261,-1.2135,-1.3183,-1.3855,-1.455,-1.5538,-1.6661,0.0,0.0,0.0,0.0,0.0,0.0,0.0,0.0,0.0,0.0,0.0,0.0,0.0,0.0,-3.5805,-3.5606,-3.5125,-3.4595,-3.404,-3.351,-3.3421,-3.3257,-3.3081,-3.3081,-3.3081,-3.3081,-3.3081,0.0,0.0,0.0,0.0,0.0,-3.1333,-3.058,-2.9258,-2.8818,-2.7626,-2.6089,-2.5179,-2.4049,-2.3135,-2.3135,-2.3135,-2.3135,-2.3135,-2.3135,-2.3135,-2.3135,-2.2754,-2.2344,-2.2471,-2.2812,-2.3135,-2.3135,-2.3135,-2.3135,-2.3135,-2.3037,-2.2861,-2.2578,-2.2412,-2.2178,-2.1728,-2.1426,-2.1879,-2.4073,-2.3951,-2.4296,-2.6661,-2.6703,-2.6533,-2.6533,-2.6302,-2.5963,-2.541,-2.4883,-2.418,-2.3153,-2.2915,-2.2711,-2.2334,-2.1631,-2.1054,-2.0743,-2.0112,-1.9798,-1.9798,-1.9798,-1.9798,-1.9798,-1.9798,-1.9798,-1.9811,-2.0497,-2.1042,0.0,-1.9178,-2.007,-2.0219,-1.926,0.0,-1.583,-1.4244,-1.3002,-1.2713,-1.2437,-1.2565,-1.3726,-1.4323,-1.4911,-1.5635,-1.6507,0.0,0.0,0.0,0.0,0.0,0.0,0.0,0.0,0.0,0.0,0.0,0.0,0.0,0.0,-3.5353,-3.524,-3.524,-3.4901,-3.4462,-3.3909,-3.3558,-3.3282,-3.3081,-3.3081,-3.3081,-3.3068,-3.2855,0.0,0.0,0.0,0.0,0.0,-3.124,-3.0692,-2.9618,-2.96,-2.869,-2.7215,-2.5946,-2.4713,-2.3714,-2.3212,-2.3135,-2.3135,-2.3135,-2.3135,-2.3135,-2.3135,-2.2959,-2.2715,-2.2559,-2.2812,-2.3135,-2.3135,-2.3135,-2.3135,-2.3135,-2.2891,-2.2598,-2.2334,-2.2012,-2.167,-2.1309,-2.1094,-2.1628,-2.3852,-2.385,-2.4284,-2.6623,-2.6678,-2.6533,-2.6533,-2.6533,-2.6239,-2.5649,-2.5134,-2.4456,-2.354,-2.3203,-2.2987,-2.2636,-2.2108,-2.1644,-2.1305,-2.0539,-2.0125,-2.0125,-1.9911,-1.9798,-1.9798,-1.9798,-2.0042,-2.0521,-2.0696,-2.1042,0.0,-1.6646,-1.7303,0.0,0.0,0.0,-1.445,-1.3401,0.0,-1.3243,-1.312,-1.3468,-1.5079,-1.54,-1.5625,-1.6091,-1.6558,0.0,0.0,0.0,0.0,0.0,0.0,0.0,0.0,0.0,0.0,0.0,0.0,0.0,0.0,-3.4939,-3.465,-3.4613,-3.4562,-3.4336,-3.3909,-3.3859,-3.3583,-3.3081,-3.3081,-3.3081,-3.3056,-3.2516,0.0,0.0,0.0,0.0,0.0,-3.11,-3.063,-2.9774,-3.0357,-2.988,-2.8727,-2.7147,-2.5797,-2.4628,-2.3551,-2.3135,-2.3135,-2.3135,-2.3135,-2.3135,-2.3135,-2.3135,-2.3057,-2.2666,-2.2832,-2.3135,-2.3135,-2.3115,-2.3096,-2.3096,-2.248,-2.1875,-2.1846,-2.1221,-2.0762,-2.1123,-2.0879,-2.1413,-2.3732,-2.381,-2.4238,-2.6144,-2.6515,-2.6571,-2.6533,-2.6533,-2.6319,-2.5711,-2.5197,-2.4657,-2.4104,-2.3489,-2.3078,-2.3078,-2.2623,-2.2309,-2.2309,-2.1255,-2.0718,-2.0718,-2.0137,-1.9861,-1.9861,-1.9913,-2.051,-2.1602,-2.1113,-2.1513,-1.2344,0.0,-1.222,-1.1811,-1.1655,-1.1413,0.0,-1.0606,-1.0833,-1.201,-1.2514,-1.3186,-1.4739,-1.5537,-1.6181,-1.6971,-1.797,0.0,0.0,0.0,0.0,0.0,0.0,0.0,0.0,0.0,0.0,0.0,0.0,0.0,0.0,-3.4161,-3.3897,-3.3483,-3.3031,-3.3156,-3.3884,-3.3483,-3.3206,-3.3081,-3.3081,-3.3081,-3.3068,-3.293,0.0,0.0,0.0,0.0,-3.1658,-3.0653,-3.0486,-3.0947,-3.0265,-2.9548,-2.8809,-2.8032,-2.6438,-2.4787,-2.4457,-2.379,-2.3135,-2.3135,-2.3135,-2.3135,-2.3135,-2.3135,-2.3115,-2.3018,-2.3066,-2.3135,-2.3135,-2.29,-2.2656,-2.2656,-2.2266,-2.1797,-2.1455,-2.1484,-2.1406,-2.083,-2.0918,-2.1491,-2.2953,-2.371,-2.4522,-2.5793,-2.6618,-2.6929,-2.6584,-2.6533,-2.6483,-2.6264,-2.5749,-2.5197,-2.4669,-2.3715,-2.3078,-2.3078,-2.2623,-2.2309,-2.2309,-2.1255,-2.0718,-2.0718,-2.0539,-2.0517,-2.0517,-2.0952,-2.113,-2.1028,-2.1342,-2.1663,-1.1678,-1.1576,-1.1487,-1.109,-1.1144,-1.1256,-1.1316,-1.1144,-1.1264,-1.2442,0.0,0.0,0.0,-1.5677,-1.6495,0.0,-1.8543,0.0,0.0,0.0,0.0,0.0,0.0,0.0,0.0,0.0,0.0,0.0,0.0,0.0,0.0,-3.3658,-3.3257,-3.2692,-3.2378,-3.2503,-3.3119,-3.2579,-3.2428,-3.2679,-3.2428,-3.2428,-3.2667,-3.2416,-3.2303,0.0,0.0,0.0,-3.1386,-3.0256,-3.0131,-3.0595,-3.0018,-2.963,-2.9248,-2.8363,-2.7348,-2.6273,-2.5714,-2.4798,-2.38,-2.3299,-2.3135,-2.3105,-2.291,-2.2988,-2.3135,-2.3135,-2.3135,-2.3096,-2.29,-2.2685,-2.2461,-2.2275,-2.1894,-2.1523,-2.1289,-2.1416,-2.1387,-2.0693,-2.0928,-2.1471,-2.2303,-2.3504,-2.455,-2.5288,-2.6513,-2.708,-2.6596,-2.6533,-2.6533,-2.6533,-2.5937,-2.5385,-2.487,-2.4029,-2.3414,-2.309,-2.2862,-2.2686,-2.2686,-2.187,-2.1179,-2.0731,-2.0718,-2.0739,-2.0733,-2.0759,-2.0948,-2.121,-2.1245,-2.1424,-1.2529,-1.2923,-1.3322,-1.2587,-1.268,-1.297,-1.3032,0.0,0.0,0.0,0.0,0.0,0.0,-1.6246,0.0,0.0,0.0,0.0,0.0,0.0,0.0,0.0,0.0,0.0,0.0,0.0,0.0,0.0,0.0,0.0,0.0,-3.3206,-3.2679,-3.2102,-3.2014,-3.1976,-3.1976,-3.1587,-3.1625,-3.2077,-3.17,-3.1763,-3.219,-3.1725,-3.1512,0.0,0.0,0.0,-3.057,-3.0018,-2.9842,-2.9905,-2.9829,-2.9842,-2.9827,-2.8712,-2.8255,-2.7924,-2.6625,-2.563,-2.4617,-2.3464,-2.3135,-2.3076,-2.2715,-2.2812,-2.3047,-2.3047,-2.3047,-2.2959,-2.2607,-2.2412,-2.2227,-2.1865,-2.1455,-2.1133,-2.1133,-2.1133,-2.1025,-2.0635,-2.0869,-2.1313,-2.1883,-2.3242,-2.4459,-2.4933,-2.634,-2.708,-2.6596,-2.6533,-2.6533,-2.6533,-2.6013,-2.5511,-2.4983,-2.4519,-2.3966,-2.3314,-2.3128,-2.3027,-2.2952,-2.256,-2.1927,-2.1145,-2.112,-2.1145,-2.1223,-2.0655,-2.0891,-2.1852,-2.1307,-2.1458,-1.4858,-1.6221,-1.6648,-1.2643,-1.2276,-1.2705,-1.2337,-1.222,0.0,0.0,0.0,0.0,0.0,-1.8216,0.0,0.0,0.0,0.0,0.0,0.0,0.0,0.0,0.0,0.0,0.0,0.0,0.0,0.0,0.0,0.0,0.0,0.0,-3.2089,-3.1537,-3.1085,-3.0859,-3.0859,-3.121,-3.1436,-3.1524,-3.1901,-3.2127,-3.2215,-3.2127,-3.2089,0.0,0.0,-3.062,-3.057,-3.0018,-3.0068,-3.0444,-2.998,-3.008,-3.0432,-2.9786,-2.8937,-2.7844,-2.5786,-2.4957,-2.4617,-2.3464,-2.3135,-2.3125,-2.3066,-2.2832,-2.2607,-2.2607,-2.2607,-2.2598,-2.2529,-2.1973,-2.1416,-2.1348,-2.0996,-2.0664,-2.0664,-2.0664,-2.0644,-2.0576,-2.0625,-2.0936,-2.1821,-2.3242,-2.4459,-2.4933,-2.634,-2.708,-2.6596,-2.6533,-2.6533,-2.6533,-2.6445,-2.6101,-2.5523,-2.5398,-2.4921,-2.3929,-2.3401,-2.2924,-2.246,-2.2347,-2.2496,-2.2965,-2.3021,-2.3057,-2.3159,-2.3057,-2.2859,-2.2543,-2.2452,-2.3028,-1.4978,-1.6098,-1.6708,-1.4932,-1.5598,-1.6605,-1.5994,-1.576,0.0,0.0,0.0,0.0,0.0,0.0,0.0,0.0,0.0,0.0,0.0,0.0,0.0,0.0,0.0,0.0,0.0,0.0,0.0,0.0,0.0,0.0,0.0,0.0,-3.1524,-3.0984,-3.0733,-3.047,-3.0168,-3.0407,-3.0683,-3.0972,-3.0922,-3.106,-3.1348,-3.1348,-3.1185,-3.0896,0.0,-3.0444,-3.0156,-2.9892,-2.9942,-3.0143,-2.9892,-2.9942,-3.0143,-2.988,-2.9456,-2.8779,-2.7186,-2.6603,-2.6273,-2.4542,-2.4049,-2.3836,-2.3034,-2.2822,-2.2754,-2.2305,-2.2178,-2.2119,-2.1885,-2.1533,-2.1172,-2.0928,-2.0713,-2.0566,-2.0566,-2.0752,-2.0859,-2.0605,-2.0762,-2.1144,-2.1852,-2.3242,-2.4459,-2.4933,-2.634,-2.708,-2.6596,-2.6533,-2.6533,-2.6533,-2.6189,-2.5774,-2.5222,-2.4908,-2.4519,-2.4029,-2.3452,-2.2965,-2.2761,-2.2761,-2.2936,-2.3382,-2.3382,-2.3474,-2.3639,-2.3292,-2.2769,-2.2146,-2.2146,-2.2686,-1.5302,-1.598,-1.6818,-1.7196,-1.8281,-1.9298,-1.9452,-1.9143,0.0,0.0,0.0,0.0,0.0,0.0,0.0,0.0,0.0,0.0,0.0,0.0,0.0,0.0,0.0,0.0,0.0,0.0,0.0,0.0,0.0,0.0,0.0,0.0,-3.0972,-3.0444,-3.0419,-3.0218,-2.9792,-2.9792,-3.0005,-3.0419,-3.0118,-3.0206,-3.062,-3.062,-3.0382,-2.9993,-3.0294,-3.0181,-2.9792,-2.9792,-2.9792,-2.9792,-2.9792,-2.9792,-2.9792,-2.9792,-2.9792,-2.9624,-2.8518,-2.8096,-2.7763,-2.5535,-2.4787,-2.4555,-2.3077,-2.2744,-2.2715,-2.207,-2.1738,-2.1523,-2.1299,-2.1152,-2.0986,-2.0644,-2.0566,-2.0566,-2.0566,-2.0977,-2.1273,-2.1003,-2.1369,-2.1947,-2.2617,-2.3679,-2.4703,-2.5277,-2.6383,-2.6929,-2.6584,-2.6533,-2.6533,-2.6533,-2.6063,-2.5586,-2.5046,-2.4506,-2.4142,-2.4004,-2.3452,-2.3078,-2.3078,-2.3305,-2.3548,-2.3872,-2.4025,-2.4124,-2.4159,-2.3606,-2.2955,-2.2132,-2.2132,-2.2602,-1.7028,-1.7974,-1.8697,-1.8236,-1.749,-1.7512,-2.0177,-1.9984,0.0,-2.1918,0.0,0.0,0.0,0.0,0.0,0.0,0.0,0.0,0.0,0.0,0.0,0.0,0.0,0.0,0.0,0.0,0.0,0.0,0.0,0.0,0.0,0.0,0.0,-2.9867,-2.9854,-2.9829,-2.9792,-2.9792,-2.9817,-2.9854,-3.0331,-3.057,-3.062,-3.062,-3.0595,-3.0532,-3.0055,-2.9829,-2.9792,-2.9792,-2.9792,-2.9792,-2.9792,-2.9792,-2.9792,-2.9792,-2.9792,-2.9624,-2.8518,-2.8096,-2.7763,-2.5535,-2.4787,-2.4617,-2.3434,-2.2568,-2.1963,-2.1904,-2.1299,-2.0752,-2.1133,-2.0928,-2.0605,-2.0576,-2.0566,-2.0566,-2.0566,-2.1328,-2.1918,-2.1886,-2.266,-2.3632,-2.4647,-2.4886,-2.5265,-2.6245,-2.649,-2.6571,-2.6533,-2.6533,-2.6533,-2.6533,-2.6496,-2.6163,-2.5586,-2.5059,-2.4544,-2.4029,-2.3452,-2.3078,-2.3078,-2.3826,-2.454,-2.5218,-2.5943,-2.6025,-2.5431,-2.5384,-2.4714,-2.345,-2.345,-2.4149,-1.6785,-1.7664,-1.8543,-1.8681,-1.8633,0.0,0.0,-2.2019,-2.2832,-2.5091,-2.5618,0.0,0.0,0.0,0.0,0.0,0.0,0.0,0.0,0.0,0.0,0.0,0.0,0.0,0.0,0.0,0.0,0.0,0.0,0.0,0.0,0.0,0.0,-2.9804,-2.9792,-2.9792,-2.9792,-2.9792,-2.9792,-2.9792,-3.0005,-3.0105,-3.0105,-3.0105,-3.0105,-3.0093,-2.988,-2.9792,-2.9792,-2.9792,-2.9792,-2.9792,-2.9792,-2.9792,-2.9792,-2.9792,-2.9792,-2.9714,-2.9287,-2.9197,-2.8858,-2.7348,-2.6849,-2.6521,-2.4713,-2.3791,-2.3093,-2.2201,-2.1445,-2.0957,-2.084,-2.0693,-2.0566,-2.0566,-2.0566,-2.0566,-2.0566,-2.0857,-2.1298,-2.1886,-2.2328,-2.3073,-2.4707,-2.5004,-2.537,-2.6383,-2.6533,-2.6533,-2.6533,-2.6533,-2.6533,-2.6533,-2.6138,-2.5699,-2.5159,-2.4619,-2.4217,-2.4017,-2.3452,-2.3078,-2.3078,-2.3884,-2.4624,-2.5398,-2.6122,-2.6199,-2.5615,-2.5615,-2.4728,-2.3054,-2.3421,-2.3896,-1.6522,-1.7087,-1.7802,-1.8367,0.0,0.0,-2.2385,-2.3577,-2.4983,-2.7544,-2.7795,0.0,0.0,0.0,0.0,0.0,0.0,0.0,0.0,0.0,0.0,0.0,0.0,0.0,0.0,0.0,0.0,0.0,0.0,0.0,0.0,0.0,0.0,0.0,-2.9792,-2.9792,-2.9792,-2.9792,-2.9792,-2.9792,-2.9792,-2.9792,-2.9792,-2.9792,-2.9792,-2.9792,-2.9792,-2.9792,-2.9792,-2.9792,-2.9792,-2.9792,-2.9792,-2.9792,-2.9792,-2.9792,-2.9792,-2.9792,-2.9792,-2.9792,-2.9624,-2.8426,-2.8096,-2.7728,-2.5683,-2.4583,-2.3719,-2.2493,-2.1589,-2.0947,-2.0644,-2.0566,-2.0566,-2.0566,-2.0566,-2.0566,-2.0566,-2.1088,-2.1669,-2.2328,-2.2988,-2.3879,-2.5217,-2.5441,-2.5734,-2.6383,-2.6533,-2.6533,-2.6533,-2.6533,-2.6533,-2.6533,-2.6101,-2.5649,-2.5109,-2.4569,-2.4192,-2.4004,-2.3682,-2.3484,-2.3484,-2.4439,-2.5231,-2.5728,-2.6443,-2.6556,-2.5914,-2.5704,-2.48,-2.3316,-2.3525,-2.3733,-1.6522,-1.6522,-1.6672,0.0,0.0,0.0,-2.3376,-2.4431,-2.5774,-2.9101,0.0,-2.8285,-2.8825,0.0,0.0,0.0,0.0,0.0,0.0,0.0,0.0,0.0,0.0,0.0,0.0,0.0,0.0,0.0,0.0,0.0,0.0,0.0,0.0,0.0,-2.9779,-2.9779,-2.9779,-2.9779,-2.9779,-2.9779,-2.9792,-2.9792,-2.9792,-2.9792,-2.9792,-2.9792,-2.9792,-2.9792,-2.9792,-2.9792,-2.9792,-2.9792,-2.9792,-2.9792,-2.9792,-2.9792,-2.9792,-2.9792,-2.9792,-2.9792,-2.9624,-2.8505,-2.8096,-2.7829,-2.6097,-2.4658,-2.3408,-2.2867,-2.173,-2.0644,-2.0566,-2.0566,-2.0566,-2.0566,-2.0634,-2.0634,-2.0634,-2.2113,-2.3503,-2.3503,-2.5122,-2.6452,-2.6533,-2.6533,-2.6533,-2.6533,-2.6533,-2.6533,-2.6533,-2.6533,-2.6533,-2.6533,-2.6533,-2.6226,-2.5649,-2.5121,-2.4582,-2.4042,-2.4222,-2.4292,-2.4292,-2.5728,-2.651,-2.651,-2.7203,-2.7245,-2.6587,-2.5929,-2.527,-2.4567,-2.3924,-2.3969,-1.6522,-1.7099,0.0,-1.8857,0.0,0.0,0.0,-2.6479,0.0,0.0,0.0,-3.0038,0.0,0.0,0.0,0.0,0.0,0.0,0.0,0.0,0.0,0.0,0.0,0.0,0.0,0.0,0.0,0.0,0.0,0.0,0.0,0.0,0.0,0.0,-2.8599,-2.8599,-2.8599,-2.8988,-2.9189,-2.9189,-2.9591,-2.9792,-2.9792,-2.9792,-2.9792,-2.9792,-2.9792,-2.9792,-2.9792,-2.9792,-2.9792,-2.9792,-2.9792,-2.9792,-2.9792,-2.9792,-2.9792,-2.9792,-2.9792,-2.9792,-2.9714,-2.9378,-2.9287,-2.9008,-2.7309,-2.6569,-2.58,-2.3409,-2.2491,-2.1937,-2.0868,-2.0566,-2.0566,-2.0566,-2.0847,-2.1046,-2.1046,-2.1728,-2.2736,-2.3804,-2.4457,-2.5225,-2.6321,-2.6533,-2.6533,-2.6533,-2.6533,-2.6533,-2.6533,-2.6533,-2.6533,-2.6533,-2.6533,-2.665,-2.7037,-2.6116,-2.5805,-2.623,-2.6021,-2.5398,-2.435,-2.5728,-2.651,-2.651,-2.7203,-2.7245,-2.6587,-2.6393,-2.5719,-2.4582,-2.4373,-2.4178,-1.6522,-1.7338,0.0,-1.9535,-2.2382,-2.5746,-2.8908,0.0,0.0,0.0,0.0,0.0,0.0,0.0,0.0,0.0,0.0,0.0,0.0,0.0,0.0,0.0,0.0,0.0,0.0,0.0,0.0,0.0,0.0,0.0,0.0,0.0,0.0,0.0,-2.8109,-2.8109,-2.8109,-2.8436,-2.8599,-2.8612,-2.9176,-2.9453,-2.9453,-2.9691,-2.9792,-2.9792,-2.9792,-2.9792,-2.9792,-2.9792,-2.9792,-2.9792,-2.9792,-2.9792,-2.9792,-2.9792,-2.9792,-2.9792,-2.9792,-2.9792,-2.9792,-2.9792,-2.9792,-2.9564,-2.8044,-2.7408,-2.6635,-2.4318,-2.3058,-2.2318,-2.1369,-2.1155,-2.1155,-2.1155,-2.1312,-2.1618,-2.206,-2.2473,-2.3133,-2.4294,-2.465,-2.5154,-2.6283,-2.6533,-2.6533,-2.6533,-2.6533,-2.6533,-2.6533,-2.6533,-2.6533,-2.6533,-2.6533,-2.6693,-2.7275,-2.6446,-2.6182,-2.6744,-2.6621,-2.6122,-2.5231,-2.6336,-2.693,-2.693,-2.7357,-2.743,-2.6976,-2.6722,-2.6048,-2.5016,-2.4701,-2.4253,-1.6584,0.0,0.0,-1.9813,-2.3109,0.0,-3.1424,0.0,-3.2736,0.0,0.0,0.0,0.0,0.0,0.0,0.0,0.0,0.0,0.0,0.0,0.0,0.0,0.0,0.0,0.0,0.0,0.0,0.0,0.0,0.0,0.0,0.0,0.0,0.0,-2.7959,-2.7959,-2.7959,-2.8009,-2.8034,0.0,-2.8586,-2.885,-2.8875,-2.9503,-2.9792,-2.9792,-2.9792,-2.9792,-2.9792,-2.9792,-2.9792,-2.9792,-2.9792,-2.9792,-2.9792,-2.9792,-2.9792,-2.9792,-2.9792,-2.9792,-2.9779,-2.9729,-2.9754,-2.9578,-2.8386,-2.7496,-2.6668,-2.5325,-2.3728,-2.2359,-2.2199,-2.2103,-2.2178,-2.2253,-2.2179,-2.2349,-2.3307,-2.3839,-2.4253,-2.4895,-2.5252,-2.5724,-2.642,-2.6533,-2.6533,-2.6533,-2.6483,-2.6445,-2.6445,-2.6445,-2.6445,-2.6445,-2.6395,-2.656,-2.6814,-2.6307,-2.6149,-2.6394,-2.6517,-2.6616,-2.6616,-2.7255,-2.7625,-2.7625,-2.7625,-2.7625,-2.7625,-2.6976,-2.6318,-2.56,-2.494,-2.4313,-1.7074,-1.7689,0.0,0.0,-2.6803,-3.1295,-3.3509,-3.4061,0.0,0.0,0.0,0.0,0.0,0.0,0.0,0.0,0.0,0.0,0.0,0.0,0.0,0.0,0.0,0.0,0.0,0.0,0.0,0.0,0.0,0.0,0.0,0.0,0.0,-2.6816,-2.6816,-2.6816,-2.6816,-2.7243,-2.7457,0.0,-2.8021,-2.8285,-2.8323,-2.9327,-2.9792,-2.9792,-2.9792,-2.9792,-2.9792,-2.9792,-2.9792,-2.9792,-2.9792,-2.9792,-2.9792,-2.9792,-2.9792,-2.9792,-2.9792,-2.9792,-2.9716,-2.9264,-2.9415,-2.9503,-2.7934,-2.8225,-2.8533,-2.5757,-2.5271,-2.5235,-2.3642,-2.3147,-2.3368,-2.4192,-2.3641,-2.3052,-2.3269,-2.3357,-2.3641,-2.4632,-2.4928,-2.531,-2.6289,-2.6533,-2.6533,-2.6533,-2.6076,-2.5787,-2.5787,-2.5787,-2.5787,-2.5787,-2.5948,-2.6483,-2.7631,-2.7259,-2.7326,-2.8032,-2.7624,-2.7357,-2.7357,-2.7524,-2.7625,-2.7625,-2.7625,-2.7625,-2.7625,-2.7475,-2.6752,-2.5615,-2.5465,-2.4747,-1.6886,0.0,0.0,-2.4737,0.0,-3.1758,-3.3583,0.0,0.0,0.0,0.0,0.0,0.0,0.0,0.0,0.0,0.0,0.0,0.0,0.0,0.0,0.0,0.0,0.0,0.0,0.0,0.0,0.0,0.0,0.0,0.0,-2.6063,-2.5937,-2.5686,-2.6189,-2.6327,-2.605,-2.6603,-2.6892,-2.6892,-2.7444,-2.7846,-2.8122,-2.8712,-2.8988,-2.8988,-2.8988,-2.9126,-2.9377,-2.9377,-2.9541,-2.9792,-2.9792,-2.9792,-2.9792,-2.9792,-2.9792,-2.9754,-2.9478,-2.9566,-2.9654,-2.8812,-2.8913,-2.9114,-2.7708,-2.7896,-2.8211,-2.6267,-2.5756,-2.5597,-2.4476,-2.4192,-2.4337,-2.4862,-2.4518,-2.4253,-2.4742,-2.457,-2.4569,-2.5435,-2.5385,-2.546,-2.6382,-2.6226,-2.605,-2.605,-2.5573,-2.5222,-2.5222,-2.5222,-2.534,-2.5691,-2.5853,-2.6398,-2.7561,-2.7428,-2.7559,-2.8077,-2.7769,-2.7625,-2.7625,-2.7625,-2.7625,-2.7625,-2.7625,-2.7625,-2.7625,-2.7625,-2.6901,-2.5615,-2.5615,-2.4881,-1.6635,0.0,-2.164,-2.6418,-2.8886,0.0,-3.2437,0.0,0.0,0.0,0.0,0.0,0.0,0.0,0.0,0.0,0.0,0.0,0.0,0.0,0.0,0.0,0.0,0.0,0.0,0.0,0.0,0.0,0.0,0.0,-2.482,-2.5222,-2.5272,-2.4833,-2.5699,-2.595,-2.5473,-2.5937,-2.6214,-2.6314,-2.6879,-2.7281,-2.7544,-2.7733,-2.7921,-2.8109,-2.8109,-2.836,-2.8787,-2.8787,-2.9063,-2.9503,-2.9503,-2.9503,-2.9503,-2.9503,-2.9503,-2.944,-2.895,-2.9101,-2.9327,-2.8298,-2.8335,-2.8586,-2.7469,-2.7268,-2.7293,-2.671,-2.5947,-2.5349,-2.5253,-2.5229,-2.5229,-2.5229,-2.5229,-2.5487,-2.6189,-2.5862,-2.5598,-2.6088,-2.5862,-2.5749,-2.6226,-2.5837,-2.546,-2.546,-2.5021,-2.4682,-2.4682,-2.4682,-2.4963,-2.5713,-2.5792,-2.6212,-2.7197,-2.7357,-2.7404,-2.7604,-2.7625,-2.7625,-2.7625,-2.7625,-2.7625,-2.7625,-2.7625,-2.7625,-2.7625,-2.7625,-2.6961,-2.5779,-2.5779,-2.5061,0.0,0.0,-2.2825,0.0,-2.7045,-2.9769,0.0,0.0,0.0,0.0,0.0,0.0,0.0,0.0,0.0,0.0,0.0,0.0,0.0,0.0,0.0,0.0,0.0,0.0,0.0,0.0,0.0,0.0,0.0,0.0,-2.482,-2.4895,-2.4895,-2.482,-2.4971,-2.5008,-2.4921,-2.5008,-2.5272,-2.5724,-2.6289,-2.6113,-2.5297,-2.6239,-2.7205,-2.8109,-2.8109,-2.8147,-2.821,-2.821,-2.826,-2.8335,-2.8335,-2.8335,-2.8335,-2.8335,-2.8335,-2.8323,-2.8235,-2.826,-2.8222,-2.7595,-2.777,-2.8009,-2.6904,-2.7231,-2.7783,-2.6753,-2.6734,-2.6914,-2.6439,-2.6314,-2.6314,-2.6314,-2.6314,-2.6177,-2.5812,-2.5297,-2.4946,-2.5021,-2.5335,-2.5624,-2.5699,-2.5272,-2.4921,-2.4921,-2.4456,-2.4104,-2.4104,-2.4104,-2.4404,-2.5148,-2.5378,-2.5967,-2.7195,-2.746,-2.7548,-2.7575,-2.7625,-2.7625,-2.7625,-2.7625,-2.7625,-2.7625,-2.7625,-2.7625,-2.7625,-2.7625,-2.7186,-2.6452,-2.6452,-2.5749,-1.7661,-1.958,-2.1643,0.0,-2.5321,-2.7455,0.0,0.0,0.0,0.0,0.0,0.0,0.0,0.0,0.0,0.0,0.0,0.0,0.0,0.0,0.0,0.0,0.0,0.0,0.0,0.0,0.0,0.0,0.0,-2.3088,-2.3401,-2.3715,-2.3879,-2.3879,-2.4494,-2.4669,-2.4356,-2.4669,-2.4933,-2.5172,-2.5724,-2.5724,-2.5272,-2.5749,-2.6239,-2.6716,-2.7042,-2.7356,-2.7645,-2.7645,-2.7821,-2.8109,-2.8109,-2.8109,-2.8109,-2.8109,-2.8109,-2.8059,-2.7758,-2.7846,-2.7959,-2.7105,-2.7193,-2.7494,-2.6703,-2.6804,-2.708,-2.6603,-2.6697,-2.6766,-2.6596,-2.6533,-2.6533,-2.6533,-2.6533,-2.6458,-2.6138,-2.59,-2.5737,-2.5737,-2.5925,-2.5975,-2.5649,-2.5172,-2.472,-2.4406,-2.3879,-2.3514,-2.3514,-2.3866,-2.4439,-2.5172,-2.573,-2.6383,-2.7416,-2.7571,-2.7625,-2.7625,-2.7625,-2.7625,-2.7625,-2.7625,-2.7625,-2.7625,-2.7625,-2.7625,-2.7625,-2.7625,-2.728,-2.6587,-2.6587,-2.6078,0.0,0.0,-2.0188,-2.1599,-2.3407,-2.4986,0.0,0.0,0.0,0.0,0.0,0.0,0.0,0.0,0.0,0.0,0.0,0.0,0.0,0.0,0.0,0.0,0.0,0.0,0.0,0.0,0.0,0.0,0.0,-2.1669,-2.2083,-2.2623,-2.2924,-2.2924,-2.3879,-2.4192,-2.3791,-2.433,-2.4544,-2.4406,-2.5071,-2.5247,-2.4971,-2.5272,-2.5322,-2.5222,-2.5799,-2.6352,-2.6854,-2.6854,-2.718,-2.7682,-2.7682,-2.7682,-2.7682,-2.7682,-2.7682,-2.7632,-2.7218,-2.7344,-2.7557,-2.6728,-2.6741,-2.6992,-2.6647,-2.6533,-2.6533,-2.6533,-2.6533,-2.6533,-2.6533,-2.6533,-2.6533,-2.6533,-2.6533,-2.6533,-2.6533,-2.6352,-2.6289,-2.6496,-2.6408,-2.6101,-2.5674,-2.5172,-2.4632,-2.4079,-2.3502,-2.3078,-2.3078,-2.3826,-2.4567,-2.5342,-2.6068,-2.6826,-2.7524,-2.7625,-2.7625,-2.7625,-2.7625,-2.7625,-2.7625,-2.7625,-2.7625,-2.7625,-2.7625,-2.7625,-2.7625,-2.7625,-2.737,-2.6841,-2.6841,-2.6393,0.0,-1.7858,0.0,-1.9253,0.0,0.0,0.0,0.0,0.0,0.0,0.0,0.0,0.0,0.0,0.0,0.0,0.0,0.0,0.0,0.0,0.0,0.0,0.0,0.0,0.0,0.0,0.0,0.0,0.0,-2.1506,-2.1531,-2.2058,-2.2347,-2.2347,-2.2865,-2.3153,-2.3175,-2.3753,-2.3766,-2.3178,-2.433,-2.4305,-2.3301,-2.4381,-2.4569,-2.4117,-2.4669,-2.5197,-2.5686,-2.5686,-2.6025,-2.6609,-2.6609,-2.6609,-2.6609,-2.6609,-2.6609,-2.6609,-2.6584,-2.6584,-2.6596,-2.6546,-2.6546,-2.6571,-2.6533,-2.6533,-2.6533,-2.6533,-2.6533,-2.6533,-2.6533,-2.6533,-2.6533,-2.6533,-2.6533,-2.6533,-2.6533,-2.6025,-2.5799,-2.642,-2.6013,-2.5636,-2.5598,-2.5172,-2.4632,-2.4079,-2.3502,-2.3078,-2.3078,-2.3826,-2.4567,-2.5342,-2.6068,-2.6826,-2.7524,-2.7625,-2.7625,-2.7625,-2.7625,-2.7625,-2.7625,-2.7625,-2.7625,-2.7625,-2.7625,-2.7625,-2.7625,-2.7625,-2.761,-2.7565,-2.7565,-2.6841,0.0,0.0,0.0,-1.8464,0.0,0.0,0.0,0.0,0.0,0.0,0.0,0.0,0.0,0.0,0.0,0.0,0.0,0.0,0.0,0.0,0.0,0.0,0.0,0.0,0.0,0.0,0.0,0.0,0.0,0.0,-2.0941,-2.1154,-2.1418,-2.1769,-2.197,-2.2083,-2.2083,-2.2636,-2.2811,-2.2623,-2.3753,-2.4079,-2.3703,-2.4104,-2.4192,-2.3991,-2.3816,-2.4255,-2.5096,-2.5096,-2.5423,-2.59,-2.59,-2.6138,-2.6533,-2.6533,-2.6533,-2.6533,-2.6533,-2.6533,-2.6533,-2.6533,-2.6533,-2.6533,-2.6533,-2.6533,-2.6533,-2.6533,-2.6533,-2.6533,-2.6533,-2.6533,-2.6533,-2.6533,-2.6533,-2.642,-2.5988,-2.6038,-2.6214,-2.6483,-2.6302,-2.6038,-2.5661,-2.5172,-2.4632,-2.4079,-2.3502,-2.3078,-2.3078,-2.3826,-2.4567,-2.5342,-2.6068,-2.6826,-2.7524,-2.7625,-2.7625,-2.7625,-2.7625,-2.7625,-2.7625,-2.7625,-2.7625,-2.7625,-2.7625,-2.7625,-2.7625,-2.7141,-2.7156,-2.761,-2.7141,-2.6916,-1.7585,0.0,0.0,0.0,0.0,0.0,0.0,0.0,0.0,0.0,0.0,0.0,0.0,0.0,0.0,0.0,0.0,0.0,0.0,0.0,0.0,0.0,0.0,0.0,0.0,0.0,0.0,0.0,0.0,0.0,-2.01,-2.0464,-2.097,-2.1468,-2.1493,-2.1493,-2.1493,-2.1845,-2.2033,-2.2046,-2.2799,-2.315,-2.3163,-2.3351,-2.3439,-2.3427,-2.3226,-2.3665,-2.4544,-2.4544,-2.4858,-2.536,-2.5523,-2.5824,-2.6189,-2.6458,-2.6533,-2.6533,-2.6533,-2.6533,-2.6533,-2.6533,-2.6533,-2.6533,-2.6533,-2.6533,-2.6533,-2.6533,-2.6533,-2.6533,-2.6533,-2.6533,-2.6483,-2.6214,-2.6163,-2.6013,-2.546,-2.5774,-2.6113,-2.5937,-2.5912,-2.5787,-2.5398,-2.4895,-2.4418,-2.4054,-2.3502,-2.3078,-2.3078,-2.3989,-2.4851,-2.5342,-2.6283,-2.7086,-2.7575,-2.7625,-2.7625,-2.7625,-2.7625,-2.7625,-2.7625,-2.7625,-2.747,-2.7295,-2.7245,-2.7126,-2.6916,-2.6692,-2.6931,-2.761,-2.6901,-2.6826,0.0,0.0,0.0,0.0,0.0,0.0,0.0,0.0,0.0,0.0,0.0,0.0,0.0,0.0,0.0,0.0,0.0,0.0,0.0,0.0,0.0,0.0,0.0,0.0,0.0,0.0,0.0,0.0,0.0,-1.8958,-1.8958,-2.0024,-2.092,-2.1393,-2.143,-2.1443,-2.1443,-2.1455,-2.1468,-2.1468,-2.1481,-2.1493,-2.1506,-2.2046,-2.2284,-2.2322,-2.2862,-2.3401,-2.3929,-2.3954,-2.4305,-2.4845,-2.5372,-2.5586,-2.5661,-2.6319,-2.6533,-2.6533,-2.6533,-2.6533,-2.6533,-2.6533,-2.6533,-2.6533,-2.6533,-2.6533,-2.6533,-2.6533,-2.6533,-2.6533,-2.6508,-2.6496,-2.6289,-2.5711,-2.5573,-2.5435,-2.4908,-2.5197,-2.541,-2.4921,-2.482,-2.482,-2.482,-2.4419,-2.4054,-2.4054,-2.3563,-2.3198,-2.3198,-2.4439,-2.5398,-2.5453,-2.6692,-2.756,-2.7625,-2.7625,-2.7625,-2.7625,-2.7625,-2.761,-2.7595,-2.761,-2.726,-2.6572,-2.6572,-2.6273,-2.5615,-2.6228,-2.6871,-2.755,-2.6856,-2.6572,-1.8688,0.0,0.0,0.0,0.0,0.0,0.0,0.0,0.0,0.0,0.0,0.0,0.0,0.0,0.0,0.0,0.0,0.0,0.0,0.0,0.0,0.0,0.0,0.0,0.0,0.0,0.0,0.0,-1.843,-1.843,-1.843,-1.9095,-1.9547,-1.971,-2.0075,-2.0263,-2.0263,-2.0677,-2.0891,-2.0957,-2.1292,-2.1493,-2.1493,-2.1644,-2.1719,-2.1732,-2.1882,-2.2033,-2.2246,-2.305,-2.3703,-2.428,-2.482,-2.5272,-2.5661,-2.6319,-2.6533,-2.6533,-2.6533,-2.6533,-2.6533,-2.6533,-2.6533,-2.6533,-2.6533,-2.6533,-2.6533,-2.6533,-2.6533,-2.6433,-2.5937,-2.5837,-2.5699,-2.5159,-2.5034,-2.4883,-2.4343,-2.4343,-2.4519,-2.477,-2.5218,-2.5621,-2.5621,-2.5567,-2.5612,-2.5612,-2.5101,-2.4781,-2.4781,-2.4681,-2.5007,-2.6068,-2.6054,-2.6428,-2.7509,-2.7625,-2.7625,-2.7625,-2.7625,-2.7365,-2.6886,-2.737,-2.7036,-2.5899,-2.6348,-2.6273,-2.5615,-2.5315,-2.551,-2.6153,-2.5959,-2.6138,0.0,0.0,0.0,0.0,0.0,0.0,-1.9207,-1.9132,0.0,0.0,0.0,0.0,0.0,0.0,0.0,0.0,0.0,0.0,0.0,0.0,0.0,0.0,0.0,0.0,0.0,0.0,0.0,-1.7865,-1.7865,-1.7953,-1.8191,-1.8505,-1.8681,-1.8681,-1.8982,-1.9246,-1.9472,-1.9811,-2.0087,-2.0313,-2.0627,-2.079,-2.079,-2.1041,-2.1142,-2.1154,-2.1393,-2.1619,-2.1882,-2.2523,-2.2987,-2.3401,-2.4418,-2.4858,-2.5059,-2.6088,-2.637,-2.6138,-2.6445,-2.6533,-2.6533,-2.6533,-2.6533,-2.6533,-2.6533,-2.6533,-2.6533,-2.6533,-2.6533,-2.6327,-2.5749,-2.5598,-2.541,-2.4657,-2.4481,-2.4318,-2.3766,-2.364,-2.374,-2.4054,-2.4687,-2.5208,-2.5208,-2.5567,-2.5866,-2.5866,-2.5619,-2.5398,-2.5398,-2.5287,-2.5563,-2.6404,-2.639,-2.6654,-2.7524,-2.7625,-2.7625,-2.7625,-2.737,-2.6991,-2.6602,-2.6692,-2.6258,-2.5211,-2.557,-2.5435,-2.4777,-2.4627,-2.4776,-2.5211,-2.5764,-2.6228,0.0,0.0,0.0,0.0,0.0,0.0,-1.8997,-1.8936,-1.9055,0.0,0.0,0.0,0.0,0.0,0.0,0.0,0.0,0.0,0.0,0.0,0.0,0.0,0.0,0.0,0.0,-1.7576,-1.7287,-1.7287,-1.7287,-1.7501,-1.799,-1.8078,-1.8116,-1.8116,-1.8179,-1.8442,-1.8932,-1.8883,-1.9196,-1.971,-1.971,-1.9748,-1.9823,-2.0338,-2.0618,-2.0655,-2.1091,-2.1581,-2.2046,-2.2274,-2.2342,-2.256,-2.418,-2.4545,-2.4305,-2.5952,-2.6232,-2.5914,-2.6371,-2.668,-2.6769,-2.6582,-2.6595,-2.6589,-2.6521,-2.6533,-2.6533,-2.6533,-2.6483,-2.6239,-2.5661,-2.546,-2.5159,-2.4142,-2.3904,-2.3766,-2.3251,-2.3078,-2.3078,-2.3078,-2.3826,-2.4452,-2.4509,-2.5175,-2.5673,-2.5673,-2.5673,-2.5673,-2.5673,-2.6176,-2.651,-2.6616,-2.7152,-2.7479,-2.747,-2.7505,-2.749,-2.7365,-2.6797,-2.6452,-2.6378,-2.5884,-2.527,-2.4477,-2.4462,-2.4223,-2.3595,-2.4223,-2.4507,-2.4612,-2.5749,-2.6378,0.0,0.0,0.0,0.0,0.0,0.0,-1.9694,-1.9281,-1.9049,0.0,0.0,0.0,0.0,0.0,0.0,0.0,0.0,0.0,0.0,0.0,0.0,0.0,0.0,0.0,0.0,-1.6748,-1.6685,-1.6685,-1.6685,-1.6735,-1.6835,-1.7287,-1.7551,-1.7551,-1.7978,-1.8254,-1.8367,-1.8367,-1.8643,-1.9183,-1.9183,-1.9397,-1.9798,-1.9924,-1.9974,-1.9974,-2.0087,-2.0188,-2.0404,-2.1938,-2.2704,-2.311,-2.4477,-2.4966,-2.5074,-2.6377,-2.7147,-2.748,-2.7039,-2.7615,-2.8282,-2.7039,-2.7026,-2.7351,-2.6714,-2.6533,-2.6533,-2.6533,-2.6126,-2.5636,-2.5109,-2.4644,-2.4142,-2.3464,-2.3314,-2.3215,-2.3103,-2.3078,-2.3078,-2.3078,-2.4221,-2.5342,-2.596,-2.6707,-2.7188,-2.7188,-2.7188,-2.7188,-2.7188,-2.6774,-2.6721,-2.7306,-2.6982,-2.6725,-2.6777,-2.6782,-2.6557,-2.6019,-2.5869,-2.5555,-2.5031,-2.539,-2.5031,-2.3819,-2.3804,-2.3729,-2.3595,-2.3729,-2.4088,-2.4567,-2.4328,-2.5046,0.0,0.0,0.0,-2.0722,0.0,0.0,0.0,-1.9575,-1.908,0.0,0.0,0.0,0.0,0.0,0.0,0.0,0.0,0.0,0.0,0.0,0.0,0.0,0.0,0.0,0.0,-1.6522,-1.6522,-1.6522,-1.6522,-1.6522,-1.6522,-1.6798,-1.6948,-1.6948,-1.7225,-1.7501,-1.779,-1.779,-1.8078,-1.8618,-1.8845,-1.9171,-1.9422,-1.9685,-1.9798,-1.9798,-2.0144,-2.0463,-2.0836,-2.243,-2.3366,-2.3839,-2.5146,-2.567,-2.5855,-2.6708,-2.7239,-2.7589,-2.7514,-2.7974,-2.8359,-2.7468,-2.742,-2.7537,-2.6714,-2.6533,-2.6471,-2.6113,-2.5824,-2.541,-2.4619,-2.4205,-2.3853,-2.3215,-2.3078,-2.3078,-2.3078,-2.3078,-2.3185,-2.359,-2.461,-2.5508,-2.5892,-2.6878,-2.7625,-2.7625,-2.7625,-2.7625,-2.7625,-2.7306,-2.7203,-2.756,-2.7255,-2.6937,-2.6647,-2.6901,-2.6662,-2.5674,-2.5615,-2.5315,-2.4612,-2.4612,-2.4283,-2.361,-2.3595,-2.3595,-2.3595,-2.3595,-2.3774,-2.4118,-2.4448,-2.5136,0.0,0.0,0.0,0.0,0.0,-2.0991,0.0,0.0,0.0,0.0,0.0,0.0,0.0,0.0,0.0,0.0,0.0,0.0,0.0,0.0,0.0,0.0,0.0,0.0,0.0,-1.6522,-1.6522,-1.6522,-1.6522,-1.6522,-1.6522,-1.6522,-1.6522,-1.6522,-1.6522,-1.6735,-1.7212,-1.7212,-1.7488,-1.8053,-1.8606,-1.8883,-1.8995,-1.956,-1.9798,-1.985,-2.0497,-2.1073,-2.1534,-2.3008,-2.3961,-2.4563,-2.5814,-2.63,-2.6483,-2.7069,-2.7435,-2.7748,-2.818,-2.8442,-2.8586,-2.8143,-2.7893,-2.7537,-2.6714,-2.6533,-2.6339,-2.5762,-2.5523,-2.5222,-2.4255,-2.3916,-2.3715,-2.3251,-2.299,-2.2975,-2.2975,-2.2827,-2.2989,-2.3618,-2.4444,-2.5176,-2.5522,-2.6707,-2.758,-2.7445,-2.7535,-2.7535,-2.723,-2.746,-2.752,-2.7215,-2.7355,-2.7066,-2.6273,-2.6811,-2.6692,-2.5495,-2.542,-2.5181,-2.4612,-2.3969,-2.3595,-2.3595,-2.3595,-2.3595,-2.3595,-2.3595,-2.3595,-2.3625,-2.4717,-2.5285,0.0,0.0,0.0,0.0,-2.2024,0.0,0.0,0.0,0.0,0.0,0.0,0.0,0.0,0.0,0.0,0.0,0.0,0.0,0.0,0.0,0.0,0.0,0.0,0.0,0.0,0.0,-1.6522,-1.6522,-1.6522,-1.6522,-1.6522,-1.6522,-1.6522,-1.6522,-1.6522,-1.6547,-1.6609,-1.6609,-1.6911,-1.7488,-1.8028,-1.8555,-1.8995,-1.956,-1.9798,-1.985,-2.0497,-2.0835,-2.104,-2.2901,-2.4072,-2.4761,-2.6002,-2.6504,-2.663,-2.7954,-2.8788,-2.9347,-2.9421,-3.0152,-3.0895,-2.9533,-2.8498,-2.7537,-2.6714,-2.6533,-2.6339,-2.5762,-2.5259,-2.477,-2.4155,-2.3615,-2.3153,-2.309,-2.2761,-2.2397,-2.2397,-2.202,-2.1725,-2.1781,-2.2897,-2.4351,-2.6097,-2.7034,-2.743,-2.6782,-2.72,-2.7156,-2.5974,-2.6841,-2.7126,-2.5959,-2.6363,-2.6198,-2.491,-2.545,-2.5525,-2.4746,-2.4686,-2.4657,-2.4582,-2.3969,-2.3595,-2.3595,-2.3595,-2.3595,-2.3595,-2.3595,-2.3595,-2.3595,-2.3759,-2.4163,0.0,0.0,0.0,0.0,0.0,0.0,-2.0079,0.0,-1.8768,0.0,0.0,0.0,0.0,0.0,0.0,0.0,0.0,0.0,0.0,0.0,0.0,0.0,0.0,0.0,0.0,0.0,0.0,0.0,0.0,-1.6522,-1.6522,-1.6522,-1.6522,-1.6522,-1.6522,-1.6522,-1.6522,-1.6522,-1.6635,-1.6886,-1.7451,-1.7852,-1.8103,-1.8957,-1.9534,-1.9979,-2.0917,-2.1534,-2.203,-2.3572,-2.4616,-2.5295,-2.6223,-2.7049,-2.7771,-2.8383,-2.8771,-2.9071,-2.9445,-2.9699,-2.9674,-2.8808,-2.813,-2.7537,-2.6714,-2.6226,-2.585,-2.5297,-2.4757,-2.4217,-2.364,-2.3314,-2.299,-2.2736,-2.2472,-2.2221,-2.1895,-2.1656,-2.1592,-2.1953,-2.2857,-2.3961,-2.5148,-2.5967,-2.6333,-2.6063,-2.6258,-2.6243,-2.5674,-2.6093,-2.6213,-2.5674,-2.5854,-2.5644,-2.4657,-2.5226,-2.5151,-2.4103,-2.4029,-2.4029,-2.4029,-2.3744,-2.3595,-2.3595,-2.3595,-2.3595,-2.3595,-2.3595,-2.3595,-2.3595,-2.3595,-2.3969,-2.1814,0.0,0.0,0.0,0.0,0.0,0.0,0.0,0.0,0.0,0.0,0.0,0.0,0.0,0.0,0.0,0.0,0.0,0.0,0.0,0.0,0.0,0.0,0.0,0.0,0.0,0.0,-1.6522,-1.6522,-1.6522,-1.6522,-1.6522,-1.6522,-1.6522,-1.6522,-1.6522,-1.6522,-1.6522,-1.6522,-1.6522,-1.7099,-1.7388,-1.7413,-1.8367,-1.9246,-2.0059,-2.1062,-2.1945,-2.2783,-2.3866,-2.4852,-2.5659,-2.6138,-2.7141,-2.8368,-2.8727,-2.8861,-2.8966,-2.9609,-2.9415,-2.8729,-2.7998,-2.7664,-2.7391,-2.6324,-2.5724,-2.5272,-2.4745,-2.4305,-2.3866,-2.3288,-2.2965,-2.2811,-2.2616,-2.2185,-2.1857,-2.1812,-2.1553,-2.1491,-2.2088,-2.2824,-2.3491,-2.3917,-2.4908,-2.5555,-2.536,-2.5495,-2.548,-2.5106,-2.5375,-2.5465,-2.5091,-2.5226,-2.5076,-2.4403,-2.4956,-2.4926,-2.3939,-2.3879,-2.3789,-2.361,-2.3595,-2.3595,-2.3595,-2.3595,-2.3595,-2.3595,-2.3595,-2.3595,-2.3595,-2.3595,-2.3864,0.0,0.0,0.0,-2.2488,0.0,0.0,0.0,0.0,-1.9204,0.0,0.0,0.0,0.0,0.0,0.0,0.0,0.0,0.0,0.0,0.0,0.0,0.0,0.0,0.0,0.0,0.0,0.0,-1.6522,-1.6522,-1.6522,-1.6522,-1.6522,-1.6522,-1.6522,-1.6522,-1.6522,-1.6522,-1.6522,-1.6522,-1.6522,-1.7099,-1.7388,-1.74,-1.7978,-1.8874,-2.0033,-2.0639,-2.158,-2.2754,-2.3348,-2.4418,-2.5615,-2.563,-2.6437,-2.7805,-2.9071,-2.9549,-2.9639,-3.0253,-3.0058,-2.9317,-2.775,-2.7235,-2.6903,-2.5345,-2.4858,-2.4732,-2.418,-2.4017,-2.3866,-2.3288,-2.2736,-2.2495,-2.3115,-2.1966,-2.1064,-2.2278,-2.1632,-2.0997,-2.1623,-2.2263,-2.2766,-2.2752,-2.432,-2.539,-2.4701,-2.5196,-2.5136,-2.3834,-2.4807,-2.5106,-2.3804,-2.4253,-2.4373,-2.3684,-2.4268,-2.4597,-2.4552,-2.4552,-2.4298,-2.3625,-2.3595,-2.3595,-2.3595,-2.3595,-2.3595,-2.3595,-2.3595,-2.3595,-2.3595,-2.3595,-2.361,0.0,0.0,-2.0991,-2.0798,0.0,0.0,0.0,0.0,0.0,0.0,0.0,0.0,0.0,0.0,0.0,0.0,0.0,0.0,0.0,0.0,0.0,0.0,0.0,0.0,0.0,0.0,0.0,-1.6522,-1.6522,-1.6522,0.0,-1.6522,-1.6522,-1.6522,-1.6522,-1.6522,-1.6522,-1.6522,-1.6522,-1.6522,-1.6722,-1.7011,-1.74,-1.7953,-1.9084,-2.0653,-2.1208,-2.2147,-2.3334,-2.3508,-2.4388,-2.5615,-2.5615,-2.6422,-2.7679,-2.8592,-2.8652,-2.8329,-2.8487,-2.8727,-2.8747,-2.7623,-2.757,-2.7722,-2.658,-2.5669,-2.4939,-2.4806,-2.4058,-2.3301,-2.2736,-2.2447,-2.2293,-2.2163,-2.1747,-2.1458,-2.1917,-2.1671,-2.1582,-2.2253,-2.2543,-2.283,-2.3231,-2.3837,-2.4208,-2.3984,-2.4133,-2.4118,-2.3655,-2.3999,-2.4103,-2.3655,-2.3804,-2.3849,-2.3625,-2.3819,-2.3939,-2.3939,-2.3939,-2.3849,-2.361,-2.3595,-2.3595,-2.3595,-2.3948,-2.4116,-2.4116,-2.4511,-2.4657,-2.4672,-2.4307,-2.3948,-2.0767,-2.0722,0.0,-2.0274,-1.999,0.0,-1.8448,0.0,0.0,0.0,0.0,0.0,0.0,0.0,0.0,0.0,0.0,0.0,0.0,-1.6522,0.0,0.0,0.0,0.0,0.0,0.0,-1.6522,-1.6522,-1.6522,-1.6522,0.0,0.0,-1.6522,-1.6522,-1.6522,-1.6522,-1.6522,-1.6522,-1.6522,-1.6522,-1.6522,-1.671,-1.7099,-1.79,-1.9125,-2.0654,-2.1419,-2.2449,-2.3595,-2.3595,-2.4253,-2.5285,-2.5525,-2.6273,-2.7335,-2.8263,-2.8323,-2.7934,-2.7934,-2.8068,-2.8114,-2.7248,-2.7319,-2.7483,-2.6703,-2.5702,-2.4846,-2.4846,-2.417,-2.3403,-2.284,-2.2704,-2.269,-2.2342,-2.1938,-2.1767,-2.2263,-2.2225,-2.2239,-2.2875,-2.3009,-2.3143,-2.3551,-2.3595,-2.3595,-2.3595,-2.3595,-2.3595,-2.3595,-2.3595,-2.3595,-2.3595,-2.3595,-2.3595,-2.3595,-2.3595,-2.3595,-2.3595,-2.3595,-2.3595,-2.3595,-2.3595,-2.3934,-2.4648,-2.4471,-2.4745,-2.5475,-2.5305,-2.5221,-2.5182,-2.4871,-2.4511]}]]